[[{"header":{"parameterUnit":"m.s-1","parameterCategory":1,"la1":31.0,"la2":29.5877,"lo1":-88.7671,"lo2":-86.6584,"dy":0.0162,"dx":0.0185,"nx":115,"ny":88,"refTime":"2026-04-05T12:00:00:Z","depth":0,"parameterNumber":2,"parameterNumberName":"U-component_of_WINDS"},"data":[0.0,0.0,0.0,0.0,0.0,0.0,0.0,0.0,0.0,0.0,0.0,0.0,0.0,0.0,0.0,0.0,0.0,0.0,0.0,0.0,0.0,0.0,0.0,0.0,0.0,0.0,0.0,0.0,0.0,0.0,0.0,0.0,0.0,0.0,0.0,0.0,0.0,0.0,0.0,0.0,0.0,0.0,0.0,0.0,0.0,0.0,0.0,0.0,0.0,0.0,0.0,0.0,0.0,0.0,0.0,0.0,0.0,0.0,0.0,0.0,0.0,0.0,0.0,0.0,0.0,0.0,0.0,0.0,0.0,0.0,0.0,0.0,0.0,0.0,0.0,0.0,0.0,0.0,0.0,0.0,0.0,0.0,0.0,0.0,0.0,0.0,0.0,0.0,0.0,0.0,0.0,0.0,0.0,0.0,0.0,0.0,0.0,0.0,0.0,0.0,0.0,0.0,0.0,0.0,0.0,0.0,0.0,0.0,0.0,0.0,0.0,0.0,0.0,0.0,0.0,0.0,0.0,0.0,0.0,0.0,0.0,0.0,0.0,0.0,0.0,0.0,0.0,0.0,0.0,0.0,0.0,0.0,0.0,0.0,0.0,0.0,0.0,0.0,0.0,0.0,0.0,0.0,0.0,0.0,0.0,0.0,0.0,0.0,0.0,0.0,0.0,0.0,0.0,0.0,0.0,0.0,0.0,0.0,0.0,0.0,0.0,0.0,0.0,0.0,0.0,0.0,0.0,0.0,0.0,0.0,0.0,0.0,0.0,0.0,0.0,0.0,0.0,0.0,0.0,0.0,0.0,0.0,0.0,0.0,0.0,0.0,0.0,0.0,0.0,0.0,0.0,0.0,0.0,0.0,0.0,0.0,0.0,0.0,0.0,0.0,0.0,0.0,0.0,0.0,0.0,0.0,0.0,0.0,0.0,0.0,0.0,0.0,0.0,0.0,0.0,0.0,0.0,0.0,0.0,0.0,0.0,0.0,0.0,0.0,0.0,0.0,0.0,0.0,0.0,0.0,0.0,0.0,0.0,0.0,0.0,0.0,0.0,0.0,0.0,0.0,0.0,0.0,0.0,0.0,0.0,0.0,0.0,0.0,0.0,0.0,0.0,0.0,0.0,0.0,0.0,0.0,0.0,0.0,0.0,0.0,0.0,0.0,0.0,0.0,0.0,0.0,0.0,0.0,0.0,0.0,0.0,0.0,0.0,0.0,0.0,0.0,0.0,0.0,0.0,0.0,0.0,0.0,0.0,0.0,0.0,0.0,0.0,0.0,0.0,0.0,0.0,0.0,0.0,0.0,0.0,0.0,0.0,0.0,0.0,0.0,0.0,0.0,0.0,0.0,0.0,0.0,0.0,0.0,0.0,0.0,0.0,0.0,0.0,0.0,0.0,0.0,0.0,0.0,0.0,0.0,0.0,0.0,0.0,0.0,0.0,0.0,0.0,0.0,0.0,0.0,0.0,0.0,0.0,0.0,0.0,0.0,0.0,0.0,0.0,0.0,0.0,0.0,0.0,0.0,0.0,0.0,0.0,0.0,0.0,0.0,0.0,0.0,0.0,0.0,0.0,0.0,0.0,0.0,0.0,0.0,0.0,0.0,0.0,0.0,0.0,0.0,0.0,0.0,0.0,0.0,0.0,0.0,0.0,0.0,0.0,0.0,0.0,0.0,0.0,0.0,0.0,0.0,0.0,0.0,0.0,0.0,0.0,0.0,0.0,0.0,0.0,0.0,0.0,0.0,0.0,0.0,0.0,0.0,0.0,0.0,0.0,0.0,0.0,0.0,0.0,0.0,0.0,0.0,0.0,0.0,0.0,0.0,0.0,0.0,0.0,0.0,0.0,0.0,0.0,0.0,0.0,0.0,0.0,0.0,0.0,0.0,0.0,0.0,0.0,0.0,0.0,0.0,0.0,0.0,0.0,0.0,0.0,0.0,0.0,0.0,0.0,0.0,0.0,0.0,0.0,0.0,0.0,0.0,0.0,0.0,0.0,0.0,0.0,0.0,0.0,0.0,0.0,0.0,0.0,0.0,0.0,0.0,0.0,0.0,0.0,0.0,0.0,0.0,0.0,0.0,0.0,0.0,0.0,0.0,0.0,0.0,0.0,0.0,0.0,0.0,0.0,0.0,0.0,0.0,0.0,0.0,0.0,0.0,0.0,0.0,0.0,0.0,0.0,0.0,0.0,0.0,0.0,0.0,0.0,0.0,0.0,0.0,0.0,0.0,0.0,0.0,0.0,0.0,0.0,0.0,0.0,0.0,0.0,0.0,0.0,0.0,0.0,0.0,0.0,0.0,0.0,0.0,0.0,0.0,0.0,0.0,0.0,0.0,0.0,0.0,0.0,0.0,0.0,0.0,0.0,0.0,0.0,0.0,0.0,0.0,0.0,0.0,0.0,0.0,0.0,0.0,0.0,0.0,0.0,0.0,0.0,0.0,0.0,0.0,0.0,0.0,0.0,0.0,0.0,0.0,0.0,0.0,0.0,0.0,0.0,0.0,0.0,0.0,0.0,0.0,0.0,0.0,0.0,0.0,0.0,0.0,0.0,0.0,0.0,0.0,0.0,0.0,0.0,0.0,0.0,0.0,0.0,0.0,0.0,0.0,0.0,0.0,0.0,0.0,0.0,0.0,0.0,0.0,0.0,0.0,0.0,0.0,0.0,0.0,0.0,0.0,0.0,0.0,0.0,0.0,0.0,0.0,0.0,0.0,0.0,0.0,0.0,0.0,0.0,0.0,0.0,0.0,0.0,0.0,0.0,0.0,0.0,0.0,0.0,0.0,0.0,0.0,0.0,0.0,0.0,0.0,0.0,0.0,0.0,0.0,0.0,0.0,0.0,0.0,0.0,0.0,0.0,0.0,0.0,0.0,0.0,0.0,0.0,0.0,0.0,0.0,0.0,0.0,0.0,0.0,0.0,0.0,0.0,0.0,0.0,0.0,0.0,0.0,0.0,0.0,0.0,0.0,0.0,0.0,0.0,0.0,0.0,0.0,0.0,0.0,0.0,0.0,0.0,0.0,0.0,0.0,0.0,0.0,0.0,0.0,0.0,0.0,0.0,0.0,0.0,0.0,0.0,0.0,0.0,0.0,0.0,0.0,0.0,0.0,0.0,0.0,0.0,0.0,0.0,0.0,0.0,0.0,0.0,0.0,0.0,0.0,0.0,0.0,0.0,0.0,0.0,0.0,0.0,0.0,0.0,0.0,0.0,0.0,0.0,0.0,0.0,0.0,0.0,0.0,0.0,0.0,0.0,0.0,0.0,0.0,0.0,0.0,0.0,0.0,0.0,0.0,0.0,0.0,0.0,0.0,0.0,0.0,0.0,0.0,0.0,0.0,0.0,0.0,0.0,0.0,0.0,0.0,0.0,0.0,0.0,0.0,0.0,0.0,0.0,0.0,0.0,0.0,0.0,0.0,0.0,0.0,0.0,0.0,0.0,0.0,0.0,0.0,0.0,0.0,0.0,0.0,0.0,0.0,0.0,0.0,0.0,0.0,0.0,0.0,0.0,0.0,0.0,0.0,0.0,0.0,0.0,0.0,0.0,0.0,0.0,0.0,0.0,0.0,0.0,0.0,0.0,0.0,0.0,0.0,0.0,0.0,0.0,0.0,0.0,0.0,0.0,0.0,0.0,0.0,0.0,0.0,0.0,0.0,0.0,0.0,0.0,0.0,0.0,0.0,0.0,0.0,0.0,0.0,0.0,0.0,0.0,0.0,0.0,0.0,0.0,0.0,0.0,0.0,0.0,0.0,0.0,0.0,0.0,0.0,0.0,0.0,0.0,0.0,0.0,0.0,0.0,0.0,0.0,0.0,0.0,0.0,0.0,0.0,0.0,0.0,0.0,0.0,0.0,0.0,0.0,0.0,0.0,0.0,0.0,0.0,0.0,0.0,0.0,0.0,0.0,0.0,0.0,0.0,0.0,0.0,0.0,0.0,0.0,0.0,0.0,0.0,0.0,0.0,0.0,0.0,0.0,0.0,0.0,0.0,0.0,0.0,0.0,0.0,0.0,0.0,0.0,0.0,0.0,0.0,0.0,0.0,0.0,0.0,0.0,0.0,0.0,0.0,0.0,0.0,0.0,0.0,0.0,0.0,0.0,0.0,0.0,0.0,0.0,0.0,0.0,0.0,0.0,0.0,0.0,0.0,0.0,0.0,0.0,0.0,0.0,0.0,0.0,0.0,0.0,0.0,0.0,0.0,0.0,0.0,0.0,0.0,0.0,0.0,0.0,0.0,0.0,0.0,0.0,0.0,0.0,0.0,0.5311,0.0,0.0,0.0,0.0,0.0,0.0,0.0,0.0,0.0,0.0,0.0,0.0,0.0,0.0,0.0,0.0,0.0,0.0,0.0,0.0,0.0,0.0,0.0,0.0,0.0,0.0,0.0,0.0,0.0,0.0,0.0,0.0,0.0,0.0,0.0,0.0,0.0,0.0,0.0,0.0,0.0,0.0,0.0,0.0,0.0,0.0,0.0,0.0,0.0,0.0,0.0,0.0,0.0,0.0,0.0,0.0,0.0,0.0,0.0,0.0,0.0,0.0,0.0,0.0,0.0,0.0,0.0,0.0,0.0,0.0,0.0,0.0,0.0,0.0,0.0,0.0,0.0,0.0,0.0,0.0,0.0,0.0,0.0,0.0,0.0,0.0,0.0,0.0,0.0,0.0,0.0,0.0,0.0,0.0,0.0,0.0,0.0,0.0,0.0,0.0,0.0,0.0,0.0,0.0,0.0,0.0,0.0,0.0,0.0,0.0,0.5311,0.5311,0.5311,0.5311,0.5311,0.0,0.0,0.0,0.0,0.0,0.0,0.0,0.0,0.0,0.0,0.0,0.0,0.0,0.0,0.0,0.0,0.0,0.0,0.0,0.0,0.0,0.0,0.0,0.0,0.0,0.0,0.0,0.0,0.0,0.0,0.0,0.0,0.0,0.0,0.0,0.0,0.0,0.0,0.0,0.0,0.0,0.0,0.0,0.0,0.0,0.0,0.0,0.0,0.0,0.0,0.0,0.0,0.0,0.0,0.0,0.0,0.0,0.0,0.0,0.0,0.0,0.0,0.0,0.0,0.0,0.0,0.0,0.0,0.0,0.0,0.0,0.0,0.0,0.0,0.0,0.0,0.0,0.0,0.0,0.0,0.0,0.0,0.0,0.0,0.0,0.0,0.0,0.0,0.0,0.0,0.0,0.0,0.0,0.0,0.0,0.0,0.0,0.0,0.0,0.0,0.0,0.0,0.0,0.0,0.0,0.0,0.0,0.0,0.0,0.0,0.0,0.0,0.5408,0.5408,0.5375,0.0,0.0,0.0,0.0,0.0,0.0,0.0,0.0,0.0,0.0,0.0,0.0,0.0,0.0,0.0,0.0,0.0,0.0,0.0,0.0,0.0,0.0,0.0,0.0,0.0,0.0,0.0,0.0,0.0,0.0,0.0,0.0,0.0,0.0,0.0,0.0,0.0,0.0,0.0,0.0,0.0,0.0,0.0,0.0,0.0,0.0,0.0,0.0,0.0,0.0,0.0,0.0,0.0,0.0,0.0,0.0,0.0,0.0,0.0,0.0,0.0,0.0,0.0,0.0,0.0,0.0,0.0,0.0,0.0,0.0,0.0,0.0,0.0,0.0,0.0,0.0,0.0,0.0,0.0,0.0,0.0,0.0,0.0,0.0,0.0,0.0,0.0,0.0,0.0,0.0,0.0,0.0,0.0,0.0,0.0,0.0,0.0,0.0,0.0,0.0,0.0,0.0,0.0,0.0,0.0,0.0,0.0,0.0,0.0,0.0,0.5573,0.5573,0.5735,0.0,0.5581,0.0,0.0,0.0,0.0,0.0,0.0,0.0,0.0,0.0,0.0,0.0,0.0,0.0,0.0,0.0,0.0,0.0,0.0,0.0,0.0,0.0,0.0,0.0,0.0,0.0,0.0,0.0,0.0,0.0,0.0,0.0,0.0,0.0,0.0,0.0,0.0,0.0,0.0,0.0,0.0,0.0,0.0,0.0,0.0,0.0,0.0,0.0,0.0,0.0,0.0,0.0,0.0,0.0,0.0,0.0,0.0,0.0,0.0,0.0,0.0,0.0,0.0,0.0,0.0,0.0,0.0,0.0,0.0,0.0,0.0,0.0,0.0,0.0,0.0,0.0,0.0,0.0,0.0,0.0,0.0,0.0,0.0,0.0,0.0,0.0,0.0,0.0,0.0,0.0,0.0,0.0,0.0,0.0,0.0,0.0,0.0,0.0,0.0,0.0,0.0,0.0,0.0,0.0,0.0,0.0,0.0,0.0,0.0,0.0,0.0,0.0,0.5774,0.5863,0.5799,0.0,0.0,0.0,0.0,0.0,0.0,0.0,0.0,0.0,0.0,0.0,0.0,0.0,0.0,0.0,0.0,0.0,0.0,0.0,0.0,0.0,0.0,0.0,0.0,0.0,0.0,0.0,0.0,0.0,0.0,0.0,0.0,0.0,0.0,0.0,0.0,0.0,0.0,0.0,0.0,0.0,0.0,0.0,0.0,0.0,0.0,0.0,0.0,0.0,0.0,0.0,0.0,0.0,0.0,0.0,0.0,0.0,0.0,0.0,0.0,0.0,0.0,0.0,0.0,0.0,0.0,0.0,0.0,0.0,0.0,0.0,0.0,0.0,0.0,0.0,0.0,0.0,0.0,0.0,0.0,0.0,0.0,0.0,0.0,0.0,0.0,0.0,0.0,0.0,0.0,0.0,0.0,0.0,0.0,0.0,0.0,0.0,0.0,0.0,0.0,0.0,0.0,0.0,0.0,0.0,0.0,0.0,0.0,0.0,0.0,0.5494,0.0,0.5895,0.5888,0.5799,0.5606,0.0,0.0,0.0,0.0,0.0,0.0,0.0,0.0,0.0,0.0,0.0,0.0,0.0,0.0,0.0,0.0,0.0,0.0,0.0,0.0,0.0,0.0,0.0,0.0,0.0,0.0,0.0,0.0,0.0,0.0,0.0,0.0,0.0,0.0,0.0,0.0,0.0,0.0,0.0,0.0,0.0,0.0,0.0,0.0,0.0,0.0,0.0,0.0,0.0,0.0,0.0,0.0,0.0,0.0,0.0,0.0,0.0,0.0,0.0,0.0,0.0,0.0,0.0,0.0,0.0,0.0,0.0,0.0,0.0,0.0,0.0,0.0,0.0,0.0,0.0,0.0,0.0,0.0,0.0,0.0,0.0,0.0,0.0,0.0,0.0,0.0,0.0,0.0,0.0,0.0,0.0,0.0,0.0,0.0,0.0,0.0,0.0,0.0,0.0,0.0,0.0,0.0,0.0,0.0,0.0,0.0,0.0,0.0,0.0,0.5494,0.5701,0.588,0.5888,0.5799,0.0,0.0,0.0,0.0,0.0,0.0,0.0,0.0,0.0,0.0,0.0,0.0,0.0,0.0,0.0,0.0,0.0,0.0,0.0,0.0,0.0,0.0,0.0,0.0,0.0,0.0,0.0,0.0,0.0,0.0,0.0,0.0,0.0,0.0,0.0,0.0,0.0,0.0,0.0,0.0,0.0,0.0,0.0,0.0,0.0,0.0,0.0,0.0,0.0,0.0,0.0,0.0,0.0,0.0,0.0,0.0,0.0,0.0,0.0,0.0,0.0,0.0,0.0,0.0,0.0,0.0,0.0,0.0,0.0,0.0,0.0,0.0,0.0,0.0,0.0,0.0,0.0,0.0,0.0,0.0,0.0,0.0,0.0,0.0,0.0,0.0,0.0,0.0,0.0,0.0,0.0,0.0,0.0,0.0,0.0,0.0,0.0,0.0,0.0,0.0,0.0,0.0,0.0,0.0,0.0,0.0,0.0,0.0,0.0,0.5327,0.5622,0.5815,0.5888,0.5888,0.5799,0.0,0.0,0.0,0.0,0.0,0.0,0.0,0.0,0.0,0.0,0.0,0.0,0.0,0.0,0.0,0.0,0.0,0.0,0.0,0.0,0.0,0.0,0.0,0.0,0.0,0.0,0.0,0.0,0.0,0.0,0.0,0.0,0.0,0.0,0.0,0.0,0.0,0.0,0.0,0.0,0.0,0.0,0.0,0.0,0.0,0.0,0.0,0.0,0.0,0.0,0.0,0.0,0.0,0.0,0.0,0.0,0.0,0.0,0.0,0.0,0.0,0.0,0.0,0.0,0.0,0.0,0.0,0.0,0.0,0.0,0.0,0.0,0.0,0.0,0.0,0.0,0.0,0.0,0.0,0.0,0.0,0.0,0.0,0.0,0.0,0.0,0.0,0.0,0.0,0.0,0.0,0.0,0.0,0.0,0.0,0.0,0.0,0.0,0.0,0.0,0.0,0.0,0.0,0.0,0.0,0.0,0.0,0.0,0.0,0.5408,0.0,0.601,0.0,0.596,0.5871,0.0,0.0,0.0,0.0,0.0,0.0,0.0,0.0,0.0,0.0,0.0,0.0,0.0,0.0,0.0,0.0,0.0,0.0,0.0,0.0,0.0,0.0,0.0,0.0,0.0,0.0,0.0,0.0,0.0,0.0,0.0,0.0,0.0,0.0,0.0,0.0,0.0,0.0,0.0,0.0,0.0,0.0,0.0,0.0,0.0,0.0,0.0,0.0,0.0,0.0,0.0,0.0,0.0,0.0,0.0,0.0,0.0,0.0,0.0,0.0,0.0,0.0,0.0,0.0,0.0,0.0,0.0,0.0,0.0,0.0,0.0,0.0,0.0,0.0,0.0,0.0,0.0,0.0,0.0,0.0,0.0,0.0,0.0,0.0,0.0,0.0,0.0,0.0,0.0,0.0,0.0,0.0,0.0,0.0,0.0,0.0,0.0,0.0,0.0,0.0,0.0,0.0,0.0,0.0,0.0,0.0,0.0,0.0,0.5438,0.5622,0.6132,0.627,0.5951,0.609,0.6008,0.0,0.0,0.0,0.0,0.0,0.0,0.0,0.0,0.0,0.0,0.0,0.0,0.0,0.0,0.0,0.0,0.0,0.0,0.0,0.0,0.0,0.0,0.0,0.0,0.0,0.0,0.0,0.0,0.0,0.0,0.0,0.0,0.0,0.0,0.0,0.0,0.0,0.0,0.0,0.0,0.0,0.0,0.0,0.0,0.0,0.0,0.0,0.0,0.0,0.0,0.0,0.0,0.0,0.0,0.0,0.0,0.0,0.0,0.0,0.0,0.0,0.0,0.0,0.0,0.0,0.0,0.0,0.0,0.0,0.0,0.0,0.0,0.0,0.0,0.0,0.0,0.0,0.0,0.0,0.0,0.0,0.0,0.0,0.0,0.0,0.0,0.0,0.0,0.0,0.0,0.0,0.0,0.0,0.0,0.0,0.0,0.0,0.0,0.0,0.0,0.0,0.0,0.0,0.0,0.0,0.0,0.0,0.0,0.0,0.6165,0.6587,0.671,0.6457,0.6294,0.6089,0.0,0.0,0.0,0.0,0.0,0.0,0.0,0.0,0.0,0.0,0.0,0.0,0.0,0.0,0.0,0.0,0.0,0.0,0.0,0.0,0.0,0.0,0.0,0.0,0.0,0.0,0.0,0.0,0.0,0.0,0.0,0.0,0.0,0.0,0.0,0.0,0.0,0.0,0.0,0.0,0.0,0.0,0.0,0.0,0.0,0.0,0.0,0.0,0.0,0.0,0.0,0.0,0.0,0.0,0.0,0.0,0.0,0.0,0.0,0.0,0.0,0.0,0.0,0.0,0.0,0.0,0.0,0.0,0.0,0.0,0.0,0.0,0.0,0.0,0.0,0.0,0.0,0.0,0.0,0.0,0.0,0.0,0.0,0.0,0.0,0.0,0.0,0.0,0.0,0.0,0.0,0.0,0.0,0.0,0.0,0.0,0.0,0.0,0.0,0.0,0.0,0.0,0.0,0.0,0.0,0.0,0.0,0.0,0.0,0.7512,0.7621,0.7515,0.7206,0.6931,0.6604,0.6221,0.0,0.0,0.0,0.0,0.0,0.0,0.0,0.0,0.0,0.0,0.0,0.0,0.0,0.0,0.0,0.0,0.0,0.0,0.0,0.0,0.0,0.0,0.0,0.0,0.0,0.0,0.0,0.0,0.0,0.0,0.0,0.0,0.0,0.0,0.0,0.0,0.0,0.0,0.0,0.0,0.0,0.0,0.0,0.0,0.0,0.0,0.0,0.0,0.0,0.0,0.0,0.0,0.0,0.0,0.0,0.0,0.0,0.0,0.0,0.0,0.0,0.0,0.0,0.0,0.0,0.0,0.0,0.0,0.0,0.0,0.0,0.0,0.0,0.0,0.0,0.0,0.0,0.0,0.0,0.0,0.0,0.0,0.0,0.0,0.0,0.0,0.0,0.0,0.0,0.0,0.0,0.0,0.0,0.0,0.0,0.0,0.0,0.0,0.0,0.0,0.0,0.0,0.0,0.0,0.0,0.0,0.0,0.0,0.9453,0.9145,0.8708,0.8138,0.7947,0.7507,0.0,0.0,0.0,0.0,0.0,0.0,0.0,0.0,0.0,0.0,0.0,0.0,0.0,0.0,0.0,0.0,0.0,0.0,0.0,0.0,0.0,0.0,0.0,0.0,0.0,0.0,0.0,0.0,0.0,0.0,0.0,0.0,0.0,0.0,0.0,0.0,0.0,0.0,0.0,0.0,0.0,0.0,0.0,0.0,0.0,0.0,0.0,0.0,0.0,0.0,0.0,0.0,0.0,0.0,0.0,0.0,0.0,0.0,0.0,0.0,0.0,0.0,0.0,0.0,0.0,0.0,0.0,0.0,0.0,0.0,0.0,0.0,0.0,0.0,0.0,0.0,0.0,0.0,0.0,0.0,0.0,0.0,0.0,0.0,0.0,0.0,0.0,0.0,0.0,0.0,0.0,0.0,0.0,0.0,0.0,0.0,0.0,0.0,0.0,0.0,0.0,0.0,0.0,0.0,0.0,0.0,0.0,0.0,0.0,1.0093,1.0798,1.0615,0.9437,0.8844,0.8211,0.0,0.0,0.0,0.0,0.0,0.0,0.0,0.0,0.0,0.0,0.0,0.0,0.0,0.0,0.0,0.0,0.0,0.0,0.0,0.0,0.0,0.0,0.0,0.0,0.0,0.0,0.0,0.0,0.0,0.0,0.0,0.0,0.0,0.0,0.0,0.0,0.0,0.0,0.0,0.0,0.0,0.0,0.0,0.0,0.0,0.0,0.0,0.0,0.0,0.0,0.0,0.0,0.0,0.0,0.0,0.0,0.0,0.0,0.0,0.0,0.0,0.0,0.0,0.0,0.0,0.0,0.0,0.0,0.0,0.0,0.0,0.0,0.0,0.0,0.0,0.0,0.0,0.0,0.0,0.0,0.0,0.0,0.0,0.0,0.0,0.0,0.0,0.0,0.0,0.0,0.0,0.0,0.0,0.0,0.0,0.0,0.0,0.0,0.0,0.0,0.0,0.0,0.0,0.0,0.0,0.0,0.0,0.0,0.9729,1.0952,1.2044,1.2085,1.1065,1.003,0.9056,0.0,0.0,0.0,0.0,0.0,0.0,0.0,0.0,0.0,0.0,0.0,0.0,0.0,0.0,0.0,0.0,0.0,0.0,0.0,0.0,0.0,0.0,0.0,0.0,0.0,0.0,0.0,0.0,0.0,0.0,0.0,0.0,0.0,0.0,0.0,0.0,0.0,0.0,0.0,0.0,0.0,0.0,0.0,0.0,0.0,0.0,0.0,0.0,0.0,0.0,0.0,0.0,0.0,0.0,0.0,0.0,0.0,0.0,0.0,0.0,0.0,0.0,0.0,0.0,0.0,0.0,0.0,0.0,0.0,0.0,0.0,0.0,0.0,0.0,0.0,0.0,0.0,0.0,0.0,0.0,0.0,0.0,0.0,0.0,0.0,0.0,0.0,0.0,0.0,0.0,0.0,0.0,0.0,0.0,0.0,0.0,0.0,0.0,0.0,0.0,0.0,0.0,0.0,0.0,0.0,0.0,0.0,0.0,1.0393,1.1809,1.2889,1.3182,1.2637,1.1273,0.994,0.0,0.0,0.0,0.0,0.0,0.0,0.0,0.0,0.0,0.0,0.0,0.0,0.0,0.0,0.0,0.0,0.0,0.0,0.0,0.0,0.0,0.0,0.0,0.0,0.0,0.0,0.0,0.0,0.0,0.0,0.0,0.0,0.0,0.0,0.0,0.0,0.0,0.0,0.0,0.0,0.0,0.0,0.0,0.0,0.0,0.0,0.0,0.0,0.0,0.0,0.0,0.0,0.0,0.0,0.0,0.0,0.0,0.0,0.0,0.0,0.0,0.0,0.0,0.0,0.0,0.0,0.0,0.0,0.0,0.0,0.0,0.0,0.0,0.0,0.0,0.0,0.0,0.0,0.0,0.0,0.0,0.0,0.0,0.0,0.0,0.0,0.0,0.0,0.0,0.0,0.0,0.0,0.0,0.0,0.0,0.0,0.0,0.0,0.0,0.0,0.0,0.0,0.0,0.0,0.0,0.0,0.0,0.0,1.1029,1.2174,1.3108,1.3358,1.2986,1.1874,1.0753,0.0,0.0,0.0,0.0,0.0,0.0,0.0,0.0,0.0,0.0,0.0,0.0,0.0,0.0,0.0,0.0,0.0,0.0,0.0,0.0,0.0,0.0,0.0,0.0,0.0,0.0,0.0,0.0,0.0,0.0,0.0,0.0,0.0,0.0,0.0,0.0,0.0,0.0,0.0,0.0,0.0,0.0,0.0,0.0,0.0,0.0,0.0,0.0,1.0281,0.0,0.0,0.0,0.0,0.0,0.0,0.0,0.0,0.0,0.0,0.0,0.0,0.0,0.0,0.0,0.0,0.0,0.0,0.0,0.0,0.0,0.0,0.0,0.0,0.0,0.0,0.0,0.0,0.0,0.0,0.0,0.0,0.0,0.0,0.0,0.0,0.0,0.0,0.0,0.0,0.0,0.0,0.0,0.0,0.0,0.0,0.0,0.0,0.0,0.0,0.0,0.0,0.0,0.0,0.0,0.0,0.0,0.0,0.0,1.1549,1.2507,1.3344,1.3601,1.3301,1.2524,1.1468,0.0,0.0,0.0,0.0,0.0,0.0,0.0,0.0,0.0,0.0,0.0,0.0,0.0,0.0,0.0,0.0,0.0,0.0,0.0,0.0,0.0,0.0,0.0,0.0,0.0,0.0,0.0,0.0,0.0,0.0,0.0,0.0,0.0,0.0,0.0,0.0,0.0,0.0,0.0,0.0,0.0,0.0,0.0,0.0,0.0,0.0,0.0,0.0,0.0,0.0,0.0,0.0,0.0,0.0,0.0,0.0,0.0,0.0,0.0,0.0,0.0,0.0,0.0,0.0,0.0,0.0,0.0,0.0,0.0,0.0,0.0,0.0,0.0,0.0,0.0,0.0,0.0,0.0,0.0,0.0,0.0,0.0,0.0,0.0,0.0,0.0,0.0,0.0,0.0,0.0,0.0,0.0,0.0,0.0,0.0,0.0,0.0,0.0,0.0,0.0,0.0,0.0,0.0,0.0,0.0,0.0,0.0,1.0964,1.2078,1.2904,1.3604,1.3839,1.3569,1.3018,1.1908,1.0251,0.0,0.0,0.0,0.0,0.0,0.0,0.0,0.0,0.0,0.0,0.0,0.0,0.0,0.0,0.0,0.0,0.0,0.0,0.0,0.0,0.0,0.0,0.0,0.0,0.0,0.0,0.0,0.0,0.0,0.0,0.0,0.0,0.0,0.0,0.0,0.0,0.0,0.0,0.7755,0.928,0.0,0.0,0.0,0.0,0.0,0.0,0.0,0.0,1.0522,0.0,0.0,0.0,0.0,0.0,0.0,0.0,0.0,0.0,0.0,0.0,0.0,0.0,0.0,0.0,0.0,0.0,0.0,0.0,0.0,0.0,0.0,0.0,0.0,0.0,0.0,0.0,0.0,0.0,0.0,0.0,0.0,0.0,0.0,0.0,0.0,0.0,0.0,0.0,0.0,0.0,0.0,0.0,0.0,0.0,0.0,0.0,0.0,0.0,0.0,0.0,0.0,0.0,0.0,0.0,0.0,1.0223,1.1787,1.288,1.3463,1.392,1.3904,1.3459,1.2751,1.1695,1.0251,0.0,0.0,0.0,0.0,0.0,0.0,0.0,0.0,0.0,0.0,0.0,0.0,0.0,0.0,0.0,0.0,0.0,0.0,0.0,0.0,0.0,0.0,0.0,0.0,0.0,0.0,0.0,0.0,0.0,0.0,0.0,0.0,0.0,0.0,0.0,0.0,0.0,0.0,0.0,0.9557,1.0171,0.0,0.0,0.0,0.0,0.0,0.0,0.0,0.0,1.0897,0.0,0.0,0.0,0.0,0.0,0.0,0.0,0.0,0.0,0.0,0.0,0.0,0.0,0.0,0.0,0.0,0.0,0.0,0.0,0.0,0.0,0.0,0.0,0.0,0.0,0.0,0.0,0.0,0.0,0.0,0.0,0.0,0.0,0.0,0.0,0.0,0.0,0.0,0.0,0.0,0.0,0.0,0.0,0.0,0.0,0.0,0.0,0.0,0.0,0.0,0.0,0.0,0.0,0.0,0.0,1.0402,1.198,1.3019,1.3448,1.4015,1.401,1.3419,1.2588,1.1533,0.0,0.0,0.0,0.0,0.0,0.0,0.0,0.0,0.0,0.0,0.0,0.0,0.0,0.0,0.0,0.0,0.0,0.0,0.0,0.0,0.0,0.0,0.0,0.0,0.0,0.0,0.0,0.0,0.0,0.0,0.0,0.0,0.0,0.0,0.0,0.0,0.0,0.0,0.0,0.0,0.9578,1.0085,0.954,0.0,0.0,0.0,0.0,0.0,0.0,1.1132,1.0931,0.0,0.0,0.0,0.0,0.0,0.0,0.0,0.0,0.0,0.0,0.0,0.0,0.0,0.0,0.0,0.0,0.0,0.0,0.0,0.0,0.0,0.0,0.0,0.0,0.0,0.0,0.0,0.0,0.0,0.0,0.0,0.0,0.0,0.0,0.0,0.0,0.0,0.0,0.0,0.0,0.0,0.0,0.0,0.0,0.0,0.0,0.0,0.0,0.0,0.0,0.0,0.0,0.0,0.0,0.0,1.0237,1.1708,1.27,1.3174,1.384,1.393,1.333,1.2483,1.1427,0.0,0.0,0.0,0.0,0.0,0.0,0.0,0.0,0.0,0.0,0.0,0.0,0.0,0.0,0.0,0.0,0.0,0.0,0.0,0.0,0.0,0.0,0.0,0.0,0.0,0.0,0.0,0.0,0.0,0.0,0.0,0.0,0.0,0.0,0.0,0.0,0.0,0.0,0.0,0.0,0.0,1.022,0.9796,0.9731,0.0,0.0,0.0,0.0,1.1189,1.1387,0.0,0.0,0.0,0.0,0.0,0.0,0.0,0.0,0.0,0.0,0.0,0.0,0.0,0.0,0.0,0.0,0.0,0.0,0.0,0.0,0.0,0.0,0.0,0.0,0.0,0.0,0.0,0.0,0.0,0.0,0.0,0.0,0.0,0.0,0.0,0.0,0.0,0.0,0.0,0.0,0.0,0.0,0.0,0.0,0.0,0.0,0.0,0.0,0.0,0.0,0.0,0.0,0.0,0.0,0.0,0.0,0.9662,1.0798,1.1837,1.2748,1.3296,1.3406,1.306,1.2354,1.1333,0.0,0.0,0.0,0.0,0.0,0.0,0.0,0.0,0.0,0.0,0.0,0.0,0.0,0.0,0.0,0.0,0.0,0.0,0.0,0.0,0.0,0.0,0.0,0.0,0.0,0.0,0.0,0.0,0.0,0.0,0.0,0.0,0.0,0.0,0.0,0.0,0.0,0.0,0.0,0.0,0.0,1.0886,1.0821,1.0813,1.0924,0.0,0.0,1.1684,1.1724,1.1948,0.0,0.0,0.0,0.0,0.0,0.0,0.0,0.0,0.0,0.0,0.0,0.0,0.0,0.0,0.0,0.0,0.0,0.0,0.0,0.0,0.0,0.0,0.0,0.0,0.0,0.0,0.0,0.0,0.0,0.0,0.0,0.0,0.0,0.0,0.0,0.0,0.0,0.0,0.0,0.0,0.0,0.0,0.0,0.0,0.0,0.0,0.0,0.0,0.0,0.0,0.0,0.0,0.0,0.0,0.0,0.704,0.8046,0.8785,0.9669,1.0692,1.1663,1.2104,1.1966,1.1682,1.0917,0.0,0.0,0.0,0.0,0.0,0.0,0.0,0.0,0.0,0.0,0.0,0.0,0.0,0.0,0.0,0.0,0.0,0.0,0.0,0.0,0.0,0.0,0.0,0.0,0.0,0.0,0.0,0.0,0.0,0.0,0.0,0.0,0.0,0.0,0.0,0.0,0.0,0.0,0.0,0.0,0.0,0.0,1.1456,1.1627,0.0,0.0,0.0,1.193,1.2055,0.0,0.0,0.0,0.0,0.0,0.0,0.0,0.0,0.0,0.0,0.0,0.0,0.0,0.0,0.0,0.0,0.0,0.0,0.0,0.0,0.0,0.0,0.0,0.0,0.0,0.0,0.0,0.0,0.0,0.0,0.0,0.0,0.0,0.0,0.0,0.0,0.0,0.0,0.0,0.0,0.0,0.0,0.0,0.0,0.0,0.0,0.0,0.0,0.0,0.0,0.0,0.0,0.0,0.0,0.0,0.0,0.0,0.6513,0.689,0.7615,0.8712,0.9932,1.067,1.0777,1.0833,0.0,0.0,0.0,0.0,0.0,0.0,0.0,0.0,0.0,0.0,0.0,0.0,0.0,0.0,0.0,0.0,0.0,0.0,0.0,0.0,0.0,0.0,0.0,0.0,0.0,0.0,0.0,0.5766,0.0,0.0,0.0,0.0,0.0,0.0,0.0,0.0,0.0,0.0,0.0,0.0,0.0,0.0,1.2091,1.2189,1.2475,1.2613,0.0,0.0,1.2451,1.2588,1.297,1.2865,0.0,0.0,0.0,0.0,0.0,0.0,0.0,0.0,0.0,0.0,0.0,0.0,0.0,0.0,0.0,0.0,0.0,0.0,0.0,0.0,0.0,0.0,0.0,0.0,0.0,0.0,0.0,0.0,0.0,0.0,0.0,0.0,0.0,0.0,0.0,0.0,0.0,0.0,0.0,0.0,0.0,0.0,0.0,0.0,0.0,0.0,0.0,0.0,0.0,0.0,0.0,0.0,0.0,0.0,0.0,0.5471,0.5581,0.618,0.7421,0.8446,0.9177,0.9585,0.9782,0.9496,0.0,0.0,0.0,0.0,0.0,0.0,0.0,0.0,0.0,0.0,0.0,0.0,0.0,0.0,0.0,0.0,0.0,0.0,0.0,0.0,0.0,0.0,0.0,0.0,0.0,0.0,0.0,0.0,0.0,0.0,0.0,0.0,0.0,0.0,0.0,0.0,0.0,0.0,0.0,0.0,0.0,1.2889,1.3222,1.3571,1.3734,0.0,0.0,1.3504,1.3485,1.3544,1.3212,1.2135,0.0,0.0,0.0,0.0,0.0,0.0,0.0,0.0,0.0,0.0,0.0,0.0,0.0,0.0,0.0,0.0,0.0,0.0,0.0,0.0,0.0,0.0,0.0,0.0,0.0,0.0,0.0,0.0,0.0,0.0,0.0,0.0,0.0,0.0,0.0,0.0,0.0,0.0,0.0,0.0,0.0,0.0,0.0,0.0,0.0,0.0,0.0,0.0,0.0,0.0,0.0,0.0,0.0,0.3456,0.3851,0.371,0.4144,0.5117,0.6035,0.6835,0.7376,0.7897,0.7949,0.0,0.0,0.0,0.0,0.0,0.0,0.0,0.0,0.0,0.0,0.0,0.0,0.0,0.0,0.0,0.0,0.0,0.0,0.0,0.0,0.0,0.0,0.0,0.0,0.0,0.0,0.0,0.0,0.6766,0.6791,0.6882,0.0,0.0,0.0,0.0,0.0,0.0,0.0,0.0,0.0,0.0,1.362,1.3977,1.4521,0.0,0.0,1.4589,1.4508,1.4298,1.4168,1.3731,1.2669,1.1598,0.0,0.0,0.0,0.0,0.0,0.0,0.0,0.0,0.0,0.0,0.0,0.0,0.0,0.0,0.0,0.0,0.0,0.0,0.0,0.0,0.0,0.0,0.0,0.0,0.0,0.0,0.0,0.0,0.0,0.0,0.0,0.0,0.0,0.0,0.0,0.0,0.0,0.0,0.0,0.0,0.0,0.0,0.0,0.0,0.0,0.0,0.0,0.0,0.0,0.0,0.0,0.0,0.2589,0.2817,0.2615,0.29,0.3615,0.4343,0.5013,0.5585,0.6159,0.6415,0.0,0.0,0.0,0.0,0.0,0.0,0.0,0.0,0.0,0.0,0.0,0.0,0.0,0.0,0.0,0.0,0.0,0.0,0.0,0.0,0.0,0.0,0.0,0.0,0.0,0.0,0.0,0.0,0.7257,0.7227,0.7151,0.0,0.0,0.0,0.0,0.0,0.0,0.0,0.0,0.0,0.0,1.4066,1.4529,1.5173,1.5594,1.5456,1.544,1.5294,1.4927,1.4578,1.399,1.3034,0.0,0.0,0.0,0.0,0.0,0.0,0.0,0.0,0.0,0.0,0.0,0.0,0.0,0.0,0.0,0.0,0.0,0.0,0.0,0.0,0.0,0.0,0.0,0.0,0.0,0.0,0.0,0.0,0.0,0.0,0.3263,0.0,0.0,0.0,0.0,0.0,0.0,0.0,0.0,0.0,0.0,0.0,0.0,0.0,0.0,0.0,0.0,0.0,0.0,0.0,0.0,0.0,0.0,0.2346,0.2588,0.2612,0.2775,0.3212,0.3697,0.411,0.4507,0.4804,0.5034,0.5238,0.0,0.0,0.0,0.0,0.0,0.0,0.0,0.0,0.0,0.0,0.0,0.0,0.0,0.0,0.0,0.0,0.0,0.0,0.0,0.0,0.0,0.0,0.0,0.0,0.0,0.0,0.7935,0.7857,0.7698,0.0,0.0,0.0,0.0,0.0,0.0,0.0,0.0,0.0,0.0,1.31,1.4164,1.4892,1.5577,1.5999,1.5991,1.5983,1.5796,1.5262,1.4635,1.3937,0.0,0.0,0.0,0.0,0.0,0.0,0.0,0.0,0.0,0.0,0.0,0.0,0.0,0.0,0.0,0.0,0.0,0.0,0.0,0.0,0.0,0.0,0.0,0.0,0.0,0.0,0.0,0.4819,0.4334,0.0,0.0,0.0,0.0,0.0,0.0,0.0,0.0,0.0,0.0,0.0,0.3353,0.3072,0.0,0.0,0.0,0.0,0.0,0.0,0.0,0.0,0.0,0.0,0.0,0.0,0.2081,0.232,0.2568,0.2736,0.287,0.305,0.3221,0.3286,0.3385,0.3564,0.3883,0.0,0.0,0.0,0.0,0.0,0.0,0.0,0.0,0.0,0.0,0.0,0.0,0.0,0.0,0.0,0.0,0.0,0.0,0.0,0.0,0.0,0.0,0.0,0.0,0.0,0.8016,0.0,0.0,0.0,0.0,0.0,0.0,0.0,0.0,0.0,0.0,0.0,1.1427,1.2402,1.3504,1.4427,1.5065,1.5934,1.6501,0.0,0.0,0.0,0.0,0.0,0.0,0.0,0.0,0.0,0.0,0.0,0.0,0.0,0.0,1.3238,1.2629,1.2458,1.2328,1.2142,0.0,0.0,0.0,0.0,0.0,0.0,0.0,0.0,0.0,0.0,0.0,0.0,0.0,0.0,0.0,0.0,0.3127,0.0,0.0,0.0,0.0,0.0,0.0,0.0,0.0,0.3156,0.3229,0.3118,0.2929,0.2814,0.0,0.2438,0.2147,0.0,0.0,0.0,0.0,0.0,0.0,0.0,0.0,0.1981,0.226,0.2556,0.2713,0.2725,0.2773,0.277,0.271,0.2783,0.2957,0.3156,0.3453,0.3559,0.0,0.0,0.0,0.0,0.0,0.0,0.0,0.0,0.0,0.0,0.0,0.0,0.0,0.0,0.0,0.0,0.0,0.0,0.0,0.0,0.0,0.0,0.0,0.8609,0.0,0.0,0.0,0.0,0.0,0.0,0.0,0.0,0.0,1.0894,1.1619,1.2434,1.3206,1.4066,1.4854,1.548,0.0,0.0,0.0,0.0,0.0,0.0,0.0,1.4257,1.4257,1.4148,1.4164,1.4557,1.4911,1.5228,1.5577,0.0,0.0,1.4624,1.4343,1.4278,1.4221,1.4359,1.4557,1.4917,1.5328,1.5858,0.0,0.0,0.0,0.0,0.0,0.0,0.0,0.0,0.4007,0.3557,0.0,0.2588,0.0,0.0,0.0,0.0,0.0,0.1774,0.0,0.0,0.2445,0.2537,0.2607,0.2622,0.2594,0.2609,0.2604,0.2541,0.237,0.2013,0.0,0.0,0.0,0.0,0.0,0.0,0.2051,0.2412,0.2577,0.2757,0.2788,0.2816,0.2759,0.2697,0.2967,0.3086,0.3075,0.3187,0.3255,0.327,0.3404,0.0,0.0,0.0,0.0,0.0,0.0,0.0,0.0,0.0,0.0,0.0,0.0,0.0,0.0,0.0,0.0,0.0,0.0,0.0,0.0,0.9648,0.0,0.0,0.0,0.0,0.0,0.0,0.0,0.0,0.0,0.0,1.2208,1.2897,1.3655,1.4156,0.0,0.0,0.0,0.0,1.7258,1.7546,1.751,1.721,1.669,1.6016,1.5569,1.5553,0.0,0.0,1.6576,1.6812,1.6882,1.6898,1.7218,1.7226,1.6527,1.6202,1.6072,1.6259,1.6259,1.6381,1.6552,1.6694,1.6985,0.3696,0.0,0.0,0.0,0.0,0.4229,0.4334,0.4366,0.4042,0.3654,0.3262,0.2746,0.0,0.0,0.0,0.0,0.0,0.0,0.2185,0.2424,0.2582,0.269,0.2762,0.2758,0.2728,0.2719,0.2742,0.2691,0.2609,0.2379,0.2124,0.1813,0.0,0.0,0.0,0.0,0.2197,0.2477,0.268,0.2783,0.2876,0.2886,0.2818,0.276,0.2782,0.2809,0.2723,0.2691,0.2626,0.2524,0.2687,0.0,0.0,0.0,0.0,0.0,0.0,0.0,0.0,0.0,0.0,0.0,0.0,0.0,0.0,0.0,0.0,0.0,0.0,0.0,1.0528,1.061,1.0404,0.0,0.0,0.0,0.0,0.0,0.0,0.0,0.0,0.0,1.4659,1.4616,1.4746,0.0,0.0,1.6105,1.6582,1.7222,1.7721,1.7773,0.0,0.0,0.0,1.695,1.6787,1.7169,1.7689,1.82,1.8606,1.8615,1.8606,1.8712,1.8736,1.8695,1.8475,1.7729,1.7198,1.7206,1.7214,1.723,1.7295,1.7575,1.7884,0.3255,0.3632,0.3535,0.3478,0.3491,0.3658,0.3763,0.3801,0.361,0.3394,0.3176,0.2799,0.2529,0.2307,0.2147,0.0,0.0,0.0,0.2462,0.2639,0.2742,0.2825,0.2855,0.2872,0.2881,0.2881,0.2863,0.2873,0.278,0.2686,0.2503,0.2194,0.0,0.0,0.1953,0.2108,0.2286,0.2519,0.2736,0.2864,0.2898,0.2887,0.2819,0.2829,0.274,0.2675,0.2638,0.2522,0.2398,0.2301,0.2435,0.2519,0.0,0.0,0.0,0.0,0.0,0.0,0.0,0.0,0.0,0.0,0.0,0.6877,0.7,0.0,0.0,0.0,0.9548,1.044,1.1118,1.1246,0.0,0.0,0.0,0.0,0.0,0.0,0.0,1.3571,1.4454,1.5196,1.5745,1.5688,1.58,1.6258,1.6609,1.6966,1.7331,0.0,1.8218,1.833,1.8403,1.8387,1.82,1.7932,1.7908,1.8371,1.8858,1.9272,1.9557,1.9532,1.9508,1.9581,1.954,1.9467,1.9467,1.8923,1.8468,1.8395,1.8332,1.8403,1.8476,1.8663,1.8915,0.2978,0.296,0.2701,0.2649,0.2729,0.2773,0.2885,0.2936,0.2936,0.2938,0.2883,0.2768,0.2709,0.2612,0.2405,0.0,0.2502,0.2582,0.2682,0.2797,0.2883,0.2938,0.3011,0.3013,0.3013,0.301,0.3009,0.2946,0.2912,0.2813,0.2788,0.2694,0.2311,0.2189,0.2229,0.2275,0.2439,0.2615,0.2787,0.292,0.2878,0.2851,0.2789,0.2827,0.2744,0.2699,0.2694,0.2587,0.25,0.2436,0.2521,0.2555,0.248,0.0,0.0,0.0,0.0,0.0,0.0,0.0,0.0,0.0,0.0,0.0,0.0,0.0,0.0,0.0,1.0033,0.0,1.1279,1.1545,0.0,0.0,0.0,1.1074,1.1752,1.2627,1.3456,1.4113,0.0,0.0,1.5853,0.0,1.6771,1.712,1.7456,1.7794,1.8117,1.8423,1.8737,1.8849,1.9125,1.9231,1.9012,1.8899,1.8956,1.9272,1.9475,1.9646,1.98,1.9833,1.9833,1.9841,1.9833,1.9833,1.9833,1.9784,1.9776,1.9573,1.9516,1.9549,1.9646,1.9703,1.9768,0.1941,0.1931,0.1897,0.2319,0.302,0.3039,0.3089,0.3123,0.3123,0.3123,0.3116,0.2996,0.2881,0.2727,0.264,0.2637,0.2744,0.2765,0.277,0.2887,0.2954,0.2988,0.2996,0.3067,0.3065,0.2995,0.2972,0.2946,0.2915,0.2879,0.2841,0.2791,0.2607,0.2544,0.2516,0.2534,0.2622,0.2739,0.2873,0.2885,0.2905,0.2898,0.2829,0.283,0.2785,0.2751,0.2685,0.2677,0.2622,0.256,0.2531,0.2445,0.2263,0.2159,0.0,0.0,0.0,0.0,0.0,0.0,0.0,0.0,0.0,0.6737,0.7056,0.0,0.8041,0.0,0.9316,1.0098,1.0469,1.0767,0.0,0.0,1.1447,1.1901,1.2804,1.3876,1.474,1.5173,1.5794,1.6341,1.675,1.7043,1.7333,1.7569,1.7799,1.8015,1.8106,1.8331,1.8483,1.8572,1.906,1.9434,1.9423,1.9715,1.9938,2.0052,2.0093,2.0141,2.0182,2.019,2.019,2.019,2.0198,2.0198,2.0182,2.019,2.0174,2.0117,1.9914,1.9735,1.9784,1.9906,2.0063,0.1627,0.1628,0.1627,0.1961,0.2509,0.2464,0.2474,0.2485,0.2485,0.2492,0.2549,0.2436,0.2321,0.2255,0.2219,0.2212,0.2225,0.2458,0.2612,0.2641,0.2908,0.3067,0.3069,0.3084,0.307,0.3074,0.3057,0.3025,0.2936,0.2966,0.2905,0.2887,0.2855,0.2804,0.2782,0.2728,0.2755,0.2822,0.2927,0.292,0.2935,0.2923,0.2894,0.2849,0.2806,0.2762,0.2676,0.2701,0.2665,0.2604,0.253,0.2406,0.2258,0.2044,0.1871,0.0,0.0,0.0,0.0,0.0,0.0,0.0,0.0,0.0,0.0,0.0,0.6962,0.7229,0.7885,0.8427,0.8866,0.9275,0.9786,1.059,1.125,1.2106,1.3212,1.4434,1.5264,1.5551,1.6116,1.6529,1.6707,1.6971,1.7113,1.7298,1.7506,1.7755,1.8041,1.8247,1.841,1.841,1.9012,1.9597,1.9806,2.0111,2.0268,2.0268,2.0268,2.0268,2.0268,2.0268,2.0268,2.0268,2.0268,2.0268,2.0268,2.0268,2.0268,2.0244,2.0166,2.0044,2.0028,2.0101,2.0174,0.1497,0.1497,0.1497,0.1497,0.1495,0.142,0.1461,0.1613,0.1614,0.1672,0.1734,0.1617,0.1595,0.1568,0.1549,0.1533,0.1568,0.205,0.2292,0.2344,0.2835,0.3133,0.3088,0.3092,0.3114,0.3107,0.3097,0.3065,0.3014,0.301,0.301,0.3013,0.3014,0.3016,0.3014,0.2866,0.2836,0.293,0.2939,0.3013,0.3013,0.2938,0.2906,0.2919,0.2811,0.2747,0.2684,0.2682,0.2654,0.2598,0.2544,0.2451,0.2313,0.2143,0.1969,0.0,0.1951,0.0,0.0,0.0,0.0,0.0,0.0,0.0,0.0,0.5315,0.5554,0.594,0.625,0.6622,0.7033,0.7483,0.8238,0.9466,1.056,1.168,1.2929,1.4267,1.5114,1.5246,1.5622,1.5885,1.5962,1.6297,1.6515,1.6705,1.6963,1.7269,1.7821,1.8063,1.8144,1.8233,1.8819,1.9276,1.9798,2.0007,2.0007,2.0059,2.0007,2.0111,2.0164,2.0164,2.0216,2.0268,2.0268,2.0268,2.0268,2.0268,2.0268,2.032,2.0304,2.0296,2.0296,2.0328,2.0353,0.0327,0.0327,0.0327,0.0327,0.0326,0.0325,0.0806,0.1697,0.1697,0.1691,0.1735,0.168,0.1662,0.1582,0.1593,0.1567,0.1599,0.2035,0.2257,0.2323,0.2867,0.313,0.3107,0.3131,0.3123,0.3086,0.3039,0.301,0.2998,0.2973,0.2973,0.2998,0.2998,0.301,0.3079,0.0,0.0,0.0,0.298,0.2998,0.2996,0.2968,0.2973,0.2919,0.2791,0.0,0.2624,0.2619,0.2602,0.261,0.2534,0.0,0.0,0.0,0.0,0.0,0.0,0.0,0.0,0.0,0.0,0.0,0.2866,0.3456,0.4531,0.4817,0.5048,0.527,0.5448,0.5656,0.5892,0.6135,0.6757,0.7915,0.8988,1.0085,1.1254,1.2487,1.3288,1.3316,1.3554,1.3962,1.4537,1.5155,1.5763,1.6346,1.6869,1.718,1.7383,1.7346,1.7304,1.7304,1.7842,1.8334,1.885,1.8955,1.9059,1.8903,1.8903,1.9164,1.959,1.9702,1.9858,2.0224,2.0268,2.0328,2.0328,2.0268,2.0344,2.0276,2.0328,2.0268,2.0328,2.0442,2.0547,0.0,0.0,0.0,0.0,0.0,0.0,0.0327,0.0864,0.0868,0.0865,0.0858,0.0854,0.084,0.0818,0.0799,0.0832,0.0816,0.1311,0.154,0.1562,0.2114,0.2341,0.2374,0.2658,0.275,0.2699,0.2951,0.3059,0.3029,0.3061,0.3029,0.3074,0.3089,0.3104,0.3165,0.3074,0.3037,0.3053,0.307,0.3029,0.3028,0.2999,0.2956,0.2896,0.0,0.0,0.0,0.0,0.0,0.0,0.0,0.0,0.0,0.0,0.0,0.2193,0.2183,0.2219,0.226,0.2345,0.2441,0.2656,0.2748,0.304,0.3677,0.3785,0.391,0.4039,0.4145,0.4234,0.4348,0.4516,0.5046,0.6159,0.7234,0.8317,0.9418,1.0646,1.1394,1.1413,1.1588,1.2039,1.299,1.3952,1.4951,1.5873,1.6703,1.7195,1.7182,1.7073,1.709,1.7346,1.7601,1.7968,1.8484,1.8581,1.8589,1.8581,1.8581,1.885,1.9381,1.9563,1.982,2.0309,2.0523,2.058,2.0588,2.058,2.0588,2.058,2.058,2.058,2.058,2.0596,2.0596,0.0,0.0,0.0,0.0,0.0,0.0,0.0,0.0,0.0,0.0,0.0,0.0,0.0,0.0,0.0,0.0,0.0,0.0514,0.0796,0.0811,0.1314,0.1587,0.1617,0.2212,0.2459,0.2353,0.287,0.3125,0.3125,0.3114,0.3136,0.3092,0.3174,0.3189,0.3185,0.3133,0.3091,0.311,0.3108,0.3108,0.3107,0.3031,0.2988,0.2887,0.2894,0.2866,0.2714,0.2728,0.2672,0.2625,0.2645,0.268,0.2637,0.2653,0.2566,0.2495,0.2453,0.251,0.2586,0.2626,0.2724,0.2838,0.2969,0.3006,0.2959,0.2931,0.2971,0.3026,0.3085,0.3133,0.3115,0.3236,0.3694,0.4667,0.5624,0.6627,0.7615,0.8712,0.937,0.9442,0.9499,1.0069,1.1223,1.2433,1.3728,1.502,1.6122,1.7076,1.7135,1.7066,1.7136,1.7503,1.7549,1.7811,1.817,1.8275,1.8327,1.8222,1.8275,1.8544,1.9038,1.9362,1.9674,2.0104,2.0468,2.0556,2.0687,2.0671,2.0749,2.0856,2.0901,2.0901,2.0893,2.0767,2.071,0.0,0.0,0.0,0.0,0.0,0.0,0.0,0.0,0.0,0.0,0.0,0.0,0.0,0.0,0.0,0.0,0.0,0.0516,0.0749,0.0,0.1314,0.1537,0.1617,0.2212,0.2476,0.2446,0.2907,0.3178,0.3164,0.3116,0.3108,0.3095,0.3174,0.319,0.3186,0.3153,0.3122,0.3092,0.3091,0.3091,0.3091,0.311,0.3076,0.2992,0.2916,0.2842,0.2818,0.2751,0.2691,0.2683,0.2687,0.2696,0.2757,0.2754,0.2746,0.2735,0.2757,0.2795,0.2849,0.2913,0.2991,0.3036,0.3109,0.315,0.3088,0.3101,0.3086,0.3073,0.3178,0.3224,0.3255,0.3292,0.3524,0.4146,0.4769,0.5392,0.5969,0.6692,0.7147,0.7147,0.7249,0.7737,0.8932,1.0234,1.1664,1.33,1.5094,1.6391,1.7023,1.7073,1.7044,1.7083,1.7136,1.7136,1.7328,1.7248,1.7321,1.7241,1.7314,1.7591,1.8116,1.8352,1.8659,1.9122,1.944,1.9639,2.0076,2.0106,2.0406,2.0789,2.095,2.0942,2.095,2.0962,2.1043,0.0,0.0,0.0,0.0,0.0,0.0,-0.0169,-0.0508,-0.0844,-0.0615,0.0,0.0,0.0,0.0,0.0,0.0,0.0,0.0193,0.0338,0.0394,0.0602,0.0714,0.0776,0.1368,0.1579,0.1558,0.2113,0.2355,0.2342,0.2322,0.2318,0.2378,0.263,0.2932,0.3232,0.319,0.316,0.3145,0.3099,0.3121,0.3121,0.3107,0.3085,0.3007,0.2965,0.2917,0.2857,0.2841,0.2827,0.2812,0.2826,0.2797,0.2855,0.2886,0.2904,0.2905,0.2934,0.2969,0.3011,0.3055,0.3062,0.3133,0.3164,0.3224,0.3201,0.321,0.3224,0.3239,0.328,0.331,0.3324,0.3352,0.3475,0.3687,0.3949,0.4212,0.4424,0.4701,0.4924,0.4928,0.4941,0.5396,0.6625,0.7839,0.9476,1.1563,1.4074,1.611,1.7036,1.7162,1.7188,1.7121,1.7161,1.7216,1.7216,1.7216,1.7222,1.7222,1.7216,1.7429,1.7968,1.8195,1.8496,1.9063,1.929,1.9612,2.0109,2.0272,2.0543,2.0978,2.114,2.1195,2.1157,2.1213,2.1262,0.0,0.0,0.0,0.0,0.0,0.0,-0.0395,-0.1186,-0.1927,-0.181,-0.1236,-0.0948,-0.0767,-0.0589,-0.0474,0.0,-0.0204,-0.005,0.0,0.0,0.0,0.0,0.0,0.0643,0.0857,0.0897,0.1421,0.1676,0.1614,0.1609,0.1712,0.1918,0.2313,0.2764,0.3275,0.3224,0.3195,0.3185,0.316,0.3121,0.3121,0.3121,0.3062,0.304,0.299,0.3016,0.2971,0.2961,0.2946,0.2973,0.2945,0.2957,0.2913,0.3007,0.304,0.3048,0.3118,0.3147,0.3135,0.3116,0.3152,0.3197,0.3264,0.3291,0.3335,0.3355,0.3352,0.3339,0.3348,0.3366,0.3377,0.3403,0.3422,0.3422,0.3429,0.3486,0.3431,0.3433,0.3433,0.3433,0.3431,0.3875,0.4872,0.5966,0.7746,1.0549,1.3282,1.5391,1.629,1.6718,1.6852,1.6982,1.7157,1.7345,1.7419,1.7405,1.7405,1.7419,1.7405,1.7553,1.7958,1.8178,1.8385,1.8773,1.9013,1.9313,1.9893,2.0058,2.0317,2.085,2.1069,2.1195,2.1352,2.136,2.1376,0.0,0.0,0.0,0.0,0.0,0.0,-0.0803,-0.1947,-0.2959,-0.4082,-0.481,-0.3766,-0.2995,-0.2398,-0.1875,-0.1323,-0.0786,-0.0259,0.0,0.0,0.0,0.0,0.0,0.0592,0.086,0.0958,0.1374,0.1579,0.1576,0.1563,0.1816,0.2332,0.2467,0.2713,0.3221,0.3193,0.3164,0.3189,0.3153,0.3134,0.3134,0.3134,0.3084,0.3082,0.308,0.308,0.3064,0.3096,0.308,0.3077,0.3076,0.308,0.3082,0.3111,0.3093,0.3167,0.3174,0.32,0.3253,0.3288,0.3303,0.3315,0.336,0.3392,0.3404,0.3452,0.3449,0.3389,0.3367,0.3384,0.3405,0.3435,0.3507,0.3508,0.3474,0.3494,0.349,0.3494,0.3494,0.3494,0.3487,0.3724,0.4399,0.5124,0.6858,0.9905,1.165,1.3162,1.4151,1.4931,1.557,1.6009,1.6749,1.7338,1.7392,1.7372,1.746,1.7446,1.7433,1.7507,1.7663,1.7677,1.7759,1.8135,1.8095,1.8412,1.8805,1.8916,1.9357,2.045,2.078,2.0835,2.1219,2.1384,2.1384,-0.2242,-0.2242,-0.2242,-0.2242,-0.2242,-0.2242,-0.2989,-0.419,-0.5294,-0.6464,-0.759,-0.7701,-0.6529,-0.4267,-0.3303,-0.2355,-0.1421,-0.0436,0.0,0.0,0.0,0.0,0.0,0.0219,0.0382,0.0379,0.059,0.0,0.0693,0.0,0.0941,0.1463,0.1503,0.1754,0.2269,0.2261,0.2253,0.2246,0.2237,0.2385,0.2733,0.2979,0.3093,0.3093,0.3093,0.3093,0.3093,0.313,0.3125,0.3125,0.3125,0.3125,0.3125,0.312,0.315,0.3215,0.3247,0.3277,0.33,0.3314,0.3329,0.3347,0.3386,0.3419,0.3438,0.3478,0.3484,0.3456,0.3446,0.3453,0.3464,0.3476,0.3484,0.3486,0.3495,0.3504,0.3504,0.3504,0.3504,0.3504,0.3504,0.3562,0.396,0.4692,0.6147,0.8283,0.9642,1.0813,1.1841,1.2896,1.3912,1.4766,1.5839,1.6917,1.7506,1.7677,1.7677,1.7684,1.7684,1.7684,1.7684,1.7717,1.7779,1.7772,1.7819,1.8081,1.864,1.8757,1.9088,2.0018,2.0835,2.1164,2.1384,2.1384,2.1384,-0.4798,-0.4798,-0.4798,-0.4798,-0.4796,-0.4785,-0.5472,-0.6671,-0.7744,-0.89,-1.014,-1.124,-1.0077,-0.7331,-0.5429,-0.3921,-0.2747,-0.1515,-0.0898,-0.0729,-0.0561,0.0,-0.0222,0.0,0.0,0.0,0.0,0.0,0.0,0.0,0.0263,0.0735,0.0782,0.109,0.1556,0.1608,0.1608,0.1607,0.1608,0.1867,0.2429,0.2781,0.2992,0.3142,0.3142,0.3142,0.3142,0.3142,0.3142,0.3142,0.3142,0.3142,0.3144,0.3182,0.3258,0.3272,0.3325,0.3358,0.3358,0.3366,0.338,0.3403,0.3431,0.3457,0.348,0.3509,0.3525,0.3525,0.3527,0.3521,0.3504,0.3509,0.3513,0.3514,0.352,0.3527,0.3528,0.3527,0.3528,0.3527,0.3532,0.3527,0.3695,0.4432,0.556,0.6618,0.7643,0.855,0.9554,1.0694,1.1881,1.3022,1.4415,1.6016,1.7473,1.7895,1.7915,1.7915,1.7895,1.7888,1.7915,1.7915,1.7915,1.7874,1.7908,1.797,1.8253,1.8474,1.875,1.9743,2.045,2.089,2.0725,2.0945,2.111,-0.7334,-0.7331,-0.7331,-0.7329,-0.7329,-0.7215,-0.7888,-0.9046,-1.0094,-1.1216,-1.24,-1.3476,-1.3374,-1.175,-0.8507,-0.6386,-0.5213,-0.3982,-0.3141,-0.2579,-0.1963,-0.1396,-0.0832,0.0,0.0,0.0,0.0,0.0,0.0,0.0,0.0263,0.0788,0.0731,0.104,0.1456,0.1457,0.1558,0.1457,0.1456,0.1817,0.2336,0.2487,0.274,0.3155,0.331,0.3253,0.3256,0.3311,0.331,0.3311,0.3309,0.3258,0.3311,0.3313,0.3326,0.3359,0.3468,0.3502,0.3503,0.3468,0.3487,0.3495,0.3512,0.3481,0.3532,0.3559,0.3576,0.3583,0.3581,0.3564,0.3524,0.3534,0.3486,0.3489,0.3568,0.358,0.3583,0.3576,0.3584,0.3581,0.3577,0.3576,0.3637,0.4147,0.4705,0.5375,0.6053,0.6612,0.7275,0.8396,0.9508,1.0786,1.2399,1.447,1.7141,1.7749,1.7805,1.7915,1.7915,1.7915,1.7915,1.7915,1.7915,1.7915,1.7915,1.7915,1.7915,1.8088,1.8364,1.8971,1.9577,1.9908,2.012,2.034,2.056,-0.9931,-0.9931,-0.9931,-0.9931,-0.9927,-0.9898,-1.0354,-1.1158,-1.1785,-1.2498,-1.3325,-1.4015,-1.3875,-1.2985,-1.136,-0.9516,-0.7669,-0.6437,-0.5377,-0.4427,-0.3417,-0.2406,-0.1451,0.0,0.0,0.0,0.0,0.0,0.0,0.0,0.0106,0.0265,0.0319,0.0426,0.0532,0.0585,0.0585,0.0,0.0582,0.0897,0.1424,0.1478,0.1905,0.2818,0.3142,0.3321,0.3321,0.3339,0.335,0.3351,0.3369,0.337,0.3352,0.335,0.3363,0.3395,0.3489,0.3511,0.3515,0.3486,0.3504,0.3505,0.3528,0.3492,0.3494,0.3572,0.3589,0.3594,0.361,0.3604,0.3594,0.358,0.3573,0.3574,0.3583,0.3589,0.3589,0.3589,0.3589,0.3589,0.3589,0.3589,0.3646,0.3814,0.3982,0.4206,0.443,0.471,0.4991,0.5941,0.7225,0.8451,1.0293,1.2576,1.513,1.6699,1.7424,1.7756,1.7915,1.7915,1.7915,1.7915,1.7915,1.7915,1.7915,1.7915,1.7915,1.8143,1.8309,1.853,1.9136,1.9302,1.9625,1.9845,2.023,-1.2456,-1.2515,-1.2483,-1.2492,-1.2506,-1.2389,-1.267,-1.3082,-1.323,-1.3592,-1.3953,-1.4183,-1.4042,-1.3652,-1.3263,-1.2307,-1.0627,-0.9062,-0.7558,-0.6218,-0.4815,-0.3417,-0.2072,-0.0669,0.0,0.0,0.0,0.0,0.0,0.0,0.0,0.0,0.0,0.0,0.0,0.0,0.0,0.0,0.0,0.032,0.0799,0.0906,0.1445,0.2474,0.2918,0.3159,0.338,0.34,0.341,0.3467,0.343,0.3431,0.3467,0.3411,0.3419,0.3441,0.3469,0.3486,0.349,0.3523,0.3546,0.3547,0.3572,0.3532,0.3533,0.3607,0.3618,0.3625,0.3636,0.3594,0.3644,0.3622,0.3604,0.3603,0.3596,0.3589,0.3589,0.3589,0.3589,0.3589,0.3589,0.3589,0.3589,0.3589,0.3646,0.3589,0.3589,0.3589,0.3758,0.443,0.5439,0.6556,0.851,1.0571,1.2743,1.4414,1.6588,1.7307,1.7811,1.7867,1.7915,1.7915,1.7915,1.7915,1.7915,1.7915,1.8033,1.8253,1.8364,1.8474,1.853,1.8688,1.9074,1.946,1.968,-1.492,-1.4788,-1.4907,-1.4707,-1.4655,-1.4485,-1.4651,-1.4663,-1.4516,-1.4373,-1.4306,-1.4268,-1.4042,-1.4042,-1.3708,-1.3875,-1.3147,-1.1193,-0.9575,-0.8011,-0.6216,-0.4425,-0.2635,0.0,0.0,0.0,0.0,0.0,0.0,0.0,0.0,0.0,0.0,0.0,0.0,0.0,0.0,0.0,0.0,0.0,0.08,0.0801,0.1342,0.2324,0.2484,0.2817,0.3388,0.3443,0.3494,0.3497,0.3501,0.3502,0.3495,0.3493,0.3498,0.3498,0.3524,0.3485,0.349,0.3592,0.3621,0.3625,0.3656,0.3666,0.3663,0.3669,0.3671,0.3671,0.3677,0.3681,0.3677,0.3658,0.3637,0.3574,0.3607,0.3589,0.3589,0.3589,0.3589,0.3589,0.3589,0.3589,0.3589,0.3589,0.3589,0.3589,0.3589,0.3589,0.3646,0.4152,0.471,0.5495,0.6889,0.8734,1.046,1.2242,1.4747,1.6809,1.7418,1.7756,1.786,1.7915,1.7915,1.7915,1.7915,1.7915,1.7915,1.8088,1.8088,1.8136,1.8136,1.8191,1.8467,1.8798,1.8916,-1.5037,-1.4973,-1.4999,-1.4999,-1.4968,-1.4956,-1.495,-1.495,-1.4727,-1.4392,-1.3958,-1.3344,-1.2818,-1.2367,-1.2033,-1.181,-1.1755,-1.0974,-1.036,-0.9463,-0.7555,-0.5377,-0.3249,-0.106,0.0,0.0,0.0,0.0,0.0,0.0,0.0,0.0,0.0,0.0,0.0,0.0,0.0,0.0,0.0,0.0,0.0271,0.0,0.0654,0.1318,0.143,0.1877,0.2891,0.332,0.3477,0.3532,0.3551,0.3554,0.3534,0.3513,0.3504,0.3506,0.3529,0.3489,0.3497,0.3544,0.358,0.3641,0.3664,0.3679,0.3681,0.3682,0.3684,0.3685,0.3699,0.3712,0.3709,0.3704,0.3679,0.3583,0.3609,0.3594,0.3595,0.3592,0.3589,0.3589,0.3589,0.3589,0.3591,0.3592,0.3595,0.3595,0.3594,0.3594,0.3648,0.3765,0.387,0.4262,0.5605,0.6844,0.8412,1.0304,1.2631,1.508,1.6366,1.7535,1.7805,1.7915,1.7915,1.7915,1.7915,1.7915,1.7915,1.7915,1.7915,1.7915,1.797,1.8026,1.7977,1.8143,1.8419,-1.4994,-1.4968,-1.4939,-1.4961,-1.4968,-1.4994,-1.4999,-1.4994,-1.4776,-1.4217,-1.3369,-1.2284,-1.1356,-1.0575,-0.9795,-0.9404,-0.9404,-0.9404,-0.9181,-0.8622,-0.7387,-0.5321,-0.3195,-0.1061,0.0,0.0,0.0,0.0,0.0,0.0,0.0,0.0,0.0,0.0,0.0,0.0,0.0,0.0,0.0,0.0,0.0,0.0,0.0275,0.0775,0.0887,0.1502,0.2632,0.3013,0.3338,0.3511,0.3591,0.3596,0.3523,0.3573,0.3569,0.3572,0.3584,0.3596,0.36,0.3644,0.3611,0.3617,0.3697,0.3715,0.3715,0.3714,0.3714,0.3718,0.3731,0.3744,0.3742,0.3731,0.3708,0.3618,0.3644,0.3625,0.3624,0.3624,0.3625,0.3626,0.3626,0.3624,0.3624,0.3624,0.3624,0.3624,0.3624,0.3624,0.3624,0.3625,0.3622,0.3788,0.4632,0.5702,0.6533,0.8365,1.0464,1.2854,1.503,1.6588,1.7639,1.786,1.7915,1.7915,1.7915,1.7915,1.7915,1.7915,1.7915,1.7915,1.7942,1.7922,1.7977,1.8088,1.8309,-1.4928,-1.4941,-1.4787,-1.4836,-1.4952,-1.4928,-1.495,-1.4988,-1.4793,-1.401,-1.2758,-1.1303,-0.9929,-0.8803,-0.7586,-0.6969,-0.7007,-0.702,-0.6464,-0.5676,-0.5052,-0.4041,-0.2243,-0.0729,0.0,0.0,0.0,0.0,0.0,0.0,0.0,0.0,0.0,0.0,0.0,0.0,0.0,0.0,0.0,0.0,0.0,0.0,0.0221,0.0779,0.078,0.1285,0.2249,0.2644,0.3033,0.3481,0.3614,0.3629,0.3637,0.3663,0.3667,0.3664,0.3677,0.3673,0.3682,0.3697,0.3716,0.3661,0.3744,0.3831,0.3821,0.3823,0.3823,0.3821,0.3828,0.3772,0.3765,0.3748,0.3731,0.3724,0.3692,0.3674,0.3678,0.3675,0.367,0.3673,0.3679,0.3678,0.3671,0.3671,0.3673,0.3673,0.3671,0.3669,0.3669,0.3664,0.3675,0.3952,0.4216,0.4541,0.5434,0.6545,0.8599,1.0241,1.26,1.4586,1.6638,1.7193,1.7659,1.7708,1.7949,1.7942,1.7963,1.7997,1.8017,1.7996,1.8031,1.7956,1.8025,1.8128,1.8163,-1.4928,-1.4957,-1.4869,-1.4896,-1.4968,-1.4941,-1.5005,-1.4957,-1.4874,-1.3873,-1.2178,-1.036,-0.8599,-0.7015,-0.5302,-0.4565,-0.456,-0.456,-0.4166,-0.3423,-0.2949,-0.203,-0.0899,0.0,0.0,0.0,0.0,0.0,0.0,0.0,0.0,0.0,0.0,0.0,0.0,0.0,0.0,0.0,0.0,0.0,0.0,0.0,0.0,0.0171,0.0,0.0,0.1428,0.2227,0.2952,0.3539,0.3619,0.3579,0.3584,0.3667,0.3686,0.3686,0.3685,0.3684,0.3689,0.3714,0.3727,0.3729,0.3761,0.3831,0.3831,0.3793,0.3791,0.3842,0.379,0.3795,0.3776,0.3764,0.3759,0.3753,0.3716,0.3686,0.3685,0.3681,0.3681,0.3681,0.3684,0.3686,0.3686,0.3686,0.3686,0.3686,0.3688,0.3688,0.3693,0.3692,0.3696,0.3685,0.3898,0.3939,0.438,0.5331,0.655,0.7861,0.9779,1.181,1.4108,1.5907,1.6571,1.7076,1.7808,1.7989,1.8063,1.8124,1.8138,1.8131,1.8145,1.8124,1.8172,1.8269,1.8187,-1.488,-1.4963,-1.4852,-1.488,-1.5026,-1.5037,-1.5037,-1.5015,-1.4912,-1.3699,-1.1588,-0.9321,-0.7172,-0.5169,-0.3045,-0.2127,-0.2069,-0.2069,-0.1897,-0.1608,-0.1254,-0.0679,0.0,0.0,0.0,0.0,0.0,0.0,0.0,0.0,0.0,0.0,0.0,0.0,0.0,0.0,0.0,0.0,0.0,0.0,0.0,0.0,0.0,0.0,0.0,0.0288,0.0977,0.207,0.2861,0.3186,0.3428,0.3615,0.3675,0.3703,0.3718,0.3719,0.373,0.3738,0.3744,0.3765,0.378,0.3784,0.3801,0.3866,0.3871,0.3825,0.3824,0.3875,0.3817,0.3808,0.3794,0.3838,0.3831,0.3767,0.3739,0.3719,0.3719,0.3722,0.3719,0.3719,0.3719,0.3719,0.3718,0.3718,0.3718,0.3778,0.3724,0.3724,0.3723,0.3718,0.3715,0.3711,0.3701,0.3804,0.3964,0.4752,0.5367,0.6469,0.7497,0.9412,1.1847,1.4271,1.5573,1.6429,1.7406,1.8124,1.815,1.8204,1.8247,1.826,1.8314,1.8328,1.8342,1.8382,1.8308,-1.4831,-1.4957,-1.4787,-1.4825,-1.4963,-1.5037,-1.492,-1.4899,-1.4644,-1.3261,-1.0804,-0.8248,-0.5882,-0.3456,0.0,0.0,0.0,0.0,0.0,0.0,0.0,0.0,0.0,0.0,0.0,0.0,0.0,0.0,0.0,0.0,0.0,0.0,0.0,0.0,0.0,0.0,0.0,0.0,0.0,0.0,0.0,0.0,0.0,0.0,0.0,0.0,0.0867,0.1849,0.26,0.2598,0.331,0.3661,0.3668,0.3753,0.3767,0.3771,0.3786,0.3805,0.3816,0.3829,0.3913,0.3909,0.391,0.392,0.3914,0.3918,0.392,0.3909,0.3835,0.382,0.3802,0.3844,0.3832,0.383,0.3768,0.383,0.3831,0.3831,0.3831,0.3831,0.3769,0.383,0.3831,0.3831,0.3828,0.3806,0.3809,0.3809,0.3809,0.3806,0.3809,0.3813,0.3742,0.3729,0.3889,0.4162,0.4614,0.5288,0.5935,0.7505,0.9898,1.2225,1.417,1.5508,1.6545,1.7482,1.8051,1.8135,1.8325,1.8416,1.8484,1.8443,1.8396,1.847,1.8457,-1.4901,-1.4963,-1.488,-1.4901,-1.5021,-1.4979,-1.4745,-1.4273,-1.3781,-1.212,-0.9606,-0.7076,-0.4854,-0.2869,0.0,0.0,0.0,0.0,0.0,0.0,0.0,0.0,0.0,0.0,0.0,0.0,0.0,0.0,0.0,0.0,0.0,0.0,0.0,0.0,0.0,0.0,0.0,0.0,0.0,0.0,0.0,0.0,0.0,0.0,0.0,0.0,0.0,0.1415,0.2011,0.2361,0.3048,0.3737,0.3742,0.3761,0.3835,0.3844,0.3803,0.382,0.3823,0.3847,0.3921,0.3925,0.3928,0.392,0.3921,0.3883,0.3881,0.3927,0.3913,0.3829,0.3849,0.3835,0.3831,0.3831,0.3831,0.3831,0.3831,0.3831,0.3831,0.3831,0.3831,0.3831,0.3831,0.3831,0.3831,0.3831,0.3831,0.3831,0.3831,0.3831,0.3831,0.3831,0.3824,0.3748,0.3795,0.3959,0.4187,0.4471,0.4948,0.5541,0.7961,0.9971,1.1829,1.3822,1.5773,1.6666,1.7498,1.84,1.8606,1.8633,1.864,1.8606,1.8586,1.862,1.8599,-1.4928,-1.4963,-1.4907,-1.4923,-1.4968,-1.4979,-1.4512,-1.3572,-1.2686,-1.0868,-0.8345,-0.5879,-0.3883,-0.2298,0.0,0.0,0.0,0.0,0.0,0.0,0.0,0.0,0.0,0.0,0.0,0.0,0.0,0.0,0.0,0.0,0.0,0.0,0.0,0.0,0.0,0.0,0.0,0.0,0.0,0.0,0.0,0.0,0.0,0.0,0.0,0.0,0.0,0.1246,0.1786,0.2203,0.3086,0.3788,0.3788,0.3802,0.387,0.3877,0.384,0.3857,0.3865,0.3884,0.3903,0.39,0.3902,0.3902,0.3903,0.3918,0.3918,0.3899,0.3873,0.3895,0.3839,0.3831,0.3831,0.3831,0.3831,0.3831,0.3831,0.3831,0.3831,0.3831,0.3831,0.3831,0.3831,0.3831,0.3831,0.3831,0.3831,0.3831,0.3831,0.3831,0.3831,0.3831,0.3831,0.3823,0.3754,0.3808,0.3809,0.3982,0.416,0.4692,0.5919,0.7716,0.9328,1.1689,1.4155,1.6028,1.6993,1.7904,1.8646,1.8728,1.8715,1.8807,1.8807,1.8701,1.8681,-1.4359,-1.4443,-1.4344,-1.4365,-1.4443,-1.4337,-1.3572,-1.2456,-1.1274,-0.9221,-0.6936,-0.453,-0.2825,-0.1649,-0.053,0.0,0.0,0.0,0.0,0.0,0.0,0.0,0.0,0.0,0.0,0.0,0.0,0.0,0.0,0.0,0.0,0.0,0.0,0.0,0.0,0.0,0.0,0.0,0.0,0.0,0.0,0.0,0.0,0.0,0.0,0.0,0.0,0.1134,0.1917,0.2035,0.3194,0.3749,0.3931,0.3921,0.392,0.3918,0.388,0.3892,0.3898,0.3923,0.3882,0.3888,0.3886,0.3885,0.3885,0.3881,0.3881,0.3929,0.3899,0.3846,0.3848,0.385,0.3846,0.3841,0.3839,0.3835,0.3831,0.3831,0.3831,0.3831,0.3831,0.3831,0.3831,0.3831,0.3831,0.3831,0.3831,0.3831,0.3831,0.3831,0.3831,0.3831,0.3831,0.3831,0.3763,0.376,0.3821,0.3764,0.3767,0.4062,0.4535,0.5523,0.744,1.0128,1.2451,1.4264,1.6017,1.7162,1.7884,1.8414,1.8762,1.882,1.882,1.882,1.8807,-1.1917,-1.193,-1.1917,-1.1917,-1.193,-1.193,-1.1223,-0.9931,-0.8696,-0.6995,-0.5062,-0.3121,-0.1767,-0.1001,-0.0353,0.0,0.0,0.0,0.0,0.0,0.0,0.0,0.0,0.0,0.0,0.0,0.0,0.0,0.0,0.0,0.0,0.0,0.0,0.0,0.0,0.0,0.0,0.0,0.0,0.0,0.0,0.0,0.0,0.0,0.0,0.0,0.0,0.121,0.1946,0.213,0.3246,0.3808,0.3921,0.3887,0.3928,0.3934,0.3893,0.391,0.3913,0.3933,0.3885,0.3888,0.3888,0.3888,0.3888,0.3886,0.3884,0.3934,0.3913,0.3872,0.3817,0.3823,0.3827,0.3817,0.3805,0.3795,0.3837,0.3831,0.3831,0.3831,0.3831,0.3831,0.3831,0.3831,0.3831,0.3831,0.3831,0.3831,0.3831,0.3831,0.3831,0.3831,0.3831,0.3831,0.3828,0.3827,0.3828,0.3827,0.3828,0.3828,0.4065,0.4006,0.559,0.8163,1.0443,1.2254,1.4014,1.5901,1.7129,1.7768,1.8233,1.8762,1.882,1.882,1.882,-0.9342,-0.9342,-0.9342,-0.9363,-0.9339,-0.9342,-0.8607,-0.7347,-0.6114,-0.4706,-0.3179,-0.1649,-0.0766,-0.0412,-0.0177,0.0,0.0,0.0,0.0,0.0,0.0,0.0,0.0,0.0,0.0,0.0,0.0,0.0,0.0,0.0,0.0,0.0,0.0,0.0,0.0,0.0,0.0,0.0,0.0,0.0,0.0,0.0,0.0,0.0,0.0,0.0,0.0,0.1276,0.1952,0.2261,0.3196,0.3762,0.3878,0.3926,0.3904,0.3906,0.3918,0.3928,0.3928,0.3881,0.3888,0.3888,0.3888,0.3888,0.3888,0.3886,0.3876,0.3913,0.3913,0.3881,0.3824,0.3847,0.3843,0.3824,0.3817,0.3805,0.3841,0.3834,0.3835,0.3837,0.3835,0.3835,0.3831,0.3831,0.3831,0.3831,0.3831,0.3831,0.3831,0.3831,0.3831,0.3831,0.3831,0.3831,0.3831,0.3831,0.3831,0.3831,0.3831,0.3831,0.3831,0.3831,0.4419,0.6001,0.8113,0.9986,1.2326,1.4258,1.5662,1.7129,1.7943,1.853,1.8704,1.882,1.882,-0.6766,-0.6766,-0.6766,-0.6741,-0.6728,-0.6793,-0.6126,-0.4995,-0.3942,-0.2884,-0.1649,0.0,0.0,0.0,0.0,0.0,0.0,0.0,0.0,0.0,0.0,0.0,0.0,0.0,0.0,0.0,0.0,0.0,0.0,0.0,0.0,0.0,0.0,0.0,0.0,0.0,0.0,0.0,0.0,0.0,0.0,0.0,0.0,0.0,0.0,0.0,0.0,0.1282,0.1897,0.233,0.3075,0.3888,0.3888,0.3888,0.3888,0.3888,0.3888,0.3888,0.3888,0.3886,0.3888,0.3888,0.3888,0.3888,0.3888,0.3884,0.3929,0.3887,0.3895,0.3898,0.3858,0.3863,0.3863,0.3847,0.3838,0.3825,0.3806,0.3857,0.3862,0.3857,0.3848,0.3841,0.3839,0.3831,0.3831,0.3831,0.3831,0.3831,0.3831,0.3831,0.3831,0.3831,0.3831,0.3831,0.3831,0.3831,0.3831,0.3831,0.3831,0.3831,0.3831,0.3831,0.4477,0.4947,0.5533,0.7526,1.0103,1.256,1.4024,1.5604,1.7297,1.8233,1.8291,1.8581,1.882,-0.4251,-0.4249,-0.4249,-0.427,-0.424,-0.4242,-0.3798,-0.3119,-0.2414,-0.1708,-0.1001,0.0,0.0,0.0,0.0,0.0,0.0,0.0,0.0,0.0,0.0,0.0,0.0,0.0,0.0,0.0,0.0,0.0,0.0,0.0,0.0,0.0,0.0,0.0,0.0,0.0,0.0,0.0,0.0,0.0,0.0,0.0,0.0,0.0,0.0,0.0,0.0,0.123,0.197,0.2156,0.3206,0.3826,0.3888,0.3888,0.3888,0.3888,0.3888,0.3888,0.3888,0.3888,0.3888,0.3888,0.3888,0.3888,0.3888,0.3886,0.3934,0.3906,0.3925,0.3923,0.3898,0.3918,0.3855,0.39,0.388,0.3868,0.3909,0.3884,0.3888,0.3891,0.3884,0.3803,0.3791,0.3839,0.3831,0.3831,0.3831,0.3835,0.3839,0.3846,0.3849,0.3853,0.3845,0.3844,0.3838,0.3837,0.3832,0.3832,0.3831,0.3831,0.3831,0.3831,0.3831,0.4301,0.4652,0.5474,0.7937,1.0279,1.2214,1.4083,1.5778,1.6948,1.782,1.8233,1.8789,-0.1644,-0.1645,-0.1644,-0.1656,-0.1676,-0.1676,-0.1514,-0.1176,-0.0943,-0.0648,-0.0412,0.0,0.0,0.0,0.0,0.0,0.0,0.0,0.0,0.0,0.0,0.0,0.0,0.0,0.0,0.0,0.0,0.0,0.0,0.0,0.0,0.0,0.0,0.0,0.0,0.0,0.0,0.0,0.0,0.0,0.0,0.0,0.0,0.0,0.0,0.0,0.0,0.1234,0.1974,0.2221,0.3209,0.3888,0.3888,0.3888,0.3888,0.3888,0.3888,0.3888,0.3888,0.3888,0.3888,0.3888,0.3888,0.3888,0.3888,0.3886,0.3937,0.3907,0.3932,0.3933,0.3918,0.3933,0.3926,0.3917,0.3908,0.3891,0.3935,0.3924,0.3913,0.3918,0.392,0.3843,0.3829,0.3827,0.388,0.3873,0.3875,0.3878,0.3884,0.3891,0.3891,0.3888,0.3814,0.3801,0.3793,0.3788,0.3838,0.3835,0.3835,0.3834,0.3831,0.3831,0.3839,0.3837,0.4127,0.5125,0.6476,0.7996,0.9986,1.2151,1.4316,1.5493,1.6798,1.8352,1.8808,0.0,0.0,0.0,0.0,0.0,0.0,0.0,0.0,0.0,0.0,0.0,0.0,0.0,0.0,0.0,0.0,0.0,0.0,0.0,0.0,0.0,0.0,0.0,0.0,0.0,0.0,0.0,0.0,0.0,0.0,0.0,0.0,0.0,0.0,0.0,0.0,0.0,0.0,0.0,0.0,0.0,0.0,0.0,0.0,0.0,0.0,0.0,0.1049,0.1666,0.1913,0.2901,0.3579,0.3579,0.3764,0.3888,0.3888,0.3888,0.3888,0.3888,0.3888,0.3888,0.3888,0.3888,0.3888,0.3888,0.3888,0.3882,0.3921,0.3934,0.3934,0.3926,0.3877,0.3936,0.3928,0.3918,0.39,0.3888,0.3888,0.3891,0.3898,0.39,0.3893,0.3884,0.3883,0.3874,0.3921,0.392,0.3921,0.3922,0.3924,0.3918,0.3911,0.39,0.3827,0.3821,0.387,0.3856,0.3848,0.3848,0.3852,0.3859,0.3862,0.3868,0.386,0.3848,0.4273,0.524,0.6447,0.7758,1.0044,1.2272,1.423,1.5788,1.7537,1.8877,0.0,0.0,0.0,0.0,0.0,0.0,0.0,0.0,0.0,0.0,0.0,0.0,0.0,0.0,0.0,0.0,0.0,0.0,0.0,0.0,0.0,0.0,0.0,0.0,0.0,0.0,0.0,0.0,0.0,0.0,0.0,0.0,0.0,0.0,0.0,0.0,0.0,0.0,0.0,0.0,0.0,0.0,0.0,0.0,0.0,0.0,0.0,0.0802,0.1296,0.1358,0.253,0.3271,0.3394,0.3703,0.3888,0.3888,0.3888,0.3888,0.3888,0.3888,0.3888,0.3888,0.3888,0.3888,0.3888,0.3888,0.3885,0.388,0.3885,0.3885,0.3882,0.3886,0.3882,0.388,0.3934,0.393,0.3923,0.3929,0.3933,0.3878,0.3936,0.3923,0.3921,0.3917,0.3906,0.3892,0.3887,0.3888,0.3881,0.388,0.3934,0.3928,0.3922,0.3917,0.3917,0.3904,0.3889,0.3886,0.3886,0.3895,0.3903,0.3904,0.3893,0.3896,0.3889,0.3902,0.4083,0.5246,0.6573,0.8366,1.0301,1.2302,1.4798,1.6977,1.8292,0.0,0.0,0.0,0.0,0.0,0.0,0.0,0.0,0.0,0.0,0.0,0.0,0.0,0.0,0.0,0.0,0.0,0.0,0.0,0.0,0.0,0.0,0.0,0.0,0.0,0.0,0.0,0.0,0.0,0.0,0.0,0.0,0.0,0.0,0.0,0.0,0.0,0.0,0.0,0.0,0.0,0.0,0.0,0.0,0.0,0.0,0.0,0.0,0.1173,0.1728,0.2529,0.3023,0.3394,0.3764,0.3888,0.3888,0.3888,0.3888,0.3888,0.3888,0.3888,0.3888,0.3888,0.3888,0.3888,0.3888,0.3888,0.3888,0.3888,0.3888,0.3888,0.3888,0.3886,0.3888,0.3888,0.3888,0.3888,0.3888,0.3888,0.3885,0.3885,0.3881,0.3882,0.3884,0.3933,0.3922,0.3918,0.3913,0.3907,0.3904,0.39,0.3895,0.3891,0.3887,0.3887,0.3936,0.3922,0.3924,0.3927,0.3931,0.3935,0.3918,0.3911,0.3918,0.3925,0.3925,0.4039,0.4319,0.5376,0.6905,0.8641,1.0588,1.3214,1.6104,1.7595,0.0,0.0,0.0,0.0,0.0,0.0,0.0,0.0,0.0,0.0,0.0,0.0,0.0,0.0,0.0,0.0,0.0,0.0,0.0,0.0,0.0,0.0,0.0,0.0,0.0,0.0,0.0,0.0,0.0,0.0,0.0,0.0,0.0,0.0,0.0,0.0,0.0,0.0,0.0,0.0,0.0,0.0,0.0,0.0,0.0,0.0,0.0,0.1049,0.1481,0.1974,0.2591,0.3146,0.3518,0.3764,0.3888,0.3888,0.3888,0.3888,0.3888,0.3888,0.3888,0.3888,0.3888,0.3888,0.3888,0.3888,0.3888,0.3888,0.3888,0.3888,0.3888,0.3888,0.3888,0.3888,0.3888,0.3888,0.3888,0.3888,0.3888,0.3888,0.3888,0.3888,0.3888,0.3888,0.3884,0.3936,0.3934,0.3933,0.3933,0.3932,0.3934,0.393,0.3925,0.3921,0.3917,0.3908,0.3902,0.3904,0.3904,0.3899,0.3896,0.3883,0.3883,0.3898,0.39,0.3889,0.4008,0.4129,0.4599,0.5362,0.7358,0.9605,1.2038,1.4874,1.683,0.0,0.0,0.0,0.0,0.0,0.0,0.0,0.0,0.0,0.0,0.0,0.0,0.0,0.0,0.0,0.0,0.0,0.0,0.0,0.0,0.0,0.0,0.0,0.0,0.0,0.0,0.0,0.0,0.0,0.0,0.0,0.0,0.0,0.0,0.0,0.0,0.0,0.0,0.0,0.0,0.0,0.0,0.0,0.0,0.0556,0.0741,0.0926,0.142,0.1913,0.2221,0.2653,0.3085,0.3332,0.3703,0.3888,0.3888,0.3888,0.3888,0.3888,0.3888,0.3888,0.3888,0.3888,0.3888,0.3888,0.3888,0.3888,0.3888,0.3888,0.3888,0.3888,0.3888,0.3888,0.3888,0.3888,0.3888,0.3888,0.3888,0.3888,0.3888,0.3888,0.3888,0.3888,0.3888,0.3888,0.3886,0.3888,0.3888,0.3888,0.3888,0.3888,0.3885,0.388,0.3877,0.3934,0.388,0.388,0.3882,0.3877,0.3928,0.3926,0.3925,0.3929,0.3877,0.3932,0.3918,0.393,0.3944,0.4346,0.4927,0.6879,0.9079,1.1407,1.3439,1.5319,0.0,0.0,0.0,0.0,0.0,0.0,0.0,0.0,0.0,0.0,0.0,0.0,0.0,0.0,0.0,0.0,0.0,0.0,0.0,0.0,0.0,0.0,0.0,0.0,0.0,0.0,0.0,0.0,0.0,0.0,0.0,0.0,0.0,0.0,0.0,0.0,0.0,0.0,0.0,0.0,0.0,0.0,0.0,0.0,0.0679,0.105,0.1173,0.1789,0.2283,0.2591,0.3023,0.3209,0.3456,0.3888,0.3888,0.3888,0.3888,0.3888,0.3888,0.3888,0.3888,0.3888,0.3888,0.3888,0.3888,0.3888,0.3888,0.3888,0.3888,0.3888,0.3888,0.3888,0.3888,0.3888,0.3888,0.3888,0.3888,0.3888,0.3888,0.3888,0.3888,0.3888,0.3889,0.3888,0.3888,0.3888,0.3888,0.3888,0.3888,0.3888,0.3888,0.3888,0.3885,0.3886,0.3888,0.3888,0.3888,0.3885,0.3885,0.3882,0.3885,0.3888,0.3886,0.3882,0.3885,0.3888,0.3888,0.3886,0.3943,0.4791,0.6194,0.7478,0.9136,1.1283,1.357,0.0,0.0,0.0,0.0,0.0,0.0,0.0,0.0,0.0,0.0,0.0,0.0,0.0,0.0,0.0,0.0,0.0,0.0,0.0,0.0,0.0,0.0,0.0,0.0,0.0,0.0,0.0,0.0,0.0,0.0,0.0,0.0,0.0,0.0,0.0,0.0,0.0,0.0,0.0,0.0,0.0,0.0,0.0,0.0,0.0741,0.1358,0.1605,0.2098,0.2838,0.3209,0.3394,0.3456,0.3826,0.3888,0.3888,0.3888,0.3888,0.3888,0.3888,0.3888,0.3888,0.3888,0.3888,0.3888,0.3888,0.3888,0.3888,0.3888,0.3888,0.3888,0.3888,0.3888,0.3893,0.3893,0.3904,0.3966,0.3917,0.392,0.3913,0.3909,0.3904,0.39,0.3893,0.3888,0.3888,0.3888,0.3888,0.389,0.3892,0.3889,0.3888,0.3888,0.3888,0.3888,0.3888,0.3888,0.3888,0.3888,0.3888,0.3888,0.3888,0.3888,0.3888,0.3888,0.3888,0.3888,0.3888,0.3948,0.3944,0.4067,0.4681,0.5912,0.6963,0.9115,1.1579,0.0,0.0,0.0,0.0,0.0,0.0,0.0,0.0,0.0,0.0,0.0,0.0,0.0,0.0,0.0,0.0,0.0,0.0,0.0,0.0,0.0,0.0,0.0,0.0,0.0,0.0,0.0,0.0,0.0,0.0,0.0,0.0,0.0,0.0,0.0,0.0,0.0,0.0,0.0,0.0,0.0,0.0,0.0,0.0432,0.1173,0.1789,0.2283,0.2962,0.3518,0.3826,0.3826,0.3888,0.3888,0.3888,0.3888,0.3888,0.3888,0.3888,0.3888,0.3888,0.3888,0.3888,0.3888,0.3888,0.3888,0.3888,0.3888,0.3888,0.3888,0.3888,0.3888,0.3896,0.3905,0.3978,0.3993,0.4007,0.3961,0.3961,0.4015,0.4008,0.3998,0.3992,0.3915,0.3906,0.391,0.3915,0.3917,0.3916,0.3912,0.389,0.3889,0.3888,0.3888,0.3888,0.3888,0.389,0.3888,0.3888,0.3888,0.3888,0.3888,0.3889,0.3888,0.3888,0.3888,0.3888,0.3888,0.3888,0.3888,0.4073,0.4259,0.4637,0.5813,0.7296,0.9452,0.0,0.0,0.0,0.0,0.0,0.0,0.0,0.0,0.0,0.0,0.0,0.0,0.0,0.0,0.0,0.0,0.0,0.0,0.0,0.0,0.0,0.0,0.0,0.0,0.0,0.0,0.0,0.0,0.0,0.0,0.0,0.0,0.0,0.0,0.0,0.0,0.0,0.0,0.0,0.0,0.0,0.0,0.0247,0.0802,0.1542,0.2159,0.2776,0.3394,0.3826,0.3888,0.3888,0.3888,0.3888,0.3888,0.3888,0.3888,0.3888,0.3888,0.3888,0.3888,0.3888,0.3888,0.3888,0.3888,0.3888,0.3888,0.3888,0.3888,0.3889,0.3889,0.3898,0.397,0.3985,0.4004,0.4019,0.4037,0.399,0.4054,0.4045,0.4034,0.4026,0.4016,0.3939,0.3941,0.3947,0.3949,0.3948,0.3944,0.3936,0.3916,0.3905,0.3905,0.3902,0.3908,0.3897,0.3896,0.389,0.3888,0.3896,0.39,0.39,0.3898,0.3892,0.3894,0.3905,0.3898,0.3888,0.3893,0.3906,0.3893,0.4015,0.4212,0.4655,0.6145,0.7463,0.0,0.0,0.0,0.0,0.0,0.0,0.0,0.0,0.0,0.0,0.0,0.0,0.0,0.0,0.0,0.0,0.0,0.0,0.0,0.0,0.0,0.0,0.0,0.0,0.0,0.0,0.0,0.0,0.0,0.0,0.0,0.0,0.0,0.0,0.0,0.0,0.0,0.0,0.0,0.0,0.0,0.0247,0.0679,0.1111,0.1852,0.2591,0.3023,0.3579,0.3826,0.3888,0.3888,0.3888,0.3888,0.3888,0.3888,0.3888,0.3888,0.3888,0.3888,0.3888,0.3888,0.3888,0.3889,0.3888,0.3888,0.3888,0.3888,0.3888,0.3889,0.3893,0.3968,0.3985,0.4008,0.4031,0.4048,0.4,0.4071,0.4078,0.4071,0.406,0.3987,0.3978,0.3974,0.3978,0.3976,0.397,0.3966,0.3966,0.396,0.3949,0.3941,0.394,0.3935,0.3932,0.3921,0.3916,0.3921,0.3927,0.3933,0.3933,0.3923,0.3924,0.3931,0.3929,0.3929,0.3924,0.392,0.3925,0.3933,0.392,0.3919,0.4065,0.4384,0.5058,0.6261,0.0,0.0,0.0,0.0,0.0,0.0,0.0,0.0,0.0,0.0,0.0,0.0,0.0,0.0,0.0,0.0,0.0,0.0,0.0,0.0,0.0,0.0,0.0,0.0,0.0,0.0,0.0,0.0,0.0,0.0,0.0,0.0,0.0,0.0,0.0,0.0,0.0,0.0,0.0,0.0,0.0,0.0556,0.105,0.1358,0.216,0.3023,0.3209,0.3518,0.3888,0.3888,0.3888,0.3888,0.3888,0.3888,0.3888,0.3888,0.3888,0.3888,0.3888,0.3888,0.3888,0.3889,0.389,0.3896,0.39,0.389,0.3888,0.3892,0.3894,0.3968,0.3983,0.4012,0.4038,0.406,0.4078,0.4029,0.4038,0.4106,0.4101,0.409,0.408,0.4008,0.4007,0.4011,0.4078,0.3996,0.3994,0.3995,0.3991,0.3986,0.4038,0.4034,0.396,0.3956,0.3957,0.3955,0.3963,0.397,0.3971,0.3966,0.3952,0.396,0.3974,0.3964,0.3952,0.3961,0.3964,0.3961,0.3959,0.3959,0.3963,0.4048,0.43,0.4661,0.4989,0.0,0.0,0.0,0.0,0.0,0.0,0.0,0.0,0.0,0.0,0.0,0.0,0.0,0.0,0.0,0.0,0.0,0.0,0.0,0.0,0.0,0.0,0.0,0.0,0.0,0.0,0.0,0.0,0.0,0.0,0.0,0.0,0.0,0.0,0.0,0.0,0.0,0.0,0.0,0.0,0.0,0.0679,0.1173,0.179,0.2591,0.3271,0.3518,0.3764,0.3888,0.3888,0.3888,0.3888,0.3888,0.3888,0.3888,0.3888,0.3888,0.3888,0.3888,0.3888,0.3888,0.3897,0.3904,0.3978,0.3978,0.3898,0.3893,0.396,0.3968,0.3985,0.4005,0.4038,0.4067,0.4087,0.4105,0.4118,0.4066,0.4065,0.4062,0.412,0.411,0.4106,0.4039,0.4041,0.4109,0.411,0.4047,0.4046,0.4042,0.4034,0.4071,0.4061,0.398,0.3976,0.3984,0.399,0.3996,0.3992,0.3988,0.3984,0.3982,0.399,0.3998,0.3983,0.3974,0.3988,0.3992,0.3979,0.3978,0.3988,0.3994,0.4072,0.4079,0.4324,0.4341,0.0,0.0,0.0,0.0,0.0,0.0,0.0,0.0,0.0,0.0,0.0,0.0,0.0,0.0,0.0,0.0,0.0,0.0,0.0,0.0,0.0,0.0,0.0,0.0,0.0,0.0,0.0,0.0,0.0,0.0,0.0,0.0,0.0,0.0,0.0,0.0,0.0,0.0,0.0,0.0,0.0432,0.1049,0.1543,0.2159,0.2838,0.3456,0.3703,0.3888,0.3888,0.3888,0.3888,0.3888,0.3888,0.3888,0.3888,0.3888,0.3888,0.3888,0.3888,0.3888,0.3888,0.3897,0.3978,0.399,0.3996,0.3983,0.3936,0.3943,0.3944,0.402,0.4041,0.4071,0.409,0.4109,0.4117,0.4062,0.4066,0.4066,0.4065,0.4062,0.4121,0.4057,0.4055,0.4054,0.4058,0.4058,0.4065,0.4065,0.4066,0.4066,0.4042,0.4026,0.401,0.4012,0.4027,0.4029,0.4027,0.4021,0.4011,0.4019,0.4025,0.4021,0.4082,0.4012,0.4012,0.4022,0.4021,0.4008,0.4015,0.4029,0.4029,0.4029,0.4097,0.4102,0.4174,0.0,0.0,0.0,0.0,0.0,0.0,0.0,0.0,0.0,0.0,0.0,0.0,0.0,0.0,0.0,0.0,0.0,0.0,0.0,0.0,0.0,0.0,0.0,0.0,0.0,0.0,0.0,0.0,0.0,0.0,0.0,0.0,0.0,0.0,0.0,0.0,0.0,0.0,0.0,0.0,0.1049,0.1666,0.1974,0.2468,0.3146,0.3826,0.3888,0.3888,0.3888,0.3888,0.3888,0.3888,0.3888,0.3888,0.3888,0.3888,0.3888,0.3888,0.3888,0.3888,0.3888,0.3896,0.3982,0.4001,0.4008,0.4026,0.4042,0.3986,0.3987,0.4053,0.4075,0.4093,0.411,0.4121,0.4062,0.4066,0.4066,0.4066,0.4066,0.4066,0.4066,0.4066,0.4066,0.4066,0.4066,0.4066,0.4066,0.4066,0.4066,0.4066,0.4055,0.405,0.4043,0.4051,0.4061,0.4055,0.4047,0.4049,0.4042,0.4057,0.4062,0.405,0.4046,0.4054,0.4057,0.405,0.4053,0.4047,0.4057,0.4058,0.4053,0.4046,0.405,0.412,0.4059,0.0,0.0,0.0,0.0,0.0,0.0,0.0,0.0,0.0,0.0,0.0,0.0,0.0,0.0,0.0,0.0,0.0,0.0,0.0,0.0,0.0,0.0,0.0,0.0,0.0,0.0,0.0,0.0,0.0,0.0,0.0,0.0,0.0,0.0,0.0,0.0,0.0,0.0,0.0494,0.0864,0.1111,0.1728,0.2283,0.2838,0.3518,0.3826,0.3888,0.3888,0.3888,0.3888,0.3888,0.3888,0.3888,0.3888,0.3888,0.3888,0.3888,0.3888,0.3888,0.3888,0.3888,0.3893,0.3985,0.4024,0.4043,0.4078,0.409,0.4033,0.403,0.408,0.4094,0.4112,0.4062,0.4062,0.4066,0.4066,0.4066,0.4066,0.4066,0.4066,0.4066,0.4066,0.4066,0.4066,0.4066,0.4066,0.4066,0.4066,0.4066,0.4066,0.4066,0.4066,0.4066,0.4066,0.4065,0.4063,0.4059,0.4065,0.4066,0.4066,0.4066,0.4066,0.4066,0.4066,0.4066,0.4061,0.4066,0.4066,0.4066,0.4063,0.4063,0.4063,0.4066,0.4066,0.4066]},{"header":{"parameterUnit":"m.s-1","parameterCategory":1,"la1":31.0,"la2":29.5877,"lo1":-88.7671,"lo2":-86.6584,"dy":0.0162,"dx":0.0185,"nx":115,"ny":88,"refTime":"2026-04-05T12:00:00:Z","depth":0,"parameterNumber":3,"parameterNumberName":"V-component_of_WINDS"},"data":[0.0,0.0,0.0,0.0,0.0,0.0,0.0,0.0,0.0,0.0,0.0,0.0,0.0,0.0,0.0,0.0,0.0,0.0,0.0,0.0,0.0,0.0,0.0,0.0,0.0,0.0,0.0,0.0,0.0,0.0,0.0,0.0,0.0,0.0,0.0,0.0,0.0,0.0,0.0,0.0,0.0,0.0,0.0,0.0,0.0,0.0,0.0,0.0,0.0,0.0,0.0,0.0,0.0,0.0,0.0,0.0,0.0,0.0,0.0,0.0,0.0,0.0,0.0,0.0,0.0,0.0,0.0,0.0,0.0,0.0,0.0,0.0,0.0,0.0,0.0,0.0,0.0,0.0,0.0,0.0,0.0,0.0,0.0,0.0,0.0,0.0,0.0,0.0,0.0,0.0,0.0,0.0,0.0,0.0,0.0,0.0,0.0,0.0,0.0,0.0,0.0,0.0,0.0,0.0,0.0,0.0,0.0,0.0,0.0,0.0,0.0,0.0,0.0,0.0,0.0,0.0,0.0,0.0,0.0,0.0,0.0,0.0,0.0,0.0,0.0,0.0,0.0,0.0,0.0,0.0,0.0,0.0,0.0,0.0,0.0,0.0,0.0,0.0,0.0,0.0,0.0,0.0,0.0,0.0,0.0,0.0,0.0,0.0,0.0,0.0,0.0,0.0,0.0,0.0,0.0,0.0,0.0,0.0,0.0,0.0,0.0,0.0,0.0,0.0,0.0,0.0,0.0,0.0,0.0,0.0,0.0,0.0,0.0,0.0,0.0,0.0,0.0,0.0,0.0,0.0,0.0,0.0,0.0,0.0,0.0,0.0,0.0,0.0,0.0,0.0,0.0,0.0,0.0,0.0,0.0,0.0,0.0,0.0,0.0,0.0,0.0,0.0,0.0,0.0,0.0,0.0,0.0,0.0,0.0,0.0,0.0,0.0,0.0,0.0,0.0,0.0,0.0,0.0,0.0,0.0,0.0,0.0,0.0,0.0,0.0,0.0,0.0,0.0,0.0,0.0,0.0,0.0,0.0,0.0,0.0,0.0,0.0,0.0,0.0,0.0,0.0,0.0,0.0,0.0,0.0,0.0,0.0,0.0,0.0,0.0,0.0,0.0,0.0,0.0,0.0,0.0,0.0,0.0,0.0,0.0,0.0,0.0,0.0,0.0,0.0,0.0,0.0,0.0,0.0,0.0,0.0,0.0,0.0,0.0,0.0,0.0,0.0,0.0,0.0,0.0,0.0,0.0,0.0,0.0,0.0,0.0,0.0,0.0,0.0,0.0,0.0,0.0,0.0,0.0,0.0,0.0,0.0,0.0,0.0,0.0,0.0,0.0,0.0,0.0,0.0,0.0,0.0,0.0,0.0,0.0,0.0,0.0,0.0,0.0,0.0,0.0,0.0,0.0,0.0,0.0,0.0,0.0,0.0,0.0,0.0,0.0,0.0,0.0,0.0,0.0,0.0,0.0,0.0,0.0,0.0,0.0,0.0,0.0,0.0,0.0,0.0,0.0,0.0,0.0,0.0,0.0,0.0,0.0,0.0,0.0,0.0,0.0,0.0,0.0,0.0,0.0,0.0,0.0,0.0,0.0,0.0,0.0,0.0,0.0,0.0,0.0,0.0,0.0,0.0,0.0,0.0,0.0,0.0,0.0,0.0,0.0,0.0,0.0,0.0,0.0,0.0,0.0,0.0,0.0,0.0,0.0,0.0,0.0,0.0,0.0,0.0,0.0,0.0,0.0,0.0,0.0,0.0,0.0,0.0,0.0,0.0,0.0,0.0,0.0,0.0,0.0,0.0,0.0,0.0,0.0,0.0,0.0,0.0,0.0,0.0,0.0,0.0,0.0,0.0,0.0,0.0,0.0,0.0,0.0,0.0,0.0,0.0,0.0,0.0,0.0,0.0,0.0,0.0,0.0,0.0,0.0,0.0,0.0,0.0,0.0,0.0,0.0,0.0,0.0,0.0,0.0,0.0,0.0,0.0,0.0,0.0,0.0,0.0,0.0,0.0,0.0,0.0,0.0,0.0,0.0,0.0,0.0,0.0,0.0,0.0,0.0,0.0,0.0,0.0,0.0,0.0,0.0,0.0,0.0,0.0,0.0,0.0,0.0,0.0,0.0,0.0,0.0,0.0,0.0,0.0,0.0,0.0,0.0,0.0,0.0,0.0,0.0,0.0,0.0,0.0,0.0,0.0,0.0,0.0,0.0,0.0,0.0,0.0,0.0,0.0,0.0,0.0,0.0,0.0,0.0,0.0,0.0,0.0,0.0,0.0,0.0,0.0,0.0,0.0,0.0,0.0,0.0,0.0,0.0,0.0,0.0,0.0,0.0,0.0,0.0,0.0,0.0,0.0,0.0,0.0,0.0,0.0,0.0,0.0,0.0,0.0,0.0,0.0,0.0,0.0,0.0,0.0,0.0,0.0,0.0,0.0,0.0,0.0,0.0,0.0,0.0,0.0,0.0,0.0,0.0,0.0,0.0,0.0,0.0,0.0,0.0,0.0,0.0,0.0,0.0,0.0,0.0,0.0,0.0,0.0,0.0,0.0,0.0,0.0,0.0,0.0,0.0,0.0,0.0,0.0,0.0,0.0,0.0,0.0,0.0,0.0,0.0,0.0,0.0,0.0,0.0,0.0,0.0,0.0,0.0,0.0,0.0,0.0,0.0,0.0,0.0,0.0,0.0,0.0,0.0,0.0,0.0,0.0,0.0,0.0,0.0,0.0,0.0,0.0,0.0,0.0,0.0,0.0,0.0,0.0,0.0,0.0,0.0,0.0,0.0,0.0,0.0,0.0,0.0,0.0,0.0,0.0,0.0,0.0,0.0,0.0,0.0,0.0,0.0,0.0,0.0,0.0,0.0,0.0,0.0,0.0,0.0,0.0,0.0,0.0,0.0,0.0,0.0,0.0,0.0,0.0,0.0,0.0,0.0,0.0,0.0,0.0,0.0,0.0,0.0,0.0,0.0,0.0,0.0,0.0,0.0,0.0,0.0,0.0,0.0,0.0,0.0,0.0,0.0,0.0,0.0,0.0,0.0,0.0,0.0,0.0,0.0,0.0,0.0,0.0,0.0,0.0,0.0,0.0,0.0,0.0,0.0,0.0,0.0,0.0,0.0,0.0,0.0,0.0,0.0,0.0,0.0,0.0,0.0,0.0,0.0,0.0,0.0,0.0,0.0,0.0,0.0,0.0,0.0,0.0,0.0,0.0,0.0,0.0,0.0,0.0,0.0,0.0,0.0,0.0,0.0,0.0,0.0,0.0,0.0,0.0,0.0,0.0,0.0,0.0,0.0,0.0,0.0,0.0,0.0,0.0,0.0,0.0,0.0,0.0,0.0,0.0,0.0,0.0,0.0,0.0,0.0,0.0,0.0,0.0,0.0,0.0,0.0,0.0,0.0,0.0,0.0,0.0,0.0,0.0,0.0,0.0,0.0,0.0,0.0,0.0,0.0,0.0,0.0,0.0,0.0,0.0,0.0,0.0,0.0,0.0,0.0,0.0,0.0,0.0,0.0,0.0,0.0,0.0,0.0,0.0,0.0,0.0,0.0,0.0,0.0,0.0,0.0,0.0,0.0,0.0,0.0,0.0,0.0,0.0,0.0,0.0,0.0,0.0,0.0,0.0,0.0,0.0,0.0,0.0,0.0,0.0,0.0,0.0,0.0,0.0,0.0,0.0,0.0,0.0,0.0,0.0,0.0,0.0,0.0,0.0,0.0,0.0,0.0,0.0,0.0,0.0,0.0,0.0,0.0,0.0,0.0,0.0,0.0,0.0,0.0,0.0,0.0,0.0,0.0,0.0,0.0,0.0,0.0,0.0,0.0,0.0,0.0,0.0,0.0,0.0,0.0,0.0,0.0,0.0,0.0,0.0,0.0,0.0,0.0,0.0,0.0,0.0,0.0,0.0,0.0,0.0,0.0,0.0,0.0,0.0,0.0,0.0,0.0,0.0,0.0,0.0,0.0,0.0,0.0,0.0,0.0,0.0,0.0,0.0,0.0,0.0,0.0,0.0,0.0,0.0,0.0,0.0,0.0,0.0,0.0,0.0,0.0,0.0,0.0,0.0,0.0,0.0,0.0,0.0,0.0,0.0,0.0,0.0,0.0,0.0,0.0,0.0,0.0,0.0,0.0,0.0,0.0,0.0,0.0,0.0,0.0,0.0,0.0,0.0,0.0,0.0,0.0,0.0,0.0,0.0,0.0,0.0,0.0,0.0,0.0,0.0,0.0,0.0,0.0,0.0,0.0,0.0,0.0,0.0,0.0,2.5188,0.0,0.0,0.0,0.0,0.0,0.0,0.0,0.0,0.0,0.0,0.0,0.0,0.0,0.0,0.0,0.0,0.0,0.0,0.0,0.0,0.0,0.0,0.0,0.0,0.0,0.0,0.0,0.0,0.0,0.0,0.0,0.0,0.0,0.0,0.0,0.0,0.0,0.0,0.0,0.0,0.0,0.0,0.0,0.0,0.0,0.0,0.0,0.0,0.0,0.0,0.0,0.0,0.0,0.0,0.0,0.0,0.0,0.0,0.0,0.0,0.0,0.0,0.0,0.0,0.0,0.0,0.0,0.0,0.0,0.0,0.0,0.0,0.0,0.0,0.0,0.0,0.0,0.0,0.0,0.0,0.0,0.0,0.0,0.0,0.0,0.0,0.0,0.0,0.0,0.0,0.0,0.0,0.0,0.0,0.0,0.0,0.0,0.0,0.0,0.0,0.0,0.0,0.0,0.0,0.0,0.0,0.0,0.0,0.0,0.0,2.5188,2.5188,2.5188,2.5188,2.5188,0.0,0.0,0.0,0.0,0.0,0.0,0.0,0.0,0.0,0.0,0.0,0.0,0.0,0.0,0.0,0.0,0.0,0.0,0.0,0.0,0.0,0.0,0.0,0.0,0.0,0.0,0.0,0.0,0.0,0.0,0.0,0.0,0.0,0.0,0.0,0.0,0.0,0.0,0.0,0.0,0.0,0.0,0.0,0.0,0.0,0.0,0.0,0.0,0.0,0.0,0.0,0.0,0.0,0.0,0.0,0.0,0.0,0.0,0.0,0.0,0.0,0.0,0.0,0.0,0.0,0.0,0.0,0.0,0.0,0.0,0.0,0.0,0.0,0.0,0.0,0.0,0.0,0.0,0.0,0.0,0.0,0.0,0.0,0.0,0.0,0.0,0.0,0.0,0.0,0.0,0.0,0.0,0.0,0.0,0.0,0.0,0.0,0.0,0.0,0.0,0.0,0.0,0.0,0.0,0.0,0.0,0.0,0.0,0.0,0.0,0.0,0.0,2.5647,2.5647,2.5494,0.0,0.0,0.0,0.0,0.0,0.0,0.0,0.0,0.0,0.0,0.0,0.0,0.0,0.0,0.0,0.0,0.0,0.0,0.0,0.0,0.0,0.0,0.0,0.0,0.0,0.0,0.0,0.0,0.0,0.0,0.0,0.0,0.0,0.0,0.0,0.0,0.0,0.0,0.0,0.0,0.0,0.0,0.0,0.0,0.0,0.0,0.0,0.0,0.0,0.0,0.0,0.0,0.0,0.0,0.0,0.0,0.0,0.0,0.0,0.0,0.0,0.0,0.0,0.0,0.0,0.0,0.0,0.0,0.0,0.0,0.0,0.0,0.0,0.0,0.0,0.0,0.0,0.0,0.0,0.0,0.0,0.0,0.0,0.0,0.0,0.0,0.0,0.0,0.0,0.0,0.0,0.0,0.0,0.0,0.0,0.0,0.0,0.0,0.0,0.0,0.0,0.0,0.0,0.0,0.0,0.0,0.0,0.0,0.0,0.0,2.6291,2.6291,2.7055,0.0,2.6329,0.0,0.0,0.0,0.0,0.0,0.0,0.0,0.0,0.0,0.0,0.0,0.0,0.0,0.0,0.0,0.0,0.0,0.0,0.0,0.0,0.0,0.0,0.0,0.0,0.0,0.0,0.0,0.0,0.0,0.0,0.0,0.0,0.0,0.0,0.0,0.0,0.0,0.0,0.0,0.0,0.0,0.0,0.0,0.0,0.0,0.0,0.0,0.0,0.0,0.0,0.0,0.0,0.0,0.0,0.0,0.0,0.0,0.0,0.0,0.0,0.0,0.0,0.0,0.0,0.0,0.0,0.0,0.0,0.0,0.0,0.0,0.0,0.0,0.0,0.0,0.0,0.0,0.0,0.0,0.0,0.0,0.0,0.0,0.0,0.0,0.0,0.0,0.0,0.0,0.0,0.0,0.0,0.0,0.0,0.0,0.0,0.0,0.0,0.0,0.0,0.0,0.0,0.0,0.0,0.0,0.0,0.0,0.0,0.0,0.0,0.0,2.7166,2.7507,2.7281,0.0,0.0,0.0,0.0,0.0,0.0,0.0,0.0,0.0,0.0,0.0,0.0,0.0,0.0,0.0,0.0,0.0,0.0,0.0,0.0,0.0,0.0,0.0,0.0,0.0,0.0,0.0,0.0,0.0,0.0,0.0,0.0,0.0,0.0,0.0,0.0,0.0,0.0,0.0,0.0,0.0,0.0,0.0,0.0,0.0,0.0,0.0,0.0,0.0,0.0,0.0,0.0,0.0,0.0,0.0,0.0,0.0,0.0,0.0,0.0,0.0,0.0,0.0,0.0,0.0,0.0,0.0,0.0,0.0,0.0,0.0,0.0,0.0,0.0,0.0,0.0,0.0,0.0,0.0,0.0,0.0,0.0,0.0,0.0,0.0,0.0,0.0,0.0,0.0,0.0,0.0,0.0,0.0,0.0,0.0,0.0,0.0,0.0,0.0,0.0,0.0,0.0,0.0,0.0,0.0,0.0,0.0,0.0,0.0,0.0,2.5988,0.0,2.766,2.7701,2.7281,2.6444,0.0,0.0,0.0,0.0,0.0,0.0,0.0,0.0,0.0,0.0,0.0,0.0,0.0,0.0,0.0,0.0,0.0,0.0,0.0,0.0,0.0,0.0,0.0,0.0,0.0,0.0,0.0,0.0,0.0,0.0,0.0,0.0,0.0,0.0,0.0,0.0,0.0,0.0,0.0,0.0,0.0,0.0,0.0,0.0,0.0,0.0,0.0,0.0,0.0,0.0,0.0,0.0,0.0,0.0,0.0,0.0,0.0,0.0,0.0,0.0,0.0,0.0,0.0,0.0,0.0,0.0,0.0,0.0,0.0,0.0,0.0,0.0,0.0,0.0,0.0,0.0,0.0,0.0,0.0,0.0,0.0,0.0,0.0,0.0,0.0,0.0,0.0,0.0,0.0,0.0,0.0,0.0,0.0,0.0,0.0,0.0,0.0,0.0,0.0,0.0,0.0,0.0,0.0,0.0,0.0,0.0,0.0,0.0,0.0,2.5988,2.6823,2.7663,2.7701,2.7281,0.0,0.0,0.0,0.0,0.0,0.0,0.0,0.0,0.0,0.0,0.0,0.0,0.0,0.0,0.0,0.0,0.0,0.0,0.0,0.0,0.0,0.0,0.0,0.0,0.0,0.0,0.0,0.0,0.0,0.0,0.0,0.0,0.0,0.0,0.0,0.0,0.0,0.0,0.0,0.0,0.0,0.0,0.0,0.0,0.0,0.0,0.0,0.0,0.0,0.0,0.0,0.0,0.0,0.0,0.0,0.0,0.0,0.0,0.0,0.0,0.0,0.0,0.0,0.0,0.0,0.0,0.0,0.0,0.0,0.0,0.0,0.0,0.0,0.0,0.0,0.0,0.0,0.0,0.0,0.0,0.0,0.0,0.0,0.0,0.0,0.0,0.0,0.0,0.0,0.0,0.0,0.0,0.0,0.0,0.0,0.0,0.0,0.0,0.0,0.0,0.0,0.0,0.0,0.0,0.0,0.0,0.0,0.0,0.0,2.5265,2.652,2.7358,2.7701,2.7701,2.7281,0.0,0.0,0.0,0.0,0.0,0.0,0.0,0.0,0.0,0.0,0.0,0.0,0.0,0.0,0.0,0.0,0.0,0.0,0.0,0.0,0.0,0.0,0.0,0.0,0.0,0.0,0.0,0.0,0.0,0.0,0.0,0.0,0.0,0.0,0.0,0.0,0.0,0.0,0.0,0.0,0.0,0.0,0.0,0.0,0.0,0.0,0.0,0.0,0.0,0.0,0.0,0.0,0.0,0.0,0.0,0.0,0.0,0.0,0.0,0.0,0.0,0.0,0.0,0.0,0.0,0.0,0.0,0.0,0.0,0.0,0.0,0.0,0.0,0.0,0.0,0.0,0.0,0.0,0.0,0.0,0.0,0.0,0.0,0.0,0.0,0.0,0.0,0.0,0.0,0.0,0.0,0.0,0.0,0.0,0.0,0.0,0.0,0.0,0.0,0.0,0.0,0.0,0.0,0.0,0.0,0.0,0.0,0.0,0.0,2.5647,0.0,2.8275,0.0,2.7966,2.7545,0.0,0.0,0.0,0.0,0.0,0.0,0.0,0.0,0.0,0.0,0.0,0.0,0.0,0.0,0.0,0.0,0.0,0.0,0.0,0.0,0.0,0.0,0.0,0.0,0.0,0.0,0.0,0.0,0.0,0.0,0.0,0.0,0.0,0.0,0.0,0.0,0.0,0.0,0.0,0.0,0.0,0.0,0.0,0.0,0.0,0.0,0.0,0.0,0.0,0.0,0.0,0.0,0.0,0.0,0.0,0.0,0.0,0.0,0.0,0.0,0.0,0.0,0.0,0.0,0.0,0.0,0.0,0.0,0.0,0.0,0.0,0.0,0.0,0.0,0.0,0.0,0.0,0.0,0.0,0.0,0.0,0.0,0.0,0.0,0.0,0.0,0.0,0.0,0.0,0.0,0.0,0.0,0.0,0.0,0.0,0.0,0.0,0.0,0.0,0.0,0.0,0.0,0.0,0.0,0.0,0.0,0.0,0.0,2.572,2.652,2.8927,2.9497,2.7848,2.8497,2.8115,0.0,0.0,0.0,0.0,0.0,0.0,0.0,0.0,0.0,0.0,0.0,0.0,0.0,0.0,0.0,0.0,0.0,0.0,0.0,0.0,0.0,0.0,0.0,0.0,0.0,0.0,0.0,0.0,0.0,0.0,0.0,0.0,0.0,0.0,0.0,0.0,0.0,0.0,0.0,0.0,0.0,0.0,0.0,0.0,0.0,0.0,0.0,0.0,0.0,0.0,0.0,0.0,0.0,0.0,0.0,0.0,0.0,0.0,0.0,0.0,0.0,0.0,0.0,0.0,0.0,0.0,0.0,0.0,0.0,0.0,0.0,0.0,0.0,0.0,0.0,0.0,0.0,0.0,0.0,0.0,0.0,0.0,0.0,0.0,0.0,0.0,0.0,0.0,0.0,0.0,0.0,0.0,0.0,0.0,0.0,0.0,0.0,0.0,0.0,0.0,0.0,0.0,0.0,0.0,0.0,0.0,0.0,0.0,0.0,2.908,3.0907,3.14,3.0296,2.9372,2.8417,0.0,0.0,0.0,0.0,0.0,0.0,0.0,0.0,0.0,0.0,0.0,0.0,0.0,0.0,0.0,0.0,0.0,0.0,0.0,0.0,0.0,0.0,0.0,0.0,0.0,0.0,0.0,0.0,0.0,0.0,0.0,0.0,0.0,0.0,0.0,0.0,0.0,0.0,0.0,0.0,0.0,0.0,0.0,0.0,0.0,0.0,0.0,0.0,0.0,0.0,0.0,0.0,0.0,0.0,0.0,0.0,0.0,0.0,0.0,0.0,0.0,0.0,0.0,0.0,0.0,0.0,0.0,0.0,0.0,0.0,0.0,0.0,0.0,0.0,0.0,0.0,0.0,0.0,0.0,0.0,0.0,0.0,0.0,0.0,0.0,0.0,0.0,0.0,0.0,0.0,0.0,0.0,0.0,0.0,0.0,0.0,0.0,0.0,0.0,0.0,0.0,0.0,0.0,0.0,0.0,0.0,0.0,0.0,0.0,3.5343,3.5759,3.5263,3.3811,3.2432,3.0904,2.9188,0.0,0.0,0.0,0.0,0.0,0.0,0.0,0.0,0.0,0.0,0.0,0.0,0.0,0.0,0.0,0.0,0.0,0.0,0.0,0.0,0.0,0.0,0.0,0.0,0.0,0.0,0.0,0.0,0.0,0.0,0.0,0.0,0.0,0.0,0.0,0.0,0.0,0.0,0.0,0.0,0.0,0.0,0.0,0.0,0.0,0.0,0.0,0.0,0.0,0.0,0.0,0.0,0.0,0.0,0.0,0.0,0.0,0.0,0.0,0.0,0.0,0.0,0.0,0.0,0.0,0.0,0.0,0.0,0.0,0.0,0.0,0.0,0.0,0.0,0.0,0.0,0.0,0.0,0.0,0.0,0.0,0.0,0.0,0.0,0.0,0.0,0.0,0.0,0.0,0.0,0.0,0.0,0.0,0.0,0.0,0.0,0.0,0.0,0.0,0.0,0.0,0.0,0.0,0.0,0.0,0.0,0.0,0.0,4.4236,4.3023,4.1079,3.8285,3.7287,3.5224,0.0,0.0,0.0,0.0,0.0,0.0,0.0,0.0,0.0,0.0,0.0,0.0,0.0,0.0,0.0,0.0,0.0,0.0,0.0,0.0,0.0,0.0,0.0,0.0,0.0,0.0,0.0,0.0,0.0,0.0,0.0,0.0,0.0,0.0,0.0,0.0,0.0,0.0,0.0,0.0,0.0,0.0,0.0,0.0,0.0,0.0,0.0,0.0,0.0,0.0,0.0,0.0,0.0,0.0,0.0,0.0,0.0,0.0,0.0,0.0,0.0,0.0,0.0,0.0,0.0,0.0,0.0,0.0,0.0,0.0,0.0,0.0,0.0,0.0,0.0,0.0,0.0,0.0,0.0,0.0,0.0,0.0,0.0,0.0,0.0,0.0,0.0,0.0,0.0,0.0,0.0,0.0,0.0,0.0,0.0,0.0,0.0,0.0,0.0,0.0,0.0,0.0,0.0,0.0,0.0,0.0,0.0,0.0,0.0,4.7614,5.0938,4.9939,4.4399,4.1609,3.8629,0.0,0.0,0.0,0.0,0.0,0.0,0.0,0.0,0.0,0.0,0.0,0.0,0.0,0.0,0.0,0.0,0.0,0.0,0.0,0.0,0.0,0.0,0.0,0.0,0.0,0.0,0.0,0.0,0.0,0.0,0.0,0.0,0.0,0.0,0.0,0.0,0.0,0.0,0.0,0.0,0.0,0.0,0.0,0.0,0.0,0.0,0.0,0.0,0.0,0.0,0.0,0.0,0.0,0.0,0.0,0.0,0.0,0.0,0.0,0.0,0.0,0.0,0.0,0.0,0.0,0.0,0.0,0.0,0.0,0.0,0.0,0.0,0.0,0.0,0.0,0.0,0.0,0.0,0.0,0.0,0.0,0.0,0.0,0.0,0.0,0.0,0.0,0.0,0.0,0.0,0.0,0.0,0.0,0.0,0.0,0.0,0.0,0.0,0.0,0.0,0.0,0.0,0.0,0.0,0.0,0.0,0.0,0.0,4.5894,5.1664,5.6664,5.6855,5.192,4.7188,4.2603,0.0,0.0,0.0,0.0,0.0,0.0,0.0,0.0,0.0,0.0,0.0,0.0,0.0,0.0,0.0,0.0,0.0,0.0,0.0,0.0,0.0,0.0,0.0,0.0,0.0,0.0,0.0,0.0,0.0,0.0,0.0,0.0,0.0,0.0,0.0,0.0,0.0,0.0,0.0,0.0,0.0,0.0,0.0,0.0,0.0,0.0,0.0,0.0,0.0,0.0,0.0,0.0,0.0,0.0,0.0,0.0,0.0,0.0,0.0,0.0,0.0,0.0,0.0,0.0,0.0,0.0,0.0,0.0,0.0,0.0,0.0,0.0,0.0,0.0,0.0,0.0,0.0,0.0,0.0,0.0,0.0,0.0,0.0,0.0,0.0,0.0,0.0,0.0,0.0,0.0,0.0,0.0,0.0,0.0,0.0,0.0,0.0,0.0,0.0,0.0,0.0,0.0,0.0,0.0,0.0,0.0,0.0,0.0,4.9028,5.5556,6.0478,6.1853,5.9293,5.3034,4.6888,0.0,0.0,0.0,0.0,0.0,0.0,0.0,0.0,0.0,0.0,0.0,0.0,0.0,0.0,0.0,0.0,0.0,0.0,0.0,0.0,0.0,0.0,0.0,0.0,0.0,0.0,0.0,0.0,0.0,0.0,0.0,0.0,0.0,0.0,0.0,0.0,0.0,0.0,0.0,0.0,0.0,0.0,0.0,0.0,0.0,0.0,0.0,0.0,0.0,0.0,0.0,0.0,0.0,0.0,0.0,0.0,0.0,0.0,0.0,0.0,0.0,0.0,0.0,0.0,0.0,0.0,0.0,0.0,0.0,0.0,0.0,0.0,0.0,0.0,0.0,0.0,0.0,0.0,0.0,0.0,0.0,0.0,0.0,0.0,0.0,0.0,0.0,0.0,0.0,0.0,0.0,0.0,0.0,0.0,0.0,0.0,0.0,0.0,0.0,0.0,0.0,0.0,0.0,0.0,0.0,0.0,0.0,0.0,5.1888,5.7275,6.1669,6.3014,6.1096,5.5861,5.0588,0.0,0.0,0.0,0.0,0.0,0.0,0.0,0.0,0.0,0.0,0.0,0.0,0.0,0.0,0.0,0.0,0.0,0.0,0.0,0.0,0.0,0.0,0.0,0.0,0.0,0.0,0.0,0.0,0.0,0.0,0.0,0.0,0.0,0.0,0.0,0.0,0.0,0.0,0.0,0.0,0.0,0.0,0.0,0.0,0.0,0.0,0.0,0.0,3.5779,0.0,0.0,0.0,0.0,0.0,0.0,0.0,0.0,0.0,0.0,0.0,0.0,0.0,0.0,0.0,0.0,0.0,0.0,0.0,0.0,0.0,0.0,0.0,0.0,0.0,0.0,0.0,0.0,0.0,0.0,0.0,0.0,0.0,0.0,0.0,0.0,0.0,0.0,0.0,0.0,0.0,0.0,0.0,0.0,0.0,0.0,0.0,0.0,0.0,0.0,0.0,0.0,0.0,0.0,0.0,0.0,0.0,0.0,0.0,5.4333,5.9001,6.2777,6.416,6.2746,5.9078,5.3951,0.0,0.0,0.0,0.0,0.0,0.0,0.0,0.0,0.0,0.0,0.0,0.0,0.0,0.0,0.0,0.0,0.0,0.0,0.0,0.0,0.0,0.0,0.0,0.0,0.0,0.0,0.0,0.0,0.0,0.0,0.0,0.0,0.0,0.0,0.0,0.0,0.0,0.0,0.0,0.0,0.0,0.0,0.0,0.0,0.0,0.0,0.0,0.0,0.0,0.0,0.0,0.0,0.0,0.0,0.0,0.0,0.0,0.0,0.0,0.0,0.0,0.0,0.0,0.0,0.0,0.0,0.0,0.0,0.0,0.0,0.0,0.0,0.0,0.0,0.0,0.0,0.0,0.0,0.0,0.0,0.0,0.0,0.0,0.0,0.0,0.0,0.0,0.0,0.0,0.0,0.0,0.0,0.0,0.0,0.0,0.0,0.0,0.0,0.0,0.0,0.0,0.0,0.0,0.0,0.0,0.0,0.0,5.1582,5.6976,6.0874,6.4,6.5108,6.4007,6.1409,5.6173,4.8099,0.0,0.0,0.0,0.0,0.0,0.0,0.0,0.0,0.0,0.0,0.0,0.0,0.0,0.0,0.0,0.0,0.0,0.0,0.0,0.0,0.0,0.0,0.0,0.0,0.0,0.0,0.0,0.0,0.0,0.0,0.0,0.0,0.0,0.0,0.0,0.0,0.0,0.0,3.1843,3.5405,0.0,0.0,0.0,0.0,0.0,0.0,0.0,0.0,3.77,0.0,0.0,0.0,0.0,0.0,0.0,0.0,0.0,0.0,0.0,0.0,0.0,0.0,0.0,0.0,0.0,0.0,0.0,0.0,0.0,0.0,0.0,0.0,0.0,0.0,0.0,0.0,0.0,0.0,0.0,0.0,0.0,0.0,0.0,0.0,0.0,0.0,0.0,0.0,0.0,0.0,0.0,0.0,0.0,0.0,0.0,0.0,0.0,0.0,0.0,0.0,0.0,0.0,0.0,0.0,0.0,4.8225,5.56,6.0759,6.351,6.549,6.5413,6.3152,5.9988,5.5021,4.8099,0.0,0.0,0.0,0.0,0.0,0.0,0.0,0.0,0.0,0.0,0.0,0.0,0.0,0.0,0.0,0.0,0.0,0.0,0.0,0.0,0.0,0.0,0.0,0.0,0.0,0.0,0.0,0.0,0.0,0.0,0.0,0.0,0.0,0.0,0.0,0.0,0.0,0.0,0.0,3.8962,4.0983,0.0,0.0,0.0,0.0,0.0,0.0,0.0,0.0,3.946,0.0,0.0,0.0,0.0,0.0,0.0,0.0,0.0,0.0,0.0,0.0,0.0,0.0,0.0,0.0,0.0,0.0,0.0,0.0,0.0,0.0,0.0,0.0,0.0,0.0,0.0,0.0,0.0,0.0,0.0,0.0,0.0,0.0,0.0,0.0,0.0,0.0,0.0,0.0,0.0,0.0,0.0,0.0,0.0,0.0,0.0,0.0,0.0,0.0,0.0,0.0,0.0,0.0,0.0,0.0,5.0423,5.7914,6.2765,6.4831,6.6468,6.591,6.2961,5.9224,5.4256,0.0,0.0,0.0,0.0,0.0,0.0,0.0,0.0,0.0,0.0,0.0,0.0,0.0,0.0,0.0,0.0,0.0,0.0,0.0,0.0,0.0,0.0,0.0,0.0,0.0,0.0,0.0,0.0,0.0,0.0,0.0,0.0,0.0,0.0,0.0,0.0,0.0,0.0,0.0,0.0,4.2328,4.4456,4.2377,0.0,0.0,0.0,0.0,0.0,0.0,4.3238,4.1797,0.0,0.0,0.0,0.0,0.0,0.0,0.0,0.0,0.0,0.0,0.0,0.0,0.0,0.0,0.0,0.0,0.0,0.0,0.0,0.0,0.0,0.0,0.0,0.0,0.0,0.0,0.0,0.0,0.0,0.0,0.0,0.0,0.0,0.0,0.0,0.0,0.0,0.0,0.0,0.0,0.0,0.0,0.0,0.0,0.0,0.0,0.0,0.0,0.0,0.0,0.0,0.0,0.0,0.0,0.0,5.2209,5.9882,6.4583,6.6042,6.7462,6.6606,6.3219,5.8887,5.376,0.0,0.0,0.0,0.0,0.0,0.0,0.0,0.0,0.0,0.0,0.0,0.0,0.0,0.0,0.0,0.0,0.0,0.0,0.0,0.0,0.0,0.0,0.0,0.0,0.0,0.0,0.0,0.0,0.0,0.0,0.0,0.0,0.0,0.0,0.0,0.0,0.0,0.0,0.0,0.0,0.0,4.7826,4.584,4.5534,0.0,0.0,0.0,0.0,4.6163,4.6316,0.0,0.0,0.0,0.0,0.0,0.0,0.0,0.0,0.0,0.0,0.0,0.0,0.0,0.0,0.0,0.0,0.0,0.0,0.0,0.0,0.0,0.0,0.0,0.0,0.0,0.0,0.0,0.0,0.0,0.0,0.0,0.0,0.0,0.0,0.0,0.0,0.0,0.0,0.0,0.0,0.0,0.0,0.0,0.0,0.0,0.0,0.0,0.0,0.0,0.0,0.0,0.0,0.0,0.0,0.0,0.0,5.4105,6.2432,6.7128,6.7955,6.8805,6.7589,6.4193,5.9233,5.346,0.0,0.0,0.0,0.0,0.0,0.0,0.0,0.0,0.0,0.0,0.0,0.0,0.0,0.0,0.0,0.0,0.0,0.0,0.0,0.0,0.0,0.0,0.0,0.0,0.0,0.0,0.0,0.0,0.0,0.0,0.0,0.0,0.0,0.0,0.0,0.0,0.0,0.0,0.0,0.0,0.0,5.1079,5.0774,5.0735,5.0712,0.0,0.0,4.974,5.0533,5.1243,0.0,0.0,0.0,0.0,0.0,0.0,0.0,0.0,0.0,0.0,0.0,0.0,0.0,0.0,0.0,0.0,0.0,0.0,0.0,0.0,0.0,0.0,0.0,0.0,0.0,0.0,0.0,0.0,0.0,0.0,0.0,0.0,0.0,0.0,0.0,0.0,0.0,0.0,0.0,0.0,0.0,0.0,0.0,0.0,0.0,0.0,0.0,0.0,0.0,0.0,0.0,0.0,0.0,0.0,0.0,4.8002,5.5277,6.326,6.7988,6.9218,6.9932,6.843,6.4564,5.9926,5.4264,0.0,0.0,0.0,0.0,0.0,0.0,0.0,0.0,0.0,0.0,0.0,0.0,0.0,0.0,0.0,0.0,0.0,0.0,0.0,0.0,0.0,0.0,0.0,0.0,0.0,0.0,0.0,0.0,0.0,0.0,0.0,0.0,0.0,0.0,0.0,0.0,0.0,0.0,0.0,0.0,0.0,0.0,5.3754,5.4556,0.0,0.0,0.0,5.4091,5.4943,0.0,0.0,0.0,0.0,0.0,0.0,0.0,0.0,0.0,0.0,0.0,0.0,0.0,0.0,0.0,0.0,0.0,0.0,0.0,0.0,0.0,0.0,0.0,0.0,0.0,0.0,0.0,0.0,0.0,0.0,0.0,0.0,0.0,0.0,0.0,0.0,0.0,0.0,0.0,0.0,0.0,0.0,0.0,0.0,0.0,0.0,0.0,0.0,0.0,0.0,0.0,0.0,0.0,0.0,0.0,0.0,0.0,5.6343,6.4202,6.8838,7.0007,7.0949,6.9577,6.5724,6.1633,0.0,0.0,0.0,0.0,0.0,0.0,0.0,0.0,0.0,0.0,0.0,0.0,0.0,0.0,0.0,0.0,0.0,0.0,0.0,0.0,0.0,0.0,0.0,0.0,0.0,0.0,0.0,2.7128,0.0,0.0,0.0,0.0,0.0,0.0,0.0,0.0,0.0,0.0,0.0,0.0,0.0,0.0,5.6733,5.7192,5.8689,5.9498,0.0,0.0,5.8734,5.9383,6.1019,6.0523,0.0,0.0,0.0,0.0,0.0,0.0,0.0,0.0,0.0,0.0,0.0,0.0,0.0,0.0,0.0,0.0,0.0,0.0,0.0,0.0,0.0,0.0,0.0,0.0,0.0,0.0,0.0,0.0,0.0,0.0,0.0,0.0,0.0,0.0,0.0,0.0,0.0,0.0,0.0,0.0,0.0,0.0,0.0,0.0,0.0,0.0,0.0,0.0,0.0,0.0,0.0,0.0,0.0,0.0,0.0,5.7474,6.5858,7.0197,7.0234,7.1692,7.1208,6.8473,6.4971,5.9956,0.0,0.0,0.0,0.0,0.0,0.0,0.0,0.0,0.0,0.0,0.0,0.0,0.0,0.0,0.0,0.0,0.0,0.0,0.0,0.0,0.0,0.0,0.0,0.0,0.0,0.0,0.0,0.0,0.0,0.0,0.0,0.0,0.0,0.0,0.0,0.0,0.0,0.0,0.0,0.0,0.0,6.0637,6.2204,6.3847,6.4611,0.0,0.0,6.3701,6.3785,6.3893,6.2326,5.7243,0.0,0.0,0.0,0.0,0.0,0.0,0.0,0.0,0.0,0.0,0.0,0.0,0.0,0.0,0.0,0.0,0.0,0.0,0.0,0.0,0.0,0.0,0.0,0.0,0.0,0.0,0.0,0.0,0.0,0.0,0.0,0.0,0.0,0.0,0.0,0.0,0.0,0.0,0.0,0.0,0.0,0.0,0.0,0.0,0.0,0.0,0.0,0.0,0.0,0.0,0.0,0.0,0.0,5.1016,5.925,6.728,7.1599,7.2045,7.3111,7.2648,7.0553,6.8649,6.4158,0.0,0.0,0.0,0.0,0.0,0.0,0.0,0.0,0.0,0.0,0.0,0.0,0.0,0.0,0.0,0.0,0.0,0.0,0.0,0.0,0.0,0.0,0.0,0.0,0.0,0.0,0.0,0.0,3.1748,3.1862,3.2203,0.0,0.0,0.0,0.0,0.0,0.0,0.0,0.0,0.0,0.0,6.4076,6.5757,6.8317,0.0,0.0,6.8822,6.844,6.7446,6.6835,6.4771,5.9765,5.4562,0.0,0.0,0.0,0.0,0.0,0.0,0.0,0.0,0.0,0.0,0.0,0.0,0.0,0.0,0.0,0.0,0.0,0.0,0.0,0.0,0.0,0.0,0.0,0.0,0.0,0.0,0.0,0.0,0.0,0.0,0.0,0.0,0.0,0.0,0.0,0.0,0.0,0.0,0.0,0.0,0.0,0.0,0.0,0.0,0.0,0.0,0.0,0.0,0.0,0.0,0.0,0.0,5.2123,6.0716,6.8466,7.2794,7.3583,7.4326,7.401,7.248,7.1297,6.7391,0.0,0.0,0.0,0.0,0.0,0.0,0.0,0.0,0.0,0.0,0.0,0.0,0.0,0.0,0.0,0.0,0.0,0.0,0.0,0.0,0.0,0.0,0.0,0.0,0.0,0.0,0.0,0.0,3.396,3.3727,3.3463,0.0,0.0,0.0,0.0,0.0,0.0,0.0,0.0,0.0,0.0,6.6178,6.8356,7.1573,7.356,7.2911,7.2834,7.2147,7.0228,6.8585,6.5994,6.1485,0.0,0.0,0.0,0.0,0.0,0.0,0.0,0.0,0.0,0.0,0.0,0.0,0.0,0.0,0.0,0.0,0.0,0.0,0.0,0.0,0.0,0.0,0.0,0.0,0.0,0.0,0.0,0.0,0.0,0.0,3.0726,0.0,0.0,0.0,0.0,0.0,0.0,0.0,0.0,0.0,0.0,0.0,0.0,0.0,0.0,0.0,0.0,0.0,0.0,0.0,0.0,0.0,0.0,5.3073,6.1586,6.9365,7.3698,7.4501,7.5261,7.5278,7.4356,7.2693,6.927,6.3887,0.0,0.0,0.0,0.0,0.0,0.0,0.0,0.0,0.0,0.0,0.0,0.0,0.0,0.0,0.0,0.0,0.0,0.0,0.0,0.0,0.0,0.0,0.0,0.0,0.0,0.0,3.733,3.6867,3.6023,0.0,0.0,0.0,0.0,0.0,0.0,0.0,0.0,0.0,0.0,6.1631,6.6636,6.9876,7.3284,7.5471,7.5433,7.5395,7.4516,7.1994,6.8852,6.5566,0.0,0.0,0.0,0.0,0.0,0.0,0.0,0.0,0.0,0.0,0.0,0.0,0.0,0.0,0.0,0.0,0.0,0.0,0.0,0.0,0.0,0.0,0.0,0.0,0.0,0.0,0.0,3.9787,3.9371,0.0,0.0,0.0,0.0,0.0,0.0,0.0,0.0,0.0,0.0,0.0,5.6854,5.7418,0.0,0.0,0.0,0.0,0.0,0.0,0.0,0.0,0.0,0.0,0.0,0.0,5.4491,6.2535,7.1321,7.5966,7.6235,7.7635,7.7667,7.6218,7.5627,7.0965,6.1831,0.0,0.0,0.0,0.0,0.0,0.0,0.0,0.0,0.0,0.0,0.0,0.0,0.0,0.0,0.0,0.0,0.0,0.0,0.0,0.0,0.0,0.0,0.0,0.0,0.0,3.7712,0.0,0.0,0.0,0.0,0.0,0.0,0.0,0.0,0.0,0.0,0.0,5.376,5.8504,6.3701,6.8058,7.0877,7.5165,7.784,0.0,0.0,0.0,0.0,0.0,0.0,0.0,0.0,0.0,0.0,0.0,0.0,0.0,0.0,6.228,5.9255,5.8453,5.8001,5.7122,0.0,0.0,0.0,0.0,0.0,0.0,0.0,0.0,0.0,0.0,0.0,0.0,0.0,0.0,0.0,0.0,4.3364,0.0,0.0,0.0,0.0,0.0,0.0,0.0,0.0,6.0856,6.4294,6.5668,6.6263,6.6972,0.0,6.6674,6.1486,0.0,0.0,0.0,0.0,0.0,0.0,0.0,0.0,5.6723,6.4726,7.3197,7.7687,7.8038,7.9405,7.9326,7.7609,7.6121,7.1306,6.285,5.6966,5.0891,0.0,0.0,0.0,0.0,0.0,0.0,0.0,0.0,0.0,0.0,0.0,0.0,0.0,0.0,0.0,0.0,0.0,0.0,0.0,0.0,0.0,0.0,0.0,4.0501,0.0,0.0,0.0,0.0,0.0,0.0,0.0,0.0,0.0,5.1117,5.4518,5.8498,6.2128,6.6178,6.9884,7.3025,0.0,0.0,0.0,0.0,0.0,0.0,0.0,6.7255,6.7255,6.656,6.6636,6.8669,7.0151,7.1642,7.3284,0.0,0.0,6.8615,6.7477,6.7171,6.6904,6.6834,6.6871,6.7112,6.8261,6.9903,0.0,0.0,0.0,0.0,0.0,0.0,0.0,0.0,5.5559,5.4728,0.0,5.0441,0.0,0.0,0.0,0.0,0.0,5.0789,0.0,0.0,6.8941,7.2651,7.3508,7.5071,7.5463,7.472,7.4564,7.2768,6.8943,5.8559,0.0,0.0,0.0,0.0,0.0,0.0,5.9652,6.8004,7.4956,7.8936,7.9834,8.0654,8.0265,7.8469,7.4472,7.0675,6.7078,6.2106,5.7329,5.2985,4.7926,0.0,0.0,0.0,0.0,0.0,0.0,0.0,0.0,0.0,0.0,0.0,0.0,0.0,0.0,0.0,0.0,0.0,0.0,0.0,0.0,4.5512,0.0,0.0,0.0,0.0,0.0,0.0,0.0,0.0,0.0,0.0,5.7587,6.0676,6.4069,6.6598,0.0,0.0,0.0,0.0,8.1194,8.277,8.2378,8.0964,7.8519,7.5348,7.3246,7.3369,0.0,0.0,7.7984,7.9092,7.9636,7.9713,8.1003,8.1041,7.7755,7.6227,7.5815,7.6494,7.6494,7.7067,7.787,7.8119,7.9694,6.9081,0.0,0.0,0.0,0.0,6.2435,6.4503,6.6067,6.55,6.4975,6.4253,5.9898,0.0,0.0,0.0,0.0,0.0,0.0,6.3556,6.8355,7.3939,7.7023,7.7881,7.8975,7.9367,7.9094,7.8507,7.7062,7.472,6.9217,6.1799,5.2742,0.0,0.0,0.0,0.0,6.1953,6.9839,7.675,8.0968,8.2371,8.2645,8.1983,8.0304,7.7254,7.4595,7.2331,6.8502,6.4165,5.9282,5.47,0.0,0.0,0.0,0.0,0.0,0.0,0.0,0.0,0.0,0.0,0.0,0.0,0.0,0.0,0.0,0.0,0.0,0.0,0.0,4.9398,4.978,4.8945,0.0,0.0,0.0,0.0,0.0,0.0,0.0,0.0,0.0,6.8967,6.8577,6.9188,0.0,0.0,7.5768,7.8222,8.1241,8.3372,8.384,0.0,0.0,0.0,7.9742,7.8978,8.0773,8.3219,8.5626,8.7536,8.7575,8.7536,8.8033,8.8148,8.7717,8.6686,8.341,8.1127,8.1165,8.1203,8.128,8.1585,8.2684,8.4136,8.0598,7.3113,7.038,6.9249,6.9522,7.2055,7.4123,7.5686,7.5148,7.4923,7.462,7.0257,6.7179,6.5037,6.1486,0.0,0.0,0.0,7.0504,7.4406,7.8507,8.0888,8.1747,8.2254,8.2489,8.2489,8.1981,8.1004,7.96,7.6906,7.1675,6.3829,0.0,0.0,5.6802,6.0354,6.5468,7.2143,7.835,8.202,8.2996,8.2684,8.2022,8.1005,7.8468,7.6594,7.554,7.2221,6.8669,6.4881,6.0302,5.4942,0.0,0.0,0.0,0.0,0.0,0.0,0.0,0.0,0.0,0.0,0.0,3.3521,3.4213,0.0,0.0,0.0,4.6929,5.1172,5.4343,5.5274,0.0,0.0,0.0,0.0,0.0,0.0,0.0,6.652,7.0845,7.4481,7.696,7.6892,7.659,7.6694,7.8137,7.9818,8.1538,0.0,8.5942,8.6237,8.6581,8.6505,8.5626,8.4365,8.425,8.6428,8.8721,9.0669,9.2007,9.1892,9.1778,9.2121,9.193,9.1586,9.1586,8.9027,8.6887,8.6543,8.6477,8.6581,8.6925,8.7804,8.8749,8.9481,8.7489,8.1166,7.8314,7.8155,8.0655,8.2606,8.4089,8.4089,8.4128,8.3857,8.0538,7.757,7.4798,6.9959,0.0,7.1636,7.3939,7.6789,8.0107,8.2567,8.4128,8.4907,8.4946,8.4946,8.4868,8.4829,8.4362,8.3386,8.1826,7.9834,7.714,6.617,6.1719,6.3828,6.6172,6.984,7.4876,7.9795,8.2331,8.2411,8.163,8.1124,8.0966,7.8585,7.7296,7.714,7.4095,7.1597,6.9762,6.5068,6.0024,5.4748,0.0,0.0,0.0,0.0,0.0,0.0,0.0,0.0,0.0,0.0,0.0,0.0,0.0,0.0,0.0,5.3004,0.0,5.9765,6.1543,0.0,0.0,0.0,5.9208,6.2458,6.6507,7.0246,7.3461,0.0,0.0,8.2275,0.0,8.5042,8.1862,8.2789,8.4394,8.5923,8.7615,8.8866,8.9641,9.0461,9.0718,8.9926,8.9151,8.9179,9.0669,9.1625,9.2427,9.3153,9.3306,9.3306,9.3344,9.3306,9.3306,9.3306,9.3077,9.3038,9.2083,9.1816,9.1969,9.2427,9.2695,9.3,9.3652,9.3144,9.1504,8.8563,8.5142,8.7017,8.8461,8.9437,8.9437,8.9437,8.9242,8.5807,8.2489,7.9328,7.679,7.6712,7.8585,7.917,8.0577,8.2684,8.4597,8.5573,8.5807,8.6469,8.643,8.5768,8.5104,8.4362,8.3465,8.245,8.1356,7.9912,7.5853,7.2846,7.0932,7.1439,7.3938,7.8429,8.1004,8.2606,8.3191,8.2996,8.2295,8.1044,7.9756,7.878,7.8118,7.6672,7.5071,7.3315,7.0267,6.5892,6.0114,5.4957,0.0,0.0,0.0,0.0,0.0,0.0,0.0,0.0,0.0,4.2991,4.5353,0.0,5.1129,0.0,5.8204,6.2866,6.518,6.7506,0.0,0.0,6.7275,6.7712,7.0368,7.3745,7.6722,7.8747,8.1969,8.4807,8.6677,8.7934,8.8912,8.9343,9.0254,9.1087,9.1547,9.2418,9.3184,9.3366,9.3945,9.4467,9.415,9.401,9.3803,9.4338,9.4529,9.4758,9.4949,9.4987,9.4987,9.4987,9.5025,9.5025,9.4949,9.4987,9.4911,9.4643,9.3688,9.2847,9.3077,9.365,9.4136,9.6236,9.6275,9.6236,9.4589,9.1997,9.2193,9.2545,9.2974,9.2974,9.3209,9.3442,9.1139,8.8641,8.6103,8.4736,8.4463,8.4971,8.5003,8.5507,8.6444,8.7373,8.7837,8.7876,8.8305,8.7915,8.6664,8.6196,8.5298,8.4089,8.3619,8.3191,8.2684,8.1747,8.0302,7.8427,7.6905,7.7685,8.081,8.2526,8.3621,8.405,8.3699,8.2879,8.1591,8.0341,7.9092,7.7844,7.7335,7.632,7.4564,7.2456,6.8903,6.3671,5.8519,5.274,0.0,0.0,0.0,0.0,0.0,0.0,0.0,0.0,0.0,0.0,0.0,5.7746,5.9681,6.3929,6.772,7.0617,7.3873,7.5934,7.626,7.6126,7.6707,7.8426,8.083,8.2863,8.4161,8.6956,8.9184,9.0144,9.1287,9.2334,9.3332,9.4168,9.436,9.3629,9.4146,9.4711,9.4711,9.5309,9.5789,9.5746,9.5643,9.5609,9.5609,9.5609,9.5609,9.5609,9.5609,9.5609,9.5609,9.5609,9.5609,9.5609,9.5609,9.5609,9.5495,9.4872,9.4299,9.4223,9.4567,9.4911,9.8035,9.8035,9.8035,9.8035,9.7918,9.6396,9.5653,9.5416,9.5455,9.5806,9.6351,9.5611,9.4322,9.2721,9.1627,9.0651,8.983,8.9468,8.9384,8.95,8.9603,8.9711,8.983,8.9947,8.9164,8.7601,8.7328,8.643,8.4985,8.4868,8.4868,8.4946,8.4985,8.5024,8.4985,8.2059,8.12,8.2604,8.4167,8.4946,8.4946,8.4128,8.323,8.2292,8.0498,7.8663,7.6867,7.6789,7.6008,7.4408,7.2846,7.0191,6.6249,6.1369,5.6372,0.0,4.9649,0.0,0.0,0.0,0.0,0.0,0.0,0.0,0.0,6.1921,6.4292,6.7473,7.0112,7.2942,7.6082,8.0002,8.2716,8.3488,8.4105,8.4785,8.5552,8.7002,8.8246,8.9016,9.1211,9.2751,9.2896,9.4226,9.5179,9.5344,9.5894,9.5799,9.4427,9.4579,9.5001,9.4905,9.5427,9.5814,9.5708,9.5664,9.5664,9.5653,9.5664,9.5643,9.5632,9.5632,9.5621,9.5609,9.5609,9.5609,9.5609,9.5609,9.5609,9.5598,9.5522,9.5484,9.5484,9.5637,9.5751,9.9804,9.9804,9.9804,9.9804,9.9765,9.9452,9.8512,9.7212,9.7212,9.6899,9.639,9.6235,9.522,9.3541,9.1275,8.9752,8.8853,8.6734,8.6181,8.6883,8.757,8.8265,8.8969,8.9672,8.9437,8.8383,8.7017,8.6197,8.5846,8.5143,8.5143,8.5846,8.5846,8.6197,8.682,0.0,0.0,0.0,8.5338,8.5846,8.5807,8.4987,8.3814,8.2292,7.9912,0.0,7.5149,7.4993,7.4525,7.3586,7.2573,0.0,0.0,0.0,0.0,0.0,0.0,0.0,0.0,0.0,0.0,0.0,7.0019,7.0345,6.8561,7.0539,7.2755,7.4775,7.7308,7.9643,8.1702,8.4426,8.6455,8.718,8.7351,8.7664,8.8466,8.9918,9.0948,9.1141,9.2765,9.4126,9.479,9.5682,9.6455,9.7031,9.7219,9.7125,9.6732,9.6222,9.5992,9.5992,9.5973,9.5999,9.5859,9.5839,9.5818,9.5849,9.5849,9.5797,9.5751,9.5768,9.5735,9.5659,9.5609,9.5637,9.5637,9.5609,9.5713,9.5648,9.5637,9.5609,9.5637,9.6172,9.6668,10.0312,0.0,10.0312,10.0312,0.0,10.0312,9.9804,9.9019,9.9449,9.9137,9.8316,9.7887,9.6285,9.3785,9.1598,8.9722,8.8004,8.581,8.5533,8.6783,8.806,8.9383,9.0672,9.1914,9.1638,8.9959,8.8662,8.7603,8.6744,8.6313,8.6744,8.8032,8.8461,8.8891,8.9241,8.8032,8.6978,8.6078,8.6547,8.6744,8.6705,8.5885,8.4636,8.2918,0.0,0.0,0.0,0.0,0.0,0.0,0.0,0.0,0.0,0.0,0.0,6.379,6.3517,6.3555,6.371,6.7146,7.1013,7.4875,7.8702,7.959,7.6552,7.7916,7.9591,8.1306,8.3452,8.5246,8.657,8.8948,9.0602,9.0924,9.1276,9.1615,9.2019,9.2986,9.3645,9.38,9.4802,9.5888,9.6631,9.697,9.7493,9.8138,9.7842,9.7519,9.7442,9.6826,9.6308,9.6222,9.6136,9.6068,9.5931,9.5872,9.591,9.5872,9.5872,9.5859,9.5793,9.6155,9.6342,9.632,9.6554,9.6821,9.6859,9.6821,9.6859,9.6821,9.6821,9.6821,9.6821,9.6898,9.6898,10.0742,10.0742,10.0742,10.0781,10.0781,10.0742,10.0859,10.1015,0.0,0.0,0.0,9.9531,9.7422,9.4258,9.2226,9.0,8.7617,8.574,8.5816,8.7457,8.9209,9.0923,9.2642,9.431,9.3913,9.1766,9.0697,8.9477,8.8108,8.7796,8.8421,8.9947,9.0882,9.1311,9.1194,8.9711,8.8501,8.7679,8.764,8.764,8.7601,8.6783,8.5573,8.3974,8.2879,8.0808,7.7726,7.8116,7.7727,7.6361,7.6947,7.675,7.5501,7.4797,7.3471,7.1441,7.1364,7.187,7.2923,7.5188,7.7999,8.1278,8.5026,8.608,8.3424,8.3933,8.5065,8.6666,8.8344,8.9711,9.061,9.2678,9.4029,9.3946,9.4481,9.4768,9.4772,9.5384,9.5675,9.5864,9.6447,9.7332,9.8031,9.8161,9.8461,9.9023,9.8652,9.7778,9.749,9.6788,9.626,9.6194,9.6146,9.6098,9.5991,9.5971,9.5961,9.5981,9.5971,9.5959,9.5982,9.6514,9.6969,9.6921,9.7603,9.8024,9.8116,9.804,9.8143,9.812,9.8071,9.8071,9.8032,9.77,9.7432,10.2539,10.2539,10.2539,10.2539,10.2539,10.2539,10.2969,10.3515,10.2187,10.1133,10.0273,10.0195,9.8633,9.5976,9.2734,9.0312,8.8398,8.6014,8.5817,0.0,8.9209,9.0924,9.2642,9.431,9.4538,9.3405,9.1868,9.0999,9.0609,8.9242,8.9008,9.0025,9.0882,9.135,9.1233,9.0296,8.9398,8.854,8.8501,8.8501,8.8501,8.7679,8.6742,8.569,8.3504,8.1396,7.9442,7.878,7.8274,7.804,7.8157,7.843,7.8936,7.8858,7.8624,7.8311,7.8936,8.0029,8.1591,8.3426,8.5651,8.8307,9.0454,9.0218,8.7054,8.7445,8.8383,8.94,9.0999,9.2326,9.3224,9.4278,9.4973,9.4948,9.4958,9.4964,9.5047,9.5704,9.618,9.618,9.6838,9.7623,9.8384,9.8925,9.9475,10.0175,9.9881,9.9281,9.7787,9.6826,9.6355,9.6269,9.626,9.626,9.6424,9.628,9.6386,9.6241,9.6347,9.6376,9.6279,9.695,9.7408,9.7239,9.8012,9.8451,9.8402,9.8277,9.8374,9.8334,9.83,9.8262,9.83,9.8617,9.8999,10.289,10.289,10.289,10.289,10.289,10.289,10.3125,10.3475,10.3121,10.2498,10.1719,10.1211,9.957,9.7031,9.4531,9.2461,9.0742,8.8632,8.8593,9.0272,9.2029,9.3474,9.4801,9.6435,9.651,9.5221,9.4468,9.3837,9.333,9.2549,9.2354,9.2743,9.2697,9.2649,9.2561,9.135,9.0492,9.0062,8.8735,8.7991,8.7991,8.7601,8.6976,8.6119,8.4909,8.3543,8.1825,8.1356,8.0966,8.0537,8.0927,8.1358,8.1747,8.2645,8.3152,8.3191,8.4011,8.5026,8.6236,8.7486,8.9088,9.1157,9.2055,9.2326,9.1663,9.1936,9.2326,9.2756,9.3927,9.4786,9.5176,9.5996,9.65,9.6531,9.6481,9.647,9.65,9.6761,9.6984,9.7062,9.7335,9.7859,9.8606,9.8908,9.955,10.0509,10.0543,9.9604,9.7864,9.7644,9.748,9.7096,9.7326,9.7634,9.7634,9.7634,9.7673,9.7673,9.7634,9.7596,9.7538,9.8172,9.8592,9.8643,9.9236,9.973,9.9671,9.9638,9.9583,9.9492,9.9458,9.9446,9.9534,9.9801,10.0031,10.3476,10.3476,10.3476,10.3476,10.3476,10.3476,10.3476,10.3509,10.3888,10.3695,10.3039,10.2222,10.0505,9.8201,9.6522,9.4922,9.3398,9.1875,9.1992,9.3515,9.5078,9.6133,9.6875,9.8318,9.8199,9.6792,9.6513,9.604,9.5455,9.5181,9.5102,9.5019,9.4229,9.3826,9.3771,9.2326,9.1507,9.1194,8.9084,8.7991,8.7991,8.7991,8.7681,8.7056,8.698,8.6353,8.5065,8.4792,8.4362,8.3814,8.4323,8.4675,8.4754,8.6119,8.7056,8.729,8.7913,8.8733,8.9789,9.0649,9.1703,9.2992,9.3458,9.4239,9.5488,9.6074,9.5996,9.5606,9.5879,9.6386,9.6699,9.744,9.7987,9.7987,9.8182,9.8297,9.826,9.8299,9.8299,9.8299,9.826,9.8635,9.9177,9.9313,9.9817,10.0895,10.0887,9.9994,9.8664,9.8909,9.9045,9.8508,9.8557,9.8682,9.8788,9.8711,9.8711,9.8788,9.8711,9.8606,9.8692,9.9287,9.9805,9.9772,10.0443,10.0823,10.0869,10.0837,10.0705,10.0516,10.0471,10.0524,10.0451,10.0489,10.0566,10.5234,10.5273,10.5195,10.5273,10.5195,10.5195,10.5153,10.4982,10.4294,10.3904,10.3677,10.3017,10.1674,9.9893,9.8224,9.7022,9.609,9.5156,9.5273,9.6211,9.7031,9.7539,9.7773,9.8592,9.8512,9.7612,9.6865,9.651,9.6315,9.5534,9.51,9.501,9.4225,9.3828,9.3694,9.2875,9.2055,9.1311,9.0296,8.975,8.975,8.975,8.9712,8.9673,8.9595,8.9595,8.9127,8.8657,8.8188,8.811,8.8071,8.8188,8.8266,8.9086,8.9986,9.0687,9.0882,9.1624,9.3146,9.4161,9.4591,9.4942,9.623,9.7128,9.7479,9.8846,9.8768,9.705,9.6425,9.6894,9.7518,9.8377,9.8883,9.8922,9.947,10.0056,9.9939,10.0056,10.0056,10.0056,9.9861,10.036,10.0763,10.0924,10.1252,10.1706,10.1757,10.1257,10.0295,10.0656,10.0796,10.0016,9.9419,9.8961,9.8952,9.8836,9.9019,9.8942,9.8865,9.8971,9.9221,9.9615,10.0077,10.0287,10.0692,10.119,10.1157,10.1137,10.1053,10.0798,10.073,10.0719,10.0639,10.0604,10.0604,10.5406,10.5367,10.5406,10.5406,10.5367,10.5367,10.5348,10.519,10.428,10.3822,10.3668,10.2876,10.2174,10.1551,10.0883,10.0402,10.0185,9.9882,9.9961,10.0312,10.0625,10.0508,10.0078,10.0312,10.0077,9.9218,9.8357,9.7929,9.7693,9.6562,9.5894,9.577,9.5027,9.4593,9.4543,9.4191,9.3879,9.3567,9.3215,9.3016,9.2772,9.1006,8.9986,8.9986,8.9986,8.9986,8.9986,8.9633,8.9477,8.9477,8.9477,8.9477,8.9477,9.0767,9.1625,9.2053,9.299,9.3849,9.4512,9.4903,9.5332,9.584,9.6972,9.7909,9.8455,9.9588,9.9783,9.8963,9.869,9.8885,9.9197,9.9548,9.9783,9.9822,10.0095,10.0329,10.0329,10.0329,10.0329,10.0329,10.0329,10.0444,10.0781,10.1141,10.1415,10.1694,10.1888,10.181,10.0988,10.137,10.1394,10.0681,10.0359,10.0421,10.024,10.025,10.025,10.0289,10.0289,10.0289,10.0289,10.0481,10.0827,10.0789,10.1058,10.125,10.1188,10.1206,10.1144,10.0924,10.0719,10.065,10.0604,10.0604,10.0604,10.5907,10.5907,10.5907,10.5907,10.5868,10.5634,10.5522,10.5296,10.4205,10.3681,10.3528,10.2628,10.2317,10.2433,10.2512,10.2659,10.2776,10.284,10.2886,10.2849,10.2889,10.2422,10.1679,10.1601,10.1133,10.0273,9.9375,9.8828,9.8515,9.7226,9.6445,9.6286,9.5583,9.515,9.5104,9.5103,9.5103,9.5064,9.5103,9.5099,9.4734,9.2692,9.1396,9.1391,9.1391,9.1391,9.1391,9.1391,9.1391,9.1391,9.1391,9.1391,9.1469,9.2562,9.3302,9.3693,9.5215,9.6152,9.6152,9.6386,9.6777,9.744,9.826,9.9002,9.9666,10.0485,10.0954,10.0954,10.0993,10.0837,10.0329,10.0485,10.0603,10.0642,10.0798,10.0993,10.1032,10.0993,10.1032,10.0993,10.1149,10.0993,10.1065,10.1505,10.184,10.1816,10.2097,10.2221,10.1543,10.1744,10.1809,10.1039,10.1363,10.1478,10.1356,10.1164,10.1279,10.1279,10.1164,10.1125,10.1279,10.1279,10.1279,10.1048,10.1241,10.1269,10.1258,10.1218,10.1167,10.0979,10.0798,10.0708,10.0742,10.0696,10.0662,10.7406,10.7367,10.7367,10.7328,10.7328,10.6514,10.6152,10.606,10.4239,10.3456,10.3321,10.2359,10.2017,10.2139,10.2381,10.2575,10.268,10.2774,10.2803,10.278,10.2794,10.2373,10.1637,10.1601,10.1172,10.039,9.9453,9.8594,9.7812,9.6953,9.6445,9.6364,9.5778,9.5307,9.534,9.5379,9.5182,9.5379,9.534,9.5178,9.5166,9.4967,9.4765,9.4791,9.4786,9.4631,9.4709,9.4825,9.4786,9.4825,9.4747,9.4788,9.4825,9.4864,9.5254,9.6191,9.779,9.8727,9.8766,9.9314,9.9861,10.0095,10.0563,10.1268,10.1149,10.193,10.2398,10.2593,10.2554,10.2047,10.0915,10.1188,10.1424,10.1502,10.2164,10.2515,10.2593,10.2398,10.2633,10.2554,10.2437,10.2398,10.2552,10.269,10.2626,10.2554,10.2634,10.2599,10.2437,10.2391,10.2254,10.2088,10.1904,10.1749,10.1413,10.1308,10.1299,10.1279,10.1279,10.1279,10.1279,10.1279,10.1279,10.1279,10.1279,10.1279,10.1279,10.1288,10.1238,10.1126,10.1011,10.0946,10.0864,10.082,10.0775,10.7432,10.7432,10.7432,10.7432,10.7393,10.7082,10.6921,10.6723,10.4965,10.4135,10.3836,10.2562,10.1951,10.2068,10.2183,10.2332,10.2447,10.2493,10.2593,10.2678,10.2677,10.255,10.2333,10.1875,10.1484,10.0976,9.9687,9.8554,9.7773,9.7383,9.7265,9.7343,9.7538,9.7616,9.7616,9.7576,9.7576,9.7539,9.7068,9.6753,9.6708,9.6746,9.7012,9.7459,9.5964,9.5098,9.5098,9.5606,9.5918,9.5957,9.6464,9.6503,9.5996,9.5918,9.6308,9.7206,9.8375,9.9,9.9117,9.9822,10.0329,10.0368,10.1032,10.158,10.1658,10.2281,10.2789,10.2906,10.3374,10.3218,10.2906,10.2515,10.232,10.2359,10.2593,10.2789,10.2789,10.2789,10.2789,10.2789,10.2789,10.2789,10.2787,10.2781,10.2774,10.2765,10.2756,10.2743,10.273,10.264,10.2519,10.2386,10.2217,10.1962,10.1614,10.1487,10.1404,10.1347,10.1279,10.1279,10.1279,10.1279,10.1279,10.1279,10.1279,10.1279,10.1279,10.1278,10.1248,10.1208,10.1095,10.1064,10.0962,10.0919,10.0842,10.7248,10.7241,10.6969,10.7047,10.7163,10.6666,10.6554,10.6543,10.4911,10.4116,10.3793,10.2539,10.1928,10.1981,10.2032,10.2073,10.2183,10.2294,10.2456,10.2585,10.2582,10.2677,10.2674,10.2263,10.2031,10.1797,10.0547,9.9375,9.8633,9.8554,9.8515,9.8594,9.9179,9.9414,9.9375,9.9179,9.8984,9.8867,9.8125,9.7695,9.7692,9.7691,9.8114,9.8602,9.7261,9.6511,9.6777,9.7362,9.7636,9.7751,9.8221,9.826,9.7751,9.7675,9.7909,9.8533,9.9353,9.9822,9.9939,10.0876,10.1539,10.1578,10.2281,10.2752,10.2791,10.3296,10.3608,10.3804,10.4116,10.4547,10.435,10.3726,10.3218,10.3179,10.2984,10.2789,10.2789,10.2789,10.2789,10.2789,10.2789,10.2789,10.2789,10.2789,10.2787,10.2789,10.2789,10.2789,10.2783,10.2756,10.2707,10.2603,10.242,10.2189,10.1941,10.1757,10.1505,10.1385,10.1337,10.1327,10.1279,10.1279,10.1279,10.1279,10.1279,10.1279,10.1298,10.1258,10.1238,10.1218,10.1208,10.1139,10.1067,10.0994,10.0951,10.7011,10.6912,10.6067,10.6331,10.6812,10.5573,10.5077,10.5588,10.411,10.3499,10.3429,10.233,10.1928,10.1928,10.1973,10.1951,10.2008,10.2201,10.2365,10.25,10.2546,10.2639,10.2778,10.2695,10.2539,10.2461,10.1836,10.1015,10.0117,10.0039,10.0078,10.0195,10.0234,10.0312,10.0312,9.9648,9.9179,9.9062,9.8437,9.789,9.7731,9.7926,9.8389,9.9074,9.8992,9.9296,10.0138,10.0175,10.0056,10.0134,10.0251,10.029,10.0095,10.0017,10.0173,10.0173,10.0915,10.1385,10.1541,10.2867,10.3687,10.3804,10.4702,10.4975,10.4897,10.5053,10.5131,10.5131,10.5287,10.5404,10.5287,10.4741,10.4155,10.3962,10.3296,10.2789,10.2789,10.2789,10.2789,10.2789,10.2789,10.2789,10.2789,10.2789,10.2789,10.2789,10.2789,10.2789,10.2787,10.2807,10.2743,10.2704,10.2542,10.2401,10.22,10.2002,10.171,10.1468,10.1366,10.1347,10.1289,10.1279,10.1279,10.1279,10.1279,10.1279,10.1279,10.1288,10.1288,10.124,10.124,10.123,10.118,10.1119,10.1137,10.6995,10.6965,10.6724,10.6724,10.6926,10.6415,10.6376,10.6376,10.479,10.4048,10.3831,10.2652,10.2089,10.2105,10.2145,10.2171,10.2177,10.2264,10.2328,10.2376,10.2417,10.2593,10.2683,10.2299,10.1719,10.1133,10.0859,10.0625,10.039,10.0351,10.0312,10.039,10.0937,10.1172,10.1172,10.0937,10.0781,10.0664,9.9922,9.9492,9.9492,9.9492,9.992,10.0694,10.081,10.1193,10.1912,10.143,10.1151,10.1149,10.1696,10.1774,10.1188,10.0603,10.0329,10.0407,10.1071,10.1502,10.1737,10.3103,10.4157,10.4272,10.4936,10.5365,10.5404,10.5443,10.5482,10.5521,10.5912,10.6302,10.6224,10.6068,10.5365,10.4235,10.3335,10.2906,10.2945,10.2867,10.2789,10.2789,10.2789,10.2789,10.2828,10.2867,10.2945,10.2945,10.2906,10.2906,10.2865,10.2978,10.2779,10.2763,10.2659,10.2702,10.2585,10.2334,10.1955,10.1661,10.1541,10.1385,10.1299,10.1279,10.1279,10.1279,10.1279,10.1279,10.1279,10.1279,10.1279,10.1279,10.1269,10.1259,10.1308,10.1278,10.1228,10.6686,10.6926,10.6299,10.6454,10.6926,10.6686,10.6724,10.6686,10.5138,10.4466,10.4185,10.2823,10.2144,10.2228,10.2305,10.2342,10.2342,10.2342,10.2362,10.2411,10.2429,10.2596,10.2724,10.2338,10.1836,10.1367,10.1289,10.1289,10.1289,10.1289,10.1289,10.1406,10.1836,10.207,10.2031,10.1758,10.1601,10.1484,10.0703,10.0312,10.0312,10.0312,10.0703,10.1442,10.1597,10.202,10.2661,10.226,10.1976,10.2127,10.2828,10.2984,10.2478,10.232,10.2203,10.2281,10.2633,10.2984,10.3101,10.435,10.5055,10.5211,10.5873,10.638,10.638,10.6341,10.6341,10.6458,10.6849,10.72,10.7161,10.6849,10.6185,10.525,10.435,10.3804,10.3765,10.3765,10.3804,10.3843,10.3843,10.3765,10.3765,10.3765,10.3765,10.3765,10.3765,10.3765,10.3765,10.3804,10.3726,10.3602,10.349,10.3397,10.3113,10.2707,10.2239,10.1927,10.1708,10.1505,10.1328,10.1289,10.1279,10.1279,10.1279,10.1279,10.1279,10.1279,10.1279,10.1279,10.1433,10.1317,10.1308,10.1288,10.1248,10.6221,10.6733,10.5216,10.5564,10.681,10.6221,10.6376,10.6647,10.5254,10.4652,10.4379,10.3211,10.2528,10.2552,10.2845,10.2889,10.2612,10.2807,10.2922,10.2929,10.2844,10.285,10.2788,10.2771,10.2656,10.2695,10.2695,10.2734,10.2617,10.2617,10.289,10.2695,10.2695,10.2851,10.2695,10.207,10.1953,10.1914,10.1211,10.0976,10.0937,10.0859,10.1171,10.2028,10.2145,10.2453,10.3061,10.313,10.2963,10.291,10.3491,10.3921,10.4155,10.4897,10.5014,10.4936,10.5287,10.517,10.5443,10.5873,10.6419,10.6499,10.72,10.8018,10.7745,10.7784,10.7784,10.7745,10.794,10.802,10.7825,10.7317,10.6849,10.6653,10.5717,10.5209,10.5326,10.5248,10.5092,10.517,10.5365,10.5326,10.5131,10.5131,10.517,10.517,10.5131,10.5053,10.5053,10.4936,10.5248,10.4964,10.4407,10.4002,10.3686,10.3308,10.2805,10.2262,10.2155,10.2167,10.1813,10.1721,10.1443,10.1395,10.1471,10.1433,10.1548,10.1741,10.1856,10.2058,10.1933,10.151,10.1577,10.1836,10.1711,10.6221,10.6849,10.5796,10.5989,10.6926,10.6733,10.6763,10.6849,10.5835,10.538,10.5353,10.4605,10.4177,10.4413,10.4436,10.4549,10.4432,10.4432,10.4565,10.4553,10.3942,10.3378,10.2965,10.289,10.289,10.289,10.289,10.289,10.289,10.289,10.289,10.289,10.289,10.289,10.289,10.3242,10.3515,10.3633,10.3984,10.3984,10.3984,10.3984,10.4219,10.4414,10.4414,10.4453,10.4717,10.4703,10.4059,10.2947,10.3648,10.4118,10.4274,10.5014,10.556,10.556,10.5521,10.5482,10.5638,10.6341,10.6732,10.6771,10.7708,10.8018,10.8018,10.8605,10.8566,10.833,10.8527,10.8684,10.8137,10.7786,10.7629,10.7473,10.6419,10.556,10.5521,10.5404,10.5404,10.5404,10.5482,10.556,10.556,10.556,10.556,10.556,10.5599,10.5599,10.5756,10.5717,10.5834,10.5521,10.5045,10.4613,10.4244,10.3887,10.3386,10.2746,10.2738,10.3154,10.2825,10.2602,10.2101,10.1701,10.1972,10.202,10.2443,10.2789,10.2866,10.2828,10.2904,10.2789,10.3058,10.3279,10.2818,10.5873,10.6887,10.568,10.5873,10.6918,10.6995,10.6995,10.684,10.6105,10.5836,10.5812,10.5213,10.5029,10.5224,10.5307,10.5369,10.537,10.537,10.5373,10.5261,10.4484,10.3669,10.3086,10.289,10.289,10.289,10.289,10.289,10.289,10.289,10.289,10.289,10.289,10.289,10.2969,10.375,10.4219,10.4336,10.5039,10.5508,10.5508,10.5508,10.5469,10.5508,10.5508,10.5468,10.5386,10.5409,10.4883,10.4287,10.4709,10.5172,10.5248,10.6029,10.6458,10.6497,10.681,10.7044,10.72,10.7825,10.8254,10.8371,10.884,10.8994,10.915,10.9542,10.9503,10.9267,10.9308,10.9035,10.8644,10.8213,10.8018,10.7864,10.7083,10.6497,10.6497,10.6575,10.6497,10.6497,10.6497,10.6497,10.6458,10.6458,10.6458,10.6534,10.6653,10.6653,10.6614,10.6458,10.638,10.6263,10.599,10.5634,10.5277,10.4892,10.4589,10.39,10.3949,10.4303,10.3976,10.3592,10.3048,10.2639,10.2636,10.2789,10.3261,10.3568,10.3482,10.3558,10.3866,10.3943,10.402,10.4251,10.3828,10.5525,10.6849,10.5216,10.5487,10.6887,10.6995,10.7011,10.6857,10.63,10.6088,10.6131,10.5537,10.5617,10.5568,10.6015,10.5859,10.5859,10.6015,10.5781,10.5586,10.4961,10.4219,10.3515,10.3047,10.2929,10.289,10.289,10.289,10.289,10.289,10.289,10.289,10.289,10.289,10.3125,10.3867,10.4297,10.4609,10.5547,10.6054,10.6093,10.6093,10.6093,10.6093,10.6054,10.6015,10.5973,10.5921,10.5905,10.5827,10.6433,10.6499,10.6695,10.7473,10.7864,10.7981,10.841,10.8957,10.9269,10.9659,11.0321,11.0204,11.0243,11.0516,11.036,11.0477,11.0516,11.0204,10.9816,10.9386,10.8879,10.8369,10.8057,10.7979,10.7903,10.7979,10.8018,10.8018,10.8018,10.8018,10.7942,10.7979,10.8018,10.8018,10.794,10.7315,10.7393,10.7393,10.7393,10.7315,10.7393,10.751,10.7161,10.6771,10.6374,10.5934,10.568,10.5297,10.5536,10.5671,10.5199,10.4758,10.4118,10.3769,10.3728,10.3772,10.4031,10.4175,10.4261,10.4443,10.4828,10.4597,10.4328,10.4751,10.4674,10.6028,10.6887,10.5873,10.6028,10.6879,10.7003,10.7036,10.706,10.6928,10.6893,10.7109,10.7071,10.7155,10.7344,10.7304,10.7461,10.7304,10.7265,10.7148,10.6445,10.6289,10.5703,10.4726,10.3672,10.3008,10.3008,10.2969,10.2969,10.2969,10.3125,10.2929,10.3008,10.3164,10.2929,10.3203,10.4492,10.5234,10.5469,10.664,10.7304,10.7304,10.7304,10.7304,10.7304,10.7344,10.7383,10.7617,10.8115,10.8458,10.8216,10.7457,10.7005,10.7161,10.7708,10.8135,10.8369,10.8918,10.9386,10.9464,11.0167,11.0555,11.0672,11.075,11.0516,11.0555,11.1182,11.1143,11.0711,11.0321,10.9659,10.8525,10.8135,10.8018,10.8018,10.8018,10.8018,10.8018,10.8018,10.8018,10.8018,10.8018,10.8018,10.8018,10.8018,10.8018,10.8018,10.8018,10.8018,10.8018,10.8018,10.8018,10.8018,10.7823,10.7317,10.7003,10.6684,10.6558,10.639,10.6643,10.6848,10.6343,10.5977,10.5353,10.4992,10.4756,10.4855,10.4918,10.5358,10.552,10.5674,10.5713,10.552,10.5405,10.5597,10.5482,10.6221,10.6887,10.6067,10.6183,10.6926,10.7003,10.7068,10.7151,10.7181,10.7342,10.7528,10.7691,10.782,10.8022,10.8008,10.7969,10.8008,10.7969,10.7539,10.6836,10.664,10.625,10.5547,10.4687,10.414,10.4101,10.414,10.4101,10.4101,10.4062,10.4219,10.4101,10.4101,10.4258,10.4258,10.5351,10.5976,10.6289,10.7304,10.8008,10.8008,10.8008,10.8008,10.8008,10.8008,10.8008,10.8008,10.8782,10.9165,10.9157,10.8784,10.8488,10.8488,10.8879,10.9111,10.9306,10.9972,11.044,11.0674,11.1221,11.1768,11.1689,11.1729,11.1729,11.1768,11.2197,11.2197,11.165,11.0909,10.9814,10.8252,10.8018,10.8018,10.8018,10.8018,10.8018,10.8018,10.8018,10.8018,10.8018,10.8018,10.8018,10.8018,10.8018,10.8018,10.8018,10.8018,10.8018,10.8018,10.8018,10.8018,10.8018,10.8018,10.7784,10.7512,10.7354,10.7393,10.7309,10.738,10.7475,10.7337,10.6988,10.6624,10.6194,10.5736,10.5666,10.5792,10.6276,10.6426,10.6213,10.6136,10.6318,10.6318,10.6059,10.5944,10.6379,10.6998,10.6263,10.6417,10.6998,10.7091,10.7151,10.7248,10.7261,10.7417,10.7628,10.7795,10.7892,10.7995,10.8006,10.8008,10.8008,10.7969,10.7578,10.7109,10.7031,10.6719,10.6133,10.5976,10.5898,10.5859,10.5429,10.5351,10.5312,10.5469,10.5156,10.539,10.5429,10.5195,10.5547,10.6211,10.6601,10.6719,10.75,10.8008,10.8008,10.8008,10.8047,10.832,10.832,10.8476,10.8789,10.9408,10.9827,10.9746,11.0461,11.0835,11.0828,11.0555,11.0516,11.0477,11.1104,11.1455,11.1611,11.2353,11.2941,11.3097,11.3058,11.3019,11.3019,11.2902,11.2902,11.2509,11.165,11.0128,10.8486,10.8564,10.8447,10.8291,10.8252,10.8135,10.8018,10.8018,10.8018,10.8018,10.8018,10.8018,10.8018,10.8018,10.8018,10.8018,10.8018,10.8018,10.8018,10.8018,10.8018,10.8018,10.8018,10.8018,10.7747,10.7669,10.7745,10.7786,10.7864,10.7892,10.7912,10.7632,10.7242,10.7022,10.6698,10.6549,10.6379,10.6477,10.6517,10.6466,10.6405,10.6395,10.6395,10.6395,10.6318,10.7191,10.7307,10.7191,10.7191,10.7307,10.7307,10.7344,10.7432,10.75,10.7624,10.785,10.7923,10.7954,10.8003,10.8007,10.8008,10.8008,10.7969,10.789,10.7695,10.7695,10.7461,10.7344,10.7265,10.7383,10.7187,10.6445,10.5742,10.5664,10.5508,10.5781,10.5625,10.5664,10.5664,10.5898,10.625,10.6836,10.6953,10.7617,10.8008,10.8125,10.8242,10.8515,10.8984,10.9062,10.9375,11.0117,11.0892,11.1467,11.1542,11.2258,11.2553,11.2275,11.1299,11.075,11.0907,11.1494,11.1963,11.2041,11.2626,11.3019,11.3097,11.3097,11.3097,11.3097,11.3058,11.298,11.2665,11.2041,11.087,10.9308,10.9464,10.9581,10.9308,10.8957,10.8684,10.8174,10.8018,10.8018,10.8018,10.8018,10.8018,10.8018,10.8018,10.8018,10.8018,10.8018,10.8018,10.8018,10.8018,10.8018,10.8018,10.8018,10.8018,10.794,10.7901,10.794,10.7901,10.794,10.794,10.797,10.7972,10.7785,10.7464,10.7227,10.7035,10.6898,10.6791,10.6641,10.6536,10.6457,10.6405,10.6395,10.6395,10.6395,10.6113,10.6113,10.6113,10.6346,10.674,10.6779,10.7115,10.7601,10.7678,10.7788,10.7922,10.7995,10.8005,10.8007,10.8007,10.8008,10.8008,10.8008,10.8008,10.8008,10.8008,10.8008,10.8008,10.8008,10.8008,10.7773,10.7148,10.6719,10.6797,10.6836,10.6719,10.6836,10.6797,10.6797,10.6836,10.7187,10.7344,10.75,10.7812,10.8242,10.8672,10.9023,10.9609,10.9804,10.9961,11.0234,11.0625,11.1438,11.1858,11.2008,11.265,11.3023,11.2824,11.2431,11.1807,11.1846,11.2197,11.247,11.247,11.2902,11.3097,11.3097,11.3097,11.3097,11.3097,11.3058,11.2746,11.2041,11.2041,11.1143,10.9503,11.0167,11.005,10.9503,10.9308,10.8957,10.8291,10.8096,10.8135,10.8174,10.8135,10.8135,10.8018,10.8018,10.8018,10.8018,10.8018,10.8018,10.8018,10.8018,10.8018,10.8018,10.8018,10.8018,10.8018,10.8018,10.8018,10.8018,10.8018,10.8018,10.8018,10.8018,10.7956,10.7762,10.7585,10.7388,10.7145,10.6944,10.6787,10.6641,10.6507,10.6446,10.6415,10.6395,10.6395,10.4977,10.4977,10.4977,10.5488,10.6193,10.6306,10.6856,10.7657,10.7818,10.7891,10.7995,10.8008,10.8008,10.8008,10.8008,10.8008,10.8008,10.8008,10.8008,10.8008,10.8008,10.8008,10.8008,10.8008,10.8008,10.7969,10.7851,10.8008,10.7812,10.7773,10.7929,10.7812,10.7929,10.8008,10.7929,10.7812,10.8008,10.8047,10.8242,10.8711,10.9531,11.0195,11.0703,11.082,11.0859,11.0976,11.1406,11.1906,11.221,11.2397,11.2731,11.3097,11.3097,11.3097,11.3097,11.3097,11.3097,11.3097,11.3097,11.3058,11.3097,11.3097,11.3097,11.3097,11.3097,11.298,11.2509,11.1299,11.1533,11.1611,11.0479,11.0635,11.0635,11.0167,10.9894,10.9542,10.8996,10.8759,10.8877,10.8759,10.8486,10.8291,10.8252,10.8018,10.8018,10.8018,10.8018,10.8018,10.8018,10.8018,10.8018,10.8018,10.8018,10.8018,10.8018,10.8018,10.8018,10.8018,10.8018,10.8018,10.8018,10.8018,10.7954,10.7894,10.7827,10.7628,10.7377,10.7118,10.6975,10.6796,10.6574,10.6457,10.6448,10.6397,10.6395,10.5266,10.5226,10.5226,10.5734,10.6439,10.6478,10.7081,10.7884,10.7942,10.7994,10.8003,10.8008,10.8008,10.8008,10.8008,10.8008,10.8008,10.8008,10.8008,10.8008,10.8008,10.8008,10.8008,10.8008,10.8008,10.8008,10.8008,10.8008,10.8008,10.8008,10.8008,10.8008,10.8008,10.8008,10.8008,10.8008,10.8008,10.8125,10.8789,10.9609,11.0312,11.0664,11.1133,11.1562,11.1797,11.2031,11.2461,11.2766,11.2834,11.2909,11.3001,11.3099,11.3097,11.3097,11.3097,11.3097,11.3097,11.3097,11.3097,11.3097,11.3097,11.3097,11.3097,11.3097,11.3097,11.3058,11.2665,11.1846,11.2392,11.2353,11.1611,11.2197,11.216,11.1689,11.1104,11.0753,11.0204,10.9501,10.9618,10.9696,10.9501,10.8918,10.8566,10.8252,10.8018,10.8018,10.8018,10.8135,10.8252,10.8447,10.8525,10.8642,10.8408,10.8369,10.8213,10.8174,10.8057,10.8057,10.8018,10.8018,10.8018,10.8018,10.8018,10.7961,10.7907,10.783,10.7598,10.736,10.7197,10.6967,10.677,10.663,10.6488,10.6457,10.6559,10.3932,10.3971,10.3932,10.4713,10.5924,10.5963,10.6747,10.7806,10.8003,10.8006,10.8007,10.8008,10.8008,10.8008,10.8008,10.8008,10.8008,10.8008,10.8008,10.8008,10.8008,10.8008,10.8008,10.8008,10.8008,10.8008,10.8008,10.8008,10.8008,10.8008,10.8008,10.8008,10.8008,10.8008,10.8047,10.8008,10.832,10.8945,10.9961,11.0898,11.1367,11.1797,11.2226,11.2617,11.2617,11.2851,11.3047,11.3118,11.3108,11.3103,11.3118,11.3097,11.3097,11.3097,11.3097,11.3097,11.3097,11.3097,11.3097,11.3097,11.3097,11.3097,11.3097,11.3097,11.3097,11.3058,11.2744,11.1885,11.2587,11.2626,11.2197,11.2626,11.2431,11.2158,11.1924,11.1416,11.0946,11.0633,11.0321,11.0477,11.0516,11.005,10.9659,10.9581,10.9384,10.9189,10.9267,10.9345,10.9501,10.9696,10.9696,10.9618,10.923,10.884,10.8605,10.8488,10.8213,10.8135,10.8135,10.8096,10.8018,10.8018,10.8252,10.8174,10.8046,10.7925,10.7813,10.7594,10.7388,10.7165,10.6936,10.6851,10.6812,10.715,10.7349,10.289,10.289,10.289,10.3906,10.5469,10.5508,10.6484,10.789,10.8008,10.8008,10.8008,10.8008,10.8008,10.8008,10.8008,10.8008,10.8008,10.8008,10.8008,10.8008,10.8008,10.8008,10.8008,10.8008,10.8008,10.8008,10.8008,10.8008,10.8008,10.8008,10.8008,10.8008,10.8008,10.8008,10.8086,10.8359,10.8867,11.0117,11.1133,11.1836,11.2265,11.2773,11.3047,11.3164,11.3203,11.3203,11.3203,11.3159,11.3112,11.3148,11.3127,11.3107,11.3107,11.3101,11.3097,11.3097,11.3097,11.3097,11.3097,11.3097,11.3097,11.3097,11.3097,11.3097,11.3097,11.3097,11.2941,11.2275,11.2665,11.2665,11.2431,11.2785,11.2704,11.247,11.2197,11.1689,11.1338,11.1338,11.1416,11.1611,11.1689,11.1494,11.1221,11.1182,11.0948,11.0555,11.0516,11.0555,11.0594,11.0633,11.0477,11.0282,10.997,10.9581,10.9425,10.9111,10.872,10.8486,10.8486,10.8603,10.8799,10.8877,10.9072,10.8838,10.8486,10.8744,10.9093,10.8324,10.7572,10.7383,10.719,10.7184,10.7242,10.7683,10.809,10.289,10.289,10.289,10.3867,10.5469,10.5508,10.6445,10.7851,10.7929,10.7969,10.8008,10.8008,10.8008,10.8008,10.8008,10.8008,10.8008,10.8008,10.8008,10.8008,10.8008,10.8008,10.8008,10.8008,10.8008,10.8008,10.8008,10.8008,10.8047,10.8164,10.8086,10.8008,10.8242,10.8086,10.8437,10.914,11.0039,11.1093,11.1914,11.2383,11.2773,11.3125,11.3164,11.3203,11.3203,11.3203,11.3203,11.3161,11.3156,11.3156,11.3136,11.3117,11.3113,11.3103,11.3097,11.3097,11.3097,11.3097,11.3097,11.3097,11.3097,11.3097,11.3097,11.3097,11.3097,11.3097,11.3019,11.2863,11.3019,11.3019,11.2941,11.3058,11.2941,11.2863,11.2665,11.2548,11.2353,11.2509,11.2626,11.2824,11.2704,11.2353,11.2275,11.2158,11.1846,11.1455,11.1299,11.1338,11.1143,11.1104,11.0907,11.075,11.0594,11.0438,11.0438,11.0087,10.9657,10.9579,10.9579,10.9814,11.0048,11.0087,10.9774,10.9853,10.9657,11.0009,11.0041,10.921,10.8434,10.7801,10.7594,10.7973,10.829,10.8721,10.8944,10.289,10.289,10.289,10.3594,10.4687,10.4687,10.5664,10.7031,10.7187,10.7539,10.8008,10.8008,10.8008,10.8008,10.8008,10.8008,10.8008,10.8008,10.8008,10.8008,10.8008,10.8008,10.8008,10.8008,10.8008,10.8008,10.8008,10.8008,10.8047,10.8437,10.875,10.8789,10.8867,10.9218,10.9648,11.0195,11.1133,11.1758,11.2383,11.2929,11.3047,11.3203,11.3203,11.3203,11.3203,11.3203,11.3203,11.3203,11.3197,11.3151,11.3096,11.3084,11.3113,11.3101,11.3097,11.3097,11.3097,11.3097,11.3097,11.3097,11.3097,11.3097,11.3097,11.3097,11.3097,11.3097,11.3097,11.3097,11.3097,11.3097,11.3097,11.3097,11.3058,11.3097,11.3097,11.3097,11.3097,11.3097,11.3097,11.3019,11.3019,11.2902,11.2941,11.298,11.2626,11.2314,11.2197,11.2041,11.1885,11.1807,11.1689,11.1533,11.1416,11.1299,11.1299,11.0985,11.0594,11.0633,11.0711,11.0828,11.0946,11.0477,11.0282,11.0477,11.0672,11.0672,11.0473,10.9915,10.9438,10.9,10.9033,10.9332,10.9597,10.9802,10.9929,10.289,10.289,10.289,10.3398,10.414,10.4179,10.5156,10.6523,10.6719,10.7187,10.8008,10.8008,10.8008,10.8008,10.8008,10.8008,10.8008,10.8008,10.8008,10.8008,10.8008,10.8008,10.8008,10.8008,10.8008,10.8008,10.8008,10.8008,10.8047,10.8906,10.9336,10.9648,10.9922,11.0351,11.0468,11.1172,11.1758,11.2343,11.25,11.3047,11.3086,11.3203,11.3203,11.3203,11.3203,11.3203,11.3164,11.3159,11.3154,11.3108,11.3095,11.3081,11.3109,11.3101,11.3097,11.3097,11.3097,11.3097,11.3097,11.3097,11.3097,11.3097,11.3097,11.3097,11.3097,11.3097,11.3097,11.3097,11.3097,11.3097,11.3097,11.3097,11.3097,11.3097,11.3097,11.3097,11.3097,11.3097,11.3097,11.3097,11.3097,11.3097,11.3097,11.3097,11.298,11.2704,11.2665,11.2626,11.2626,11.2587,11.2665,11.2548,11.2392,11.2275,11.2158,11.1924,11.1729,11.1807,11.1807,11.165,11.1572,11.1182,11.1182,11.1611,11.1689,11.1377,11.1295,11.129,11.0881,11.0377,11.0419,11.0481,11.0479,11.0645,11.0957,10.289,10.289,10.289,10.3398,10.4062,10.4179,10.5078,10.6484,10.6797,10.7265,10.7969,10.8008,10.8008,10.8008,10.8008,10.8008,10.8008,10.8008,10.8008,10.8008,10.8008,10.8008,10.8008,10.8008,10.8008,10.8008,10.8008,10.8008,10.8047,10.9101,10.9765,11.0547,11.1093,11.1406,11.0742,11.0664,11.1562,11.2773,11.2383,11.2695,11.3047,11.3203,11.3203,11.3203,11.3202,11.32,11.3199,11.3155,11.3109,11.3103,11.3094,11.3083,11.3115,11.3103,11.3097,11.3097,11.3097,11.3097,11.3097,11.3097,11.3097,11.3097,11.3097,11.3097,11.3097,11.3097,11.3097,11.3097,11.3097,11.3097,11.3097,11.3097,11.3097,11.3097,11.3097,11.3097,11.3097,11.3097,11.3097,11.3097,11.3097,11.3097,11.3097,11.3097,11.3097,11.3058,11.3097,11.3097,11.3097,11.3097,11.3097,11.3019,11.2863,11.2785,11.2665,11.2863,11.2863,11.2941,11.2785,11.247,11.2431,11.2392,11.2509,11.2785,11.2587,11.2197,11.2548,11.2939,11.2181,11.1453,11.1467,11.1467,11.1449,11.1458,11.1649,10.289,10.289,10.289,10.3086,10.332,10.3359,10.4336,10.5937,10.7031,10.7734,10.7929,10.8008,10.8008,10.8008,10.8008,10.8008,10.8008,10.8008,10.8008,10.8008,10.8008,10.8008,10.8008,10.8008,10.8008,10.8008,10.8008,10.8008,10.8008,10.9336,11.0117,11.0859,11.1992,11.2539,11.2422,11.2343,11.2812,11.3086,11.2929,11.2929,11.3164,11.3203,11.3203,11.3203,11.3201,11.3198,11.3197,11.3111,11.3102,11.3095,11.3084,11.3118,11.3111,11.3097,11.3097,11.3097,11.3097,11.3097,11.3097,11.3097,11.3097,11.3097,11.3097,11.3097,11.3097,11.3097,11.3097,11.3097,11.3097,11.3097,11.3097,11.3097,11.3097,11.3097,11.3097,11.3097,11.3097,11.3097,11.3097,11.3097,11.3097,11.3097,11.3136,11.3097,11.3097,11.3097,11.3097,11.3097,11.3097,11.3097,11.3097,11.3097,11.3019,11.3058,11.3097,11.3097,11.3097,11.3019,11.3019,11.2941,11.3019,11.3097,11.3058,11.2941,11.3019,11.3097,11.3097,11.3058,11.29,11.2554,11.2329,11.2212,11.2167,11.205,11.2032,10.289,10.289,10.289,10.289,10.289,10.289,10.3906,10.5625,10.7226,10.8008,10.8008,10.8008,10.8008,10.8008,10.8008,10.8008,10.8008,10.8008,10.8008,10.8008,10.8008,10.8008,10.8008,10.8008,10.8008,10.8008,10.8008,10.8008,10.8086,10.9765,11.0898,11.1758,11.2578,11.2929,11.2968,11.2851,11.2773,11.289,11.289,11.2773,11.3047,11.3203,11.3203,11.3203,11.3161,11.3156,11.3152,11.3144,11.3089,11.3118,11.3113,11.3111,11.3099,11.3097,11.3097,11.3097,11.3097,11.3097,11.3097,11.3097,11.3097,11.3097,11.3097,11.3097,11.3097,11.3097,11.3097,11.3097,11.3097,11.3097,11.3097,11.3097,11.3253,11.3253,11.3565,11.3563,11.3956,11.4034,11.3839,11.3722,11.3565,11.3448,11.3253,11.3097,11.3097,11.3097,11.3097,11.3175,11.3214,11.3136,11.3097,11.3097,11.3097,11.3097,11.3097,11.3097,11.3097,11.3097,11.3097,11.3097,11.3097,11.3097,11.3097,11.3097,11.3097,11.3097,11.3097,11.3056,11.2939,11.2934,11.2871,11.2814,11.2832,11.2679,11.2531,10.289,10.289,10.289,10.289,10.289,10.3086,10.4062,10.5625,10.7265,10.8008,10.8008,10.8008,10.8008,10.8008,10.8008,10.8008,10.8008,10.8008,10.8008,10.8008,10.8008,10.8008,10.8008,10.8008,10.8008,10.8008,10.8008,10.8047,10.8203,10.9765,11.1367,11.2617,11.3008,11.3203,11.3008,11.2773,11.2734,11.2929,11.2773,11.2812,11.3086,11.3203,11.3203,11.3163,11.3158,11.3111,11.3102,11.3125,11.3109,11.3099,11.3099,11.3097,11.3097,11.3097,11.3097,11.3097,11.3097,11.3097,11.3097,11.3097,11.3097,11.3097,11.3097,11.3097,11.3097,11.3097,11.3097,11.3097,11.3097,11.3097,11.3097,11.3331,11.3605,11.3915,11.4344,11.4734,11.5244,11.5244,11.4969,11.4774,11.45,11.4305,11.3878,11.3644,11.3761,11.3878,11.3956,11.3917,11.38,11.3175,11.3136,11.3097,11.3097,11.3097,11.3097,11.3175,11.3097,11.3097,11.3097,11.3097,11.3097,11.3136,11.3097,11.3097,11.3097,11.3097,11.3097,11.3097,11.3097,11.309,11.3123,11.3303,11.3288,11.3202,11.3004,10.289,10.289,10.289,10.289,10.3086,10.4219,10.5078,10.5703,10.7265,10.8008,10.8008,10.8008,10.8008,10.8008,10.8008,10.8008,10.8008,10.8008,10.8008,10.8008,10.8008,10.8008,10.8008,10.8008,10.8008,10.8008,10.8008,10.8047,10.8398,10.9765,11.1484,11.289,11.3164,11.3203,11.3086,11.2929,11.3047,11.3047,11.2812,11.2968,11.3086,11.3203,11.3203,11.3161,11.3114,11.3104,11.3091,11.3113,11.3099,11.3097,11.3097,11.3097,11.3097,11.3097,11.3097,11.3097,11.3097,11.3097,11.3097,11.3097,11.3097,11.3097,11.3097,11.3097,11.3097,11.3097,11.3097,11.3097,11.3136,11.3136,11.3409,11.368,11.411,11.4656,11.5086,11.5593,11.6064,11.6101,11.5828,11.5515,11.5281,11.5008,11.458,11.4659,11.4815,11.4893,11.4854,11.4737,11.4502,11.3917,11.3605,11.3605,11.3526,11.3683,11.337,11.3331,11.3175,11.3097,11.3331,11.3448,11.3448,11.3409,11.3214,11.3292,11.3605,11.3409,11.3097,11.3253,11.3644,11.3253,11.321,11.3515,11.3733,11.3701,11.3857,10.289,10.289,10.289,10.289,10.3164,10.4375,10.4961,10.5351,10.7109,10.8008,10.8008,10.8008,10.8008,10.8008,10.8008,10.8008,10.8008,10.8008,10.8008,10.8008,10.8008,10.8008,10.8008,10.8008,10.8008,10.8008,10.8008,10.8008,10.8515,10.9765,11.1484,11.3047,11.3203,11.3203,11.3164,11.3125,11.3164,11.3164,11.3164,11.3203,11.3203,11.3203,11.3201,11.3197,11.3149,11.3095,11.3084,11.3107,11.3099,11.3097,11.3097,11.3097,11.3097,11.3097,11.3097,11.3097,11.3097,11.3097,11.3097,11.3097,11.3097,11.3097,11.3136,11.3097,11.3097,11.3097,11.3097,11.3097,11.3136,11.3253,11.3641,11.411,11.4774,11.5437,11.5906,11.6376,11.6569,11.6764,11.6569,11.6257,11.5986,11.5713,11.5596,11.5713,11.5674,11.5478,11.5361,11.5361,11.5205,11.4893,11.4659,11.462,11.4463,11.4385,11.4073,11.3917,11.4073,11.4229,11.4424,11.4424,11.4112,11.4151,11.4346,11.4307,11.4307,11.4151,11.4034,11.419,11.4424,11.4034,11.3995,11.4615,11.476,11.4419,11.4673,10.289,10.289,10.289,10.289,10.3047,10.3867,10.4258,10.4492,10.6797,10.789,10.7851,10.7969,10.8008,10.8008,10.8008,10.8008,10.8008,10.8008,10.8008,10.8008,10.8008,10.8008,10.8008,10.8008,10.8008,10.8008,10.8086,10.8242,10.8711,10.9922,11.1445,11.3086,11.3203,11.3203,11.3203,11.3203,11.3203,11.3203,11.3203,11.3203,11.3203,11.3202,11.3198,11.3156,11.3143,11.3084,11.3118,11.3109,11.3097,11.3097,11.3097,11.3097,11.3097,11.3097,11.3097,11.3097,11.3097,11.3097,11.3097,11.3097,11.3097,11.3136,11.3175,11.3331,11.3448,11.3175,11.3097,11.3214,11.3292,11.3641,11.4071,11.4891,11.5632,11.6257,11.6764,11.7196,11.7469,11.7584,11.7428,11.7116,11.6843,11.6611,11.6572,11.6689,11.6764,11.6259,11.6181,11.622,11.6103,11.5947,11.5632,11.5515,11.5205,11.5088,11.5127,11.5049,11.5283,11.5478,11.5517,11.5361,11.4971,11.5205,11.5596,11.5322,11.4971,11.5244,11.5322,11.5244,11.5166,11.5166,11.5283,11.5906,11.5897,11.5413,11.5713,10.289,10.289,10.289,10.289,10.3008,10.3828,10.4179,10.4375,10.6172,10.6992,10.7148,10.7656,10.8008,10.8008,10.8008,10.8008,10.8008,10.8008,10.8008,10.8008,10.8008,10.8008,10.8008,10.8008,10.8008,10.8008,10.8164,10.8633,10.9648,11.0508,11.1406,11.3008,11.3203,11.3203,11.3203,11.3203,11.3203,11.3203,11.3203,11.3203,11.3203,11.3201,11.3197,11.315,11.3095,11.3117,11.3109,11.3101,11.3097,11.3097,11.3097,11.3097,11.3097,11.3097,11.3097,11.3097,11.3097,11.3097,11.3097,11.3097,11.3097,11.337,11.3565,11.3915,11.3915,11.3409,11.3253,11.3407,11.3641,11.411,11.4695,11.5632,11.6452,11.7038,11.7545,11.7936,11.8289,11.825,11.8172,11.7975,11.7701,11.7584,11.7508,11.7547,11.7662,11.7701,11.7743,11.7704,11.7587,11.7352,11.6569,11.6296,11.5791,11.5674,11.5908,11.6064,11.6259,11.6142,11.6025,11.5908,11.583,11.6064,11.6298,11.5869,11.5596,11.6025,11.6142,11.5752,11.5713,11.6025,11.6181,11.6608,11.6804,11.6521,11.699,10.289,10.289,10.289,10.289,10.3008,10.3437,10.3633,10.3945,10.5429,10.6172,10.6367,10.7344,10.8008,10.8008,10.8008,10.8008,10.8008,10.8008,10.8008,10.8008,10.8008,10.8008,10.8008,10.8008,10.8008,10.8008,10.8125,10.8789,11.0312,11.0742,11.1445,11.289,11.3203,11.3203,11.3203,11.3203,11.3203,11.3203,11.3203,11.3203,11.3202,11.3159,11.3153,11.3104,11.3089,11.3111,11.3103,11.3097,11.3097,11.3097,11.3097,11.3097,11.3097,11.3097,11.3097,11.3097,11.3097,11.3097,11.3097,11.3097,11.3097,11.337,11.3915,11.4266,11.4422,11.4071,11.4502,11.4698,11.4737,11.5125,11.571,11.6569,11.7116,11.7662,11.7897,11.8172,11.8289,11.8289,11.825,11.8172,11.8014,11.8016,11.7977,11.7938,11.8055,11.8055,11.825,11.825,11.8289,11.8289,11.7587,11.7118,11.665,11.6728,11.7157,11.7196,11.7157,11.6962,11.6689,11.6923,11.7079,11.6962,11.6882,11.6728,11.6728,11.7001,11.6962,11.6611,11.6806,11.7196,11.7196,11.7196,11.7311,11.7467,11.7699,10.289,10.289,10.289,10.289,10.289,10.2929,10.2929,10.3242,10.4765,10.5547,10.582,10.7304,10.789,10.8008,10.8008,10.8008,10.8008,10.8008,10.8008,10.8008,10.8008,10.8008,10.8008,10.8008,10.8008,10.8008,10.8047,10.914,11.0547,11.0742,11.1367,11.2812,11.3203,11.3203,11.3203,11.3203,11.3203,11.3203,11.3203,11.3203,11.3159,11.3112,11.3108,11.3098,11.3081,11.3099,11.3097,11.3097,11.3097,11.3097,11.3097,11.3097,11.3097,11.3097,11.3097,11.3097,11.3097,11.3097,11.3097,11.3097,11.3097,11.3331,11.4032,11.4578,11.4774,11.5281,11.5749,11.5947,11.5986,11.6062,11.6686,11.7194,11.7701,11.8014,11.8172,11.8289,11.8289,11.8289,11.8289,11.8289,11.8289,11.8289,11.8289,11.8289,11.8289,11.8289,11.8289,11.8289,11.8289,11.8289,11.7977,11.7821,11.7626,11.786,11.8133,11.7977,11.7743,11.7782,11.7587,11.8016,11.8172,11.7821,11.7704,11.7938,11.8016,11.7821,11.7899,11.7743,11.8016,11.8055,11.7899,11.7704,11.7821,11.7975,11.8094,10.289,10.289,10.289,10.289,10.289,10.289,10.289,10.3203,10.4726,10.5508,10.5859,10.7109,10.8008,10.8008,10.8008,10.8008,10.8008,10.8008,10.8008,10.8008,10.8008,10.8008,10.8008,10.8008,10.8008,10.8047,10.8242,10.9101,11.0468,11.0742,11.1484,11.3086,11.3203,11.3203,11.3203,11.3203,11.3203,11.3203,11.3202,11.32,11.3158,11.3151,11.3102,11.3089,11.3109,11.3099,11.3097,11.3097,11.3097,11.3097,11.3097,11.3097,11.3097,11.3097,11.3097,11.3097,11.3097,11.3097,11.3097,11.3097,11.3097,11.3253,11.411,11.5242,11.5789,11.6764,11.7116,11.7313,11.7235,11.6843,11.7233,11.774,11.8172,11.8172,11.8289,11.8289,11.8289,11.8289,11.8289,11.8289,11.8289,11.8289,11.8289,11.8289,11.8289,11.8289,11.8289,11.8289,11.8289,11.8289,11.8289,11.8289,11.8289,11.8289,11.825,11.8211,11.8094,11.825,11.8289,11.8289,11.8289,11.8289,11.8289,11.8289,11.8289,11.8133,11.8289,11.8289,11.8289,11.8211,11.8211,11.8211,11.8289,11.8289,11.8289]}]]